[[{"header":{"parameterUnit":"m.s-1","parameterCategory":1,"la1":30.6,"la2":29.2853,"lo1":-89.7004,"lo2":-87.6739,"dy":0.0162,"dx":0.0183,"nx":112,"ny":82,"refTime":"2024-09-02T18:00:00:Z","depth":0,"parameterNumber":2,"parameterNumberName":"U-component_of_WINDS"},"data":[0.0,0.0,0.0,0.0,0.0,0.0,0.0,0.0,0.0,0.0,0.0,0.0,0.0,0.0,0.0,0.0,0.0,0.0,0.0,0.0,0.0,0.0,0.0,0.0,0.0,0.0,0.0,0.0,0.0,0.0,0.0,0.0,0.0,0.0,0.0,0.0,0.0,0.0,0.0,0.0,0.0,0.0,0.0,0.0,0.0,0.0,0.0,0.0,0.0,0.0,0.0,0.0,0.0,0.0,0.0,0.0,0.0,0.0,0.0,0.0,0.0,0.0,0.0,0.0,0.0,0.0,0.0,0.0,0.0,0.0,0.0,0.0,0.0,0.0,0.0,0.0,0.0,0.0,0.0,0.0,0.0,0.0,0.0,0.0,0.0,0.0,0.0,0.0,0.0,0.0,0.0,3.7359,3.9003,4.007,4.007,3.8925,3.722,3.5091,0.0,0.0,0.0,0.0,0.0,0.0,0.0,0.0,0.0,0.0,0.0,0.0,0.0,0.0,0.0,0.0,0.0,0.0,0.0,0.0,0.0,0.0,0.0,0.0,0.0,0.0,0.0,0.0,0.0,0.0,0.0,0.0,0.0,0.0,0.0,0.0,0.0,0.0,0.0,0.0,0.0,0.0,0.0,0.0,0.0,0.0,0.0,0.0,0.0,0.0,0.0,0.0,0.0,0.0,0.0,0.0,0.0,0.0,0.0,0.0,0.0,0.0,0.0,0.0,0.0,0.0,0.0,0.0,0.0,0.0,0.0,0.0,0.0,0.0,0.0,0.0,0.0,0.0,0.0,0.0,0.0,0.0,0.0,0.0,0.0,0.0,0.0,0.0,0.0,0.0,0.0,0.0,0.0,0.0,0.0,0.0,0.0,0.0,0.0,0.0,0.0,0.0,0.0,0.0,3.7546,3.941,3.9935,4.007,4.007,3.8787,3.69,3.4481,0.0,0.0,0.0,0.0,0.0,0.0,0.0,0.0,0.0,0.0,0.0,0.0,0.0,0.0,0.0,0.0,0.0,0.0,0.0,0.0,0.0,0.0,0.0,0.0,0.0,0.0,0.0,0.0,0.0,0.0,0.0,0.0,0.0,0.0,0.0,0.0,0.0,0.0,0.0,0.0,0.0,0.0,0.0,0.0,0.0,0.0,0.0,0.0,0.0,0.0,0.0,0.0,0.0,0.0,0.0,0.0,0.0,0.0,0.0,0.0,0.0,0.0,0.0,0.0,0.0,0.0,0.0,0.0,0.0,0.0,0.0,0.0,0.0,0.0,0.0,0.0,0.0,0.0,0.0,0.0,0.0,0.0,0.0,0.0,0.0,0.0,0.0,0.0,0.0,0.0,0.0,0.0,0.0,0.0,0.0,0.0,0.0,0.0,0.0,0.0,0.0,0.0,0.0,3.6583,3.7695,3.9884,4.007,4.007,4.007,3.8471,3.6522,3.4316,3.1453,0.0,0.0,0.0,0.0,0.0,0.0,0.0,0.0,0.0,0.0,0.0,0.0,0.0,0.0,0.0,0.0,0.0,0.0,0.0,0.0,0.0,0.0,0.0,0.0,0.0,0.0,0.0,0.0,0.0,0.0,0.0,0.0,0.0,0.0,0.0,0.0,0.0,0.0,0.0,0.0,0.0,0.0,0.0,0.0,0.0,0.0,0.0,0.0,0.0,0.0,0.0,0.0,0.0,0.0,0.0,0.0,0.0,0.0,0.0,0.0,0.0,0.0,0.0,0.0,0.0,0.0,0.0,0.0,0.0,0.0,0.0,0.0,0.0,0.0,0.0,0.0,0.0,0.0,0.0,0.0,0.0,0.0,0.0,0.0,0.0,0.0,0.0,0.0,0.0,0.0,0.0,0.0,0.0,0.0,0.0,0.0,0.0,0.0,0.0,0.0,0.0,0.0,3.8265,3.821,3.9901,4.0087,4.0087,4.0087,3.8036,3.5927,3.4056,3.0776,0.0,0.0,0.0,0.0,0.0,0.0,0.0,0.0,0.0,0.0,0.0,0.0,0.0,0.0,0.0,0.0,0.0,0.0,0.0,0.0,0.0,0.0,0.0,0.0,0.0,0.0,0.0,0.0,0.0,0.0,0.0,0.0,0.0,0.0,0.0,0.0,0.0,0.0,0.0,0.0,0.0,0.0,0.0,0.0,0.0,0.0,0.0,0.0,0.0,0.0,0.0,0.0,0.0,0.0,0.0,0.0,0.0,0.0,0.0,0.0,0.0,0.0,0.0,0.0,0.0,0.0,0.0,0.0,0.0,0.0,0.0,0.0,0.0,0.0,0.0,0.0,0.0,0.0,0.0,0.0,0.0,0.0,0.0,0.0,0.0,0.0,0.0,0.0,0.0,0.0,0.0,0.0,0.0,0.0,0.0,0.0,0.0,0.0,0.0,0.0,0.0,0.0,3.8681,3.9901,4.0054,3.9986,3.9935,4.007,3.729,3.4901,3.3386,2.9935,0.0,0.0,0.0,0.0,0.0,0.0,0.0,0.0,0.0,0.0,0.0,0.0,0.0,0.0,0.0,0.0,0.0,0.0,0.0,0.0,0.0,0.0,0.0,0.0,0.0,0.0,0.0,0.0,0.0,0.0,0.0,0.0,0.0,0.0,0.0,0.0,0.0,0.0,0.0,0.0,0.0,0.0,0.0,0.0,0.0,0.0,0.0,0.0,0.0,0.0,0.0,0.0,0.0,0.0,0.0,0.0,0.0,0.0,0.0,0.0,0.0,0.0,0.0,0.0,0.0,0.0,0.0,0.0,0.0,0.0,0.0,0.0,0.0,0.0,0.0,0.0,0.0,0.0,0.0,0.0,0.0,0.0,0.0,0.0,0.0,0.0,0.0,0.0,0.0,0.0,0.0,0.0,0.0,0.0,0.0,0.0,0.0,0.0,0.0,0.0,0.0,0.0,3.8247,3.9361,0.0,3.9986,3.9986,3.9986,3.8113,3.5863,3.337,0.0,0.0,0.0,0.0,0.0,0.0,0.0,0.0,0.0,0.0,0.0,0.0,0.0,0.0,0.0,0.0,0.0,0.0,0.0,0.0,0.0,0.0,0.0,0.0,0.0,0.0,0.0,0.0,0.0,0.0,0.0,0.0,0.0,0.0,0.0,0.0,0.0,0.0,0.0,0.0,0.0,0.0,0.0,0.0,0.0,0.0,0.0,0.0,0.0,0.0,0.0,0.0,0.0,0.0,0.0,0.0,0.0,0.0,0.0,0.0,0.0,0.0,0.0,0.0,0.0,0.0,0.0,0.0,0.0,0.0,0.0,0.0,0.0,0.0,0.0,0.0,0.0,0.0,0.0,0.0,0.0,0.0,0.0,0.0,0.0,0.0,0.0,0.0,0.0,0.0,0.0,0.0,0.0,0.0,0.0,0.0,0.0,0.0,0.0,0.0,0.0,0.0,3.641,3.8191,3.9478,0.0,3.9986,4.0037,3.9986,3.8198,3.5911,3.3043,0.0,0.0,0.0,0.0,0.0,0.0,0.0,0.0,0.0,0.0,0.0,0.0,0.0,0.0,0.0,0.0,0.0,0.0,0.0,0.0,0.0,0.0,0.0,0.0,0.0,0.0,0.0,0.0,0.0,0.0,0.0,0.0,0.0,0.0,0.0,0.0,0.0,0.0,0.0,0.0,0.0,0.0,0.0,0.0,0.0,0.0,0.0,0.0,0.0,0.0,0.0,0.0,0.0,0.0,0.0,0.0,0.0,0.0,0.0,0.0,0.0,0.0,0.0,0.0,0.0,0.0,0.0,0.0,0.0,0.0,0.0,0.0,0.0,0.0,0.0,0.0,0.0,0.0,0.0,0.0,0.0,0.0,0.0,0.0,0.0,0.0,0.0,0.0,0.0,0.0,0.0,0.0,0.0,0.0,0.0,0.0,0.0,0.0,0.0,0.0,0.0,0.0,3.561,3.8665,4.0628,4.0171,3.9986,3.9935,4.007,3.7236,3.4514,0.0,0.0,0.0,0.0,0.0,0.0,0.0,0.0,0.0,0.0,0.0,0.0,0.0,0.0,0.0,0.0,0.0,0.0,0.0,0.0,0.0,0.0,0.0,0.0,0.0,0.0,0.0,0.0,0.0,0.0,0.0,0.0,0.0,0.0,0.0,0.0,0.0,0.0,0.0,0.0,0.0,0.0,0.0,0.0,0.0,0.0,0.0,0.0,0.0,0.0,0.0,0.0,0.0,0.0,0.0,0.0,0.0,0.0,0.0,0.0,0.0,0.0,0.0,0.0,0.0,0.0,0.0,0.0,0.0,0.0,0.0,0.0,0.0,0.0,0.0,0.0,0.0,0.0,0.0,0.0,0.0,0.0,0.0,0.0,0.0,0.0,0.0,0.0,0.0,0.0,0.0,0.0,0.0,0.0,0.0,0.0,0.0,0.0,0.0,0.0,0.0,0.0,0.0,3.5742,3.8995,4.0955,4.0037,3.9986,3.9834,3.9227,3.7945,3.5509,3.1667,0.0,0.0,0.0,0.0,0.0,0.0,0.0,0.0,0.0,0.0,0.0,0.0,0.0,0.0,0.0,0.0,0.0,0.0,0.0,0.0,0.0,0.0,0.0,0.0,0.0,0.0,0.0,0.0,0.0,0.0,0.0,0.0,0.0,0.0,0.0,0.0,0.0,0.0,0.0,0.0,0.0,0.0,0.0,0.0,0.0,0.0,0.0,0.0,0.0,0.0,0.0,0.0,0.0,0.0,0.0,0.0,0.0,0.0,0.0,0.0,0.0,0.0,0.0,0.0,0.0,0.0,0.0,0.0,0.0,0.0,0.0,0.0,0.0,0.0,0.0,0.0,0.0,0.0,0.0,0.0,0.0,0.0,0.0,0.0,0.0,0.0,0.0,0.0,0.0,0.0,0.0,0.0,0.0,0.0,0.0,0.0,0.0,0.0,0.0,0.0,0.0,0.0,3.5708,3.9111,4.1094,4.007,4.0037,3.9901,3.9379,3.8449,3.6286,3.2479,0.0,0.0,0.0,0.0,0.0,0.0,0.0,0.0,0.0,0.0,0.0,0.0,0.0,0.0,0.0,0.0,0.0,0.0,0.0,0.0,0.0,0.0,0.0,0.0,0.0,0.0,0.0,0.0,0.0,0.0,0.0,0.0,0.0,0.0,0.0,0.0,0.0,0.0,0.0,0.0,0.0,0.0,0.0,0.0,0.0,0.0,0.0,0.0,0.0,0.0,0.0,0.0,0.0,0.0,0.0,0.0,0.0,0.0,0.0,0.0,0.0,0.0,0.0,0.0,0.0,0.0,0.0,0.0,0.0,0.0,0.0,0.0,0.0,0.0,0.0,0.0,0.0,0.0,0.0,0.0,0.0,0.0,0.0,0.0,0.0,0.0,0.0,0.0,0.0,0.0,0.0,0.0,0.0,0.0,0.0,0.0,0.0,0.0,0.0,0.0,0.0,0.0,3.5773,3.9153,4.1139,4.0221,4.007,4.0054,3.9986,3.87,3.6784,3.4056,0.0,0.0,0.0,0.0,0.0,0.0,0.0,0.0,0.0,0.0,0.0,0.0,0.0,0.0,0.0,0.0,0.0,0.0,0.0,0.0,0.0,0.0,0.0,0.0,0.0,0.0,0.0,0.0,0.0,0.0,0.0,0.0,0.0,0.0,0.0,0.0,0.0,0.0,0.0,0.0,0.0,0.0,0.0,0.0,0.0,0.0,0.0,0.0,0.0,0.0,0.0,0.0,0.0,0.0,0.0,0.0,0.0,0.0,0.0,0.0,3.2825,0.0,0.0,0.0,0.0,0.0,0.0,0.0,0.0,0.0,0.0,0.0,0.0,0.0,0.0,0.0,0.0,0.0,0.0,0.0,0.0,0.0,0.0,0.0,0.0,0.0,0.0,0.0,0.0,0.0,0.0,0.0,0.0,0.0,0.0,0.0,0.0,0.0,0.0,0.0,0.0,0.0,3.7381,3.9783,4.1139,4.0221,4.007,3.9851,3.9276,3.8413,3.6784,3.4056,3.1772,0.0,0.0,0.0,0.0,0.0,0.0,0.0,0.0,0.0,0.0,0.0,0.0,0.0,0.0,0.0,0.0,0.0,0.0,0.0,0.0,0.0,0.0,0.0,0.0,0.0,0.0,0.0,0.0,0.0,0.0,0.0,0.0,0.0,0.0,0.0,0.0,0.0,0.0,0.0,0.0,0.0,0.0,0.0,0.0,0.0,0.0,0.0,0.0,0.0,0.0,0.0,0.0,0.0,0.0,0.0,0.0,0.0,0.0,0.0,0.0,3.5157,0.0,0.0,0.0,0.0,0.0,0.0,0.0,0.0,0.0,0.0,0.0,0.0,0.0,0.0,0.0,0.0,0.0,0.0,0.0,0.0,0.0,0.0,0.0,0.0,0.0,0.0,0.0,0.0,0.0,0.0,0.0,0.0,0.0,0.0,0.0,0.0,0.0,0.0,0.0,0.0,3.7381,3.96,4.0879,4.0171,4.007,3.9918,3.9546,3.8853,3.7506,3.5417,3.3054,0.0,0.0,0.0,0.0,0.0,0.0,0.0,0.0,0.0,0.0,0.0,0.0,0.0,0.0,0.0,0.0,0.0,0.0,0.0,0.0,0.0,0.0,0.0,0.0,0.0,0.0,0.0,0.0,0.0,0.0,0.0,0.0,0.0,0.0,0.0,0.0,0.0,0.0,0.0,0.0,0.0,0.0,0.0,0.0,0.0,0.0,0.0,0.0,0.0,0.0,0.0,0.0,0.0,3.9287,3.973,3.9771,3.973,4.0308,4.1274,4.0047,3.8996,3.8079,3.7281,0.0,0.0,0.0,0.0,0.0,0.0,0.0,0.0,0.0,0.0,0.0,0.0,0.0,0.0,0.0,0.0,0.0,0.0,0.0,0.0,0.0,0.0,0.0,0.0,4.1632,4.2022,3.9097,0.0,0.0,0.0,0.0,0.0,0.0,0.0,0.0,0.0,0.0,0.0,3.7507,3.9431,4.0628,4.0171,4.007,4.007,4.007,3.9411,3.8413,3.706,3.4723,3.2486,0.0,0.0,0.0,0.0,0.0,0.0,0.0,0.0,0.0,0.0,0.0,0.0,0.0,0.0,0.0,0.0,0.0,0.0,0.0,0.0,0.0,0.0,0.0,0.0,0.0,0.0,0.0,0.0,0.0,0.0,0.0,0.0,3.4777,3.4752,0.0,0.0,0.0,0.0,0.0,0.0,0.0,0.0,0.0,0.0,0.0,0.0,0.0,3.8608,3.8497,3.9945,4.0787,4.1004,4.23,4.3161,4.3634,4.3427,4.3524,4.3922,4.3958,0.0,4.0753,4.1294,0.0,0.0,0.0,0.0,0.0,0.0,0.0,0.0,0.0,0.0,0.0,0.0,0.0,0.0,0.0,0.0,0.0,0.0,0.0,0.0,0.0,0.0,4.4327,4.339,4.3847,4.4297,0.0,4.2212,4.0773,3.9688,4.0079,0.0,0.0,0.0,0.0,0.0,0.0,0.0,4.0267,4.0565,4.0628,4.0171,4.007,4.007,4.007,3.9411,3.8633,3.7821,3.6185,3.4718,3.3495,3.2252,0.0,0.0,0.0,0.0,0.0,0.0,0.0,0.0,0.0,0.0,0.0,0.0,0.0,0.0,0.0,0.0,0.0,0.0,0.0,0.0,0.0,0.0,0.0,0.0,0.0,0.0,0.0,0.0,0.0,3.4686,3.6517,3.6036,3.7063,3.7492,0.0,0.0,0.0,0.0,0.0,0.0,0.0,0.0,0.0,4.0289,4.1489,4.232,4.2779,4.3442,4.386,4.3974,4.4559,4.4755,4.4573,4.4447,4.4395,4.4402,4.4374,4.4039,4.3452,4.2693,4.1863,4.1071,0.0,0.0,0.0,0.0,4.2814,4.2852,4.2967,4.2813,4.2445,4.1598,0.0,0.0,0.0,0.0,0.0,0.0,0.0,0.0,0.0,0.0,4.4341,4.414,4.4334,4.4493,4.4221,4.3513,4.2619,0.0,4.1553,4.1134,3.9678,0.0,0.0,0.0,0.0,4.0175,3.9816,4.0146,4.0353,4.0121,4.007,4.007,4.007,3.9783,3.9292,3.8565,3.7516,3.6274,3.4942,3.4208,3.3034,0.0,0.0,0.0,0.0,0.0,0.0,0.0,0.0,0.0,0.0,0.0,0.0,0.0,0.0,0.0,0.0,0.0,0.0,0.0,0.0,0.0,0.0,0.0,0.0,0.0,0.0,0.0,0.0,3.6667,3.8243,3.7526,3.9068,3.9662,0.0,0.0,0.0,0.0,0.0,0.0,4.113,4.2268,4.302,4.3204,4.4378,4.5296,4.5883,4.5902,4.5902,4.5902,4.5902,4.559,4.5021,4.5021,4.4961,4.4907,4.4797,4.517,4.5687,4.3798,4.2712,4.2265,4.2265,4.2265,4.2341,4.3155,4.3425,4.3522,4.4192,4.4307,4.4116,4.3731,4.3057,4.2249,4.1649,0.0,0.0,0.0,0.0,4.3254,4.3869,4.3938,4.3914,4.4233,4.4318,4.4221,4.3923,4.4027,4.3934,0.0,4.2603,4.201,4.0961,0.0,0.0,0.0,0.0,4.0438,3.9881,4.0109,4.0254,4.0254,4.0171,4.007,4.007,4.007,3.9766,3.9039,3.8481,3.7584,3.6276,3.6072,3.5043,3.3151,0.0,0.0,0.0,0.0,0.0,0.0,0.0,0.0,0.0,0.0,0.0,0.0,0.0,0.0,0.0,0.0,0.0,0.0,0.0,0.0,0.0,0.0,0.0,0.0,0.0,0.0,0.0,0.0,0.0,3.9853,4.0506,0.0,0.0,0.0,0.0,4.2011,4.1515,4.2084,4.4342,4.4544,4.4929,4.5681,4.5792,4.5865,4.5902,4.5902,4.5902,4.5902,4.5902,4.5883,4.5847,4.5847,4.5987,4.6318,4.663,4.6967,4.7163,4.5388,4.4829,4.5105,4.5105,4.5105,4.5105,4.5144,4.5163,4.5163,4.522,4.4745,4.423,4.5035,4.4787,4.415,4.4112,4.3555,0.0,0.0,4.3923,4.3866,4.4722,4.4694,4.4382,4.4087,4.4042,4.3942,4.3582,4.4138,4.445,0.0,4.3408,4.3123,4.2492,0.0,4.2213,4.205,4.1672,4.156,4.1979,4.1303,4.0754,4.0754,4.0353,4.007,4.007,4.007,3.9766,3.9039,3.8954,3.8614,3.7925,3.8001,3.7407,3.6095,3.4755,0.0,0.0,0.0,0.0,0.0,0.0,0.0,0.0,0.0,0.0,0.0,0.0,0.0,0.0,0.0,0.0,0.0,0.0,0.0,0.0,0.0,0.0,0.0,0.0,0.0,0.0,0.0,0.0,4.1566,4.2616,0.0,4.2286,4.2433,4.2928,4.3791,4.4066,4.4562,4.5424,4.5975,4.6397,4.6673,4.7168,4.7443,4.7443,4.7443,4.7443,4.7443,4.7443,4.7168,4.6673,4.6673,4.656,4.642,4.6512,4.6861,4.7302,4.6695,4.6658,4.692,4.692,4.692,4.6844,4.629,4.6061,4.6003,4.5468,4.5107,4.4937,4.5283,4.5227,4.5016,4.5016,4.4805,4.4595,4.492,4.4901,4.4794,4.47,4.4572,4.4299,4.3791,4.407,4.4407,4.4303,4.4911,4.5388,4.5094,4.4985,4.4783,4.427,4.3851,4.3408,4.2736,4.225,4.1803,4.1383,4.1019,4.0659,4.0402,4.0221,4.007,4.007,4.007,3.9969,3.9698,3.8819,3.8379,3.8614,3.7364,3.6701,3.6797,3.5386,3.4384,0.0,0.0,0.0,0.0,0.0,0.0,0.0,0.0,0.0,0.0,0.0,0.0,0.0,0.0,0.0,0.0,0.0,0.0,0.0,0.0,0.0,0.0,0.0,0.0,0.0,0.0,4.3387,4.3149,4.4305,4.48,4.3975,4.4635,4.5223,4.5498,4.6012,4.6416,4.6709,4.7223,4.7517,4.7517,4.8031,4.8306,4.8306,4.8286,4.8286,4.8306,4.8286,4.7992,4.7517,4.7517,4.7389,4.7203,4.7332,4.7669,4.8174,4.8296,4.8481,4.8602,4.8028,4.7799,4.7742,4.715,4.694,4.6863,4.635,4.6179,4.6179,4.6261,4.6282,4.6302,4.6282,4.6282,4.6263,4.6243,4.6077,4.5813,4.5421,4.5113,4.4798,4.4391,4.4709,4.5112,4.5112,4.5736,4.6305,4.6305,4.603,4.5697,4.5412,4.5012,4.4415,4.364,4.3006,4.2339,4.1493,4.1052,4.0659,4.0353,4.0221,4.007,4.007,4.007,4.007,4.007,3.9174,3.8751,3.8988,3.7661,3.6893,3.6768,3.5277,3.472,3.5292,0.0,0.0,0.0,0.0,0.0,0.0,0.0,0.0,0.0,0.0,0.0,0.0,0.0,0.0,0.0,0.0,0.0,0.0,0.0,0.0,0.0,0.0,0.0,4.3534,4.3571,4.3901,4.469,4.548,4.5681,4.4892,4.5516,4.6305,4.7057,4.7112,4.7461,4.8269,4.8306,4.8306,4.8306,4.8324,4.8343,4.8343,4.8263,4.8302,4.8343,4.8226,4.8265,4.8306,4.8306,4.8458,4.8816,4.9145,4.9483,4.983,5.0144,5.0302,5.0149,4.8525,4.7895,4.7895,4.7857,4.7818,4.7799,4.7865,4.7886,4.7907,4.7968,4.8048,4.8087,4.8028,4.7988,4.7988,4.7905,4.7435,4.6909,4.688,4.6382,4.5902,4.5902,4.592,4.5938,4.5938,4.6581,4.715,4.715,4.647,4.5864,4.5864,4.5694,4.5385,4.4863,4.4014,0.0,4.2658,4.1551,4.0836,4.0802,4.0353,4.007,4.007,4.007,4.007,4.007,4.0054,3.9732,3.9056,3.9086,3.8212,3.6154,3.4409,3.417,3.5532,0.0,0.0,0.0,0.0,0.0,0.0,0.0,0.0,0.0,0.0,0.0,0.0,0.0,0.0,0.0,0.0,0.0,0.0,0.0,0.0,0.0,4.2993,4.42,4.4343,4.5334,4.6158,4.6397,4.7111,4.7476,4.7256,4.7439,4.7602,4.7725,4.7743,4.7834,4.8053,4.8169,4.8169,4.8072,4.8833,4.9203,4.9105,4.9203,4.9242,4.9224,4.8561,4.8267,4.8306,4.8306,4.8326,4.8458,4.9048,4.9345,4.9483,5.0051,5.0302,5.0245,4.9786,4.9614,4.9538,4.8965,4.8334,4.7799,4.7821,4.7843,4.7907,4.7907,4.7968,4.8009,4.8008,4.7988,4.7947,4.7674,4.7447,4.717,4.6712,4.6434,4.6202,4.5974,4.6361,4.6783,4.6783,4.7407,4.7976,4.7976,4.7772,4.7587,4.7529,4.6919,4.6379,4.6178,4.5066,0.0,4.2818,4.205,4.126,4.0404,4.0171,4.007,4.007,4.007,4.007,4.007,3.958,3.9445,3.9766,3.8371,3.7336,3.6837,3.6519,3.6296,0.0,0.0,0.0,0.0,0.0,0.0,0.0,0.0,0.0,0.0,0.0,0.0,0.0,0.0,0.0,0.0,0.0,0.0,0.0,0.0,0.0,0.0,4.4637,4.5624,4.6103,4.6614,4.7069,4.7514,4.7934,4.8226,4.8247,4.8247,4.8208,4.8151,4.848,4.8681,4.8681,4.9069,4.9252,4.9193,4.979,5.0046,5.0006,5.0006,5.0046,5.0086,4.9533,4.9294,4.9352,4.9352,4.9169,4.8877,4.9387,4.9682,4.989,5.0407,5.0722,0.0,0.0,0.0,0.0,0.0,4.9289,4.885,4.8872,4.8917,4.8939,4.8982,4.9043,4.9064,4.8917,4.8853,4.877,4.8441,4.8163,4.7905,4.7551,4.7321,4.7148,4.6948,4.7278,4.7609,4.7609,4.7976,4.8306,4.8306,4.8306,0.0,4.7834,4.751,4.7219,4.6957,4.5666,4.4364,4.3441,4.2595,4.1801,4.1103,4.1001,4.0882,4.0578,4.0544,0.0,0.0,0.0,3.9379,3.9277,3.7581,0.0,0.0,0.0,0.0,0.0,0.0,0.0,0.0,3.6848,3.6702,0.0,0.0,0.0,0.0,0.0,0.0,0.0,0.0,0.0,0.0,0.0,0.0,0.0,0.0,0.0,0.0,4.67,4.7579,4.8312,4.7649,4.7317,4.8114,4.8187,4.8226,4.8229,4.8359,4.8396,4.8375,4.9203,4.968,4.968,0.0,0.0,0.0,0.0,5.089,5.089,5.079,5.079,5.089,5.0698,5.0643,5.0802,5.0802,5.0398,4.974,5.0046,5.0396,5.0773,5.1121,5.1478,5.1639,5.0684,5.0302,5.0302,5.0302,5.0302,5.0302,5.0367,0.0,0.0,5.0416,5.0459,5.0438,5.0139,4.9981,4.9891,4.9569,4.915,4.8797,4.8781,4.8532,4.8306,4.8306,4.8306,4.8306,4.8306,4.8267,4.821,4.821,4.8172,4.7937,4.7299,4.7609,4.7752,4.715,4.5946,4.4838,4.425,4.3166,4.2388,4.2303,0.0,0.0,4.139,4.1322,4.1035,4.0375,4.0273,3.9697,3.8441,3.7215,3.6896,3.7605,3.6838,3.6995,3.8284,3.8467,3.8647,3.8766,3.7541,3.7419,0.0,0.0,0.0,0.0,0.0,0.0,0.0,0.0,0.0,0.0,0.0,0.0,0.0,0.0,0.0,4.7193,4.8569,4.9524,4.9688,4.9035,4.8429,4.8203,4.8187,4.8148,4.7966,4.8612,4.8976,4.8805,4.9634,5.015,5.015,5.0344,5.0459,5.0483,5.1224,5.1572,5.1469,5.153,5.1572,5.1614,0.0,0.0,5.0802,5.0802,5.0729,5.0603,5.1188,5.1509,5.1606,5.2216,5.2507,5.2422,5.0894,5.0302,5.0302,5.0302,5.0302,5.0302,5.0302,5.0169,5.0006,5.0012,4.9891,4.9692,4.9655,4.9608,0.0,4.9277,4.9034,4.8813,4.8605,4.8438,4.8306,4.8306,4.8306,4.8306,4.8306,4.7995,4.7733,4.7733,4.7421,4.7133,4.6981,4.7327,4.7284,4.6436,4.5863,4.5164,4.4337,4.3644,4.2963,4.2354,4.2286,4.2236,4.21,4.2083,4.2016,4.1863,4.1385,4.075,3.9991,3.9182,3.888,3.9007,3.8962,3.9041,3.9399,3.9265,3.8731,3.8019,3.8101,3.8545,0.0,0.0,0.0,0.0,0.0,0.0,0.0,0.0,0.0,0.0,0.0,4.3014,4.4596,0.0,4.806,4.8835,4.9633,5.0141,5.0141,4.9901,4.9458,4.8739,4.8648,4.863,4.8566,4.9359,4.9857,4.9749,5.0641,5.114,5.114,5.1548,5.181,5.1791,5.2254,5.2456,5.2395,5.2456,5.2517,5.2517,5.2095,5.1954,5.2013,5.2161,5.194,5.143,5.2151,5.2437,5.2503,5.3164,5.3454,5.332,5.204,5.1314,5.0951,5.0951,5.0665,5.0302,5.0302,5.0212,5.0076,4.991,4.9784,4.9636,4.9333,4.9221,4.9158,4.8887,4.8694,4.8586,4.842,4.8363,4.8306,4.8306,4.8132,4.8046,4.8407,4.782,4.7356,4.7751,4.7295,4.6799,4.6454,4.6631,4.6742,4.6358,4.5903,4.5373,4.4803,4.438,4.3952,4.347,4.3436,4.3284,4.2878,4.2506,4.2162,4.182,4.1471,4.0869,3.9934,3.9564,3.9267,3.898,3.9108,3.9187,3.9282,3.9147,3.8811,3.8304,3.8023,3.8117,0.0,0.0,0.0,0.0,0.0,0.0,0.0,3.9589,4.0077,4.2376,4.4086,4.5573,4.6803,4.8345,4.9633,5.026,5.0522,5.0639,5.0639,5.0702,5.0472,4.9846,4.9543,4.9385,4.9432,5.0222,5.078,5.078,5.1632,5.2174,5.2174,5.2797,5.3164,5.3206,5.3164,5.3164,5.3164,5.3164,5.3164,5.3164,5.3164,5.3164,5.3206,5.3502,5.3093,5.2257,5.3009,5.34,5.3579,5.4131,5.4352,5.4276,5.3569,5.2805,5.2079,5.1907,5.1367,5.067,5.0517,5.0367,5.0164,4.9759,4.9599,4.9512,4.9019,4.8927,4.8969,4.879,4.8768,4.8802,4.8802,4.8802,4.8802,4.8802,4.8429,4.8242,4.8815,4.8012,4.7346,4.7968,4.7548,4.6883,4.6322,4.6357,4.637,4.6217,4.5819,4.5459,4.5232,4.4961,4.4737,4.4626,4.4587,4.4333,4.369,4.3081,4.2492,4.1959,4.1699,4.1043,4.0023,3.9724,3.937,3.8908,3.8908,3.8908,3.8908,3.8674,3.8612,3.859,3.7667,3.7425,3.7267,3.7885,3.8656,4.0206,4.0172,4.0613,0.0,4.4399,4.4486,4.5739,4.7246,4.8442,4.8605,4.9945,5.1049,5.114,5.1756,5.2254,5.2254,5.1656,5.1439,5.2073,5.1121,5.0373,5.0253,5.0896,5.137,5.1474,5.2266,5.2766,5.2871,5.2987,5.306,5.3206,5.3103,5.2999,5.2999,5.2999,5.2999,5.2999,5.2999,5.3103,5.3206,5.3248,5.3193,5.3101,5.3868,5.4541,5.5153,5.5224,5.525,5.525,5.5154,5.4581,5.3722,5.2938,5.2425,5.1954,5.1261,5.0564,4.9918,4.9176,4.8711,4.8458,4.8402,4.8897,4.9504,4.9483,4.9958,5.0527,5.0527,5.0527,5.0527,5.0527,5.0101,4.9738,4.9828,4.8984,4.8256,4.8344,4.798,4.7605,4.7496,4.7403,4.6883,4.5383,4.523,4.5123,4.4869,4.4831,4.4737,4.4626,4.4587,4.4536,4.4451,4.4367,4.4316,4.426,4.3043,4.2278,4.2153,4.0974,4.0362,4.0309,3.9622,3.9238,3.9253,3.8222,3.7801,3.7862,3.7526,3.7737,3.8229,3.9215,4.0018,4.1192,4.1808,4.2757,4.5061,4.5963,4.6621,4.7784,4.9227,5.0307,5.0307,5.123,5.1991,0.0,5.2281,5.2498,5.2498,5.2218,5.22,5.2608,5.2178,5.1821,5.1645,5.2354,5.2608,5.2225,5.3043,5.365,5.3712,5.4239,5.4539,5.4583,5.4081,5.3799,5.3799,5.3341,5.3103,5.3103,5.3103,5.3164,5.3206,5.34,5.3602,5.387,5.4177,5.4578,5.5066,5.5286,5.5403,5.5403,5.5403,5.5193,5.4753,5.3874,5.3027,5.2267,5.1926,5.1461,5.09,5.0412,5.0157,5.0027,4.9816,5.0013,5.0288,5.0288,5.0545,5.0802,5.0802,5.0561,5.0314,5.0314,4.9685,4.9226,4.9657,4.8836,4.8114,4.8549,4.8142,4.7717,4.7717,4.7662,4.7382,4.6691,4.6083,4.5511,4.4882,4.4776,4.4737,4.4626,4.4682,4.4682,4.4643,4.4976,4.5041,4.4658,4.4142,4.3589,4.3195,4.224,4.1495,4.0928,4.0604,4.0069,3.9448,3.856,3.7983,3.7895,3.7455,3.7199,3.9112,4.025,4.1226,4.2241,4.3251,4.4404,4.5863,4.7173,4.8295,4.922,5.0595,5.1629,5.1629,5.21,5.2498,5.2498,5.2498,5.2498,5.2498,5.2536,5.2726,5.3026,5.329,5.3254,5.287,5.3235,5.3426,5.3107,5.377,5.4298,5.458,5.5236,5.5592,5.5592,5.5023,5.473,5.473,5.4161,5.3757,5.3537,5.3537,5.3427,5.3206,5.3462,5.3758,5.4158,5.4228,5.4495,5.4836,5.5214,5.5403,5.5403,5.5403,5.5332,5.5157,5.4528,5.3698,5.2821,5.2594,5.2202,5.1726,5.1287,5.1176,5.11,5.0864,5.0949,5.1132,5.1132,5.1298,5.1422,5.1279,5.0926,5.0642,5.0506,4.9742,4.9188,4.9784,4.9072,4.851,4.9045,4.8717,4.8338,4.8338,4.8338,4.8269,4.8062,4.7305,4.6503,4.5657,4.5273,4.5014,4.4699,4.4868,4.4987,4.4891,4.5378,4.5487,4.5031,4.461,4.4157,4.3712,4.2741,4.1864,4.1113,4.0654,4.0017,3.914,3.8366,3.7977,3.7874,3.7217,3.6721,3.9681,4.0707,4.2178,4.3825,4.4693,4.5563,4.7252,4.8851,5.0053,5.0053,5.1339,5.2462,5.2462,5.248,5.2498,5.2498,5.2498,5.2498,5.2498,5.2536,5.2881,5.3681,5.4462,5.4626,5.3844,5.319,5.3259,5.4264,5.425,5.4598,5.5519,5.5574,5.5592,5.5592,5.5574,5.5556,5.5556,5.5537,5.5133,5.4363,5.4363,5.3959,5.3206,5.3206,5.34,5.3758,5.4123,5.4495,5.4836,5.5214,5.5403,5.5403,5.5403,5.514,5.4806,5.4787,5.4535,5.4127,5.3353,5.2586,5.1852,5.1081,5.0802,5.0802,5.0802,5.1334,5.1958,5.1958,5.2527,5.2987,5.249,5.2335,5.2196,5.1697,5.1139,5.0733,5.0768,5.0289,4.9942,4.9959,4.9959,4.9942,4.9942,4.9942,4.9683,4.8907,4.8598,4.8266,4.7528,4.6532,4.5575,4.4861,4.5343,4.5669,4.5669,4.5684,4.5682,4.5682,4.4425,4.3658,4.3589,4.2084,4.1128,4.0899,3.9344,3.838,3.802,3.7219,3.7124,3.7696,3.6651,3.6455,4.0844,4.2205,4.3426,4.3921,4.5177,4.6537,4.7604,4.9205,5.0397,5.0312,5.103,5.1538,5.0995,5.1339,5.1701,5.1701,5.2136,5.2498,5.2498,5.309,5.3535,5.3771,5.4563,5.5057,5.4783,5.4464,0.0,5.4082,5.4655,5.5385,5.6236,5.6832,5.7189,5.7189,5.6675,5.64,5.64,5.5868,5.5445,5.5188,5.5188,5.5042,5.4785,5.4785,5.4559,5.4193,5.4819,5.4871,5.4495,5.5132,5.5403,5.5403,5.5403,5.514,5.4806,5.4806,5.4411,5.3851,5.3571,5.3195,5.2747,5.2491,5.2399,5.2399,5.2399,5.2582,5.2803,5.2803,5.2736,5.2608,5.2454,5.1866,5.1314,5.1105,5.0657,5.0246,5.0246,5.0109,5.0011,5.0011,5.0011,5.0011,5.0011,5.0011,4.9849,4.944,4.8506,4.7729,4.7398,4.7011,4.6641,4.6289,4.6435,4.653,4.643,4.6436,4.6444,4.6444,4.55,4.4667,4.3932,4.3015,4.1951,4.0501,4.0083,3.9418,3.8418,3.8228,3.7698,3.6801,3.6762,3.5787,4.229,4.3425,4.4251,4.4561,4.5563,4.6652,4.7179,4.8448,4.949,4.9577,5.0119,5.0488,5.018,5.0506,5.1049,5.1629,5.2154,5.2697,5.3277,5.3878,5.428,5.4244,5.5,5.5429,5.5138,5.5327,0.0,5.4893,5.5514,5.6273,5.7079,5.7657,5.7997,5.7997,5.7501,5.7226,5.7226,5.6712,5.6308,5.6033,5.5739,5.5592,5.5592,5.5592,5.5317,5.4865,5.5604,5.5648,5.5175,5.5636,5.5823,5.5804,5.5355,5.4933,5.4623,5.4476,5.4033,5.3524,5.3643,5.3502,5.3206,5.3206,5.3206,5.3206,5.3206,5.3206,5.3206,5.3206,5.2806,5.2361,5.2155,5.1449,5.0766,5.0564,5.0263,5.0011,5.0011,5.0011,5.0011,5.0011,5.0011,5.0011,5.0011,5.0011,4.9935,4.986,4.8976,4.8215,4.7752,4.7643,4.7483,4.7037,4.7199,4.7175,4.6858,4.6792,4.6684,4.6401,4.5714,4.4856,4.3775,4.3145,4.2058,4.0287,4.01,3.9414,3.8239,3.8304,3.7625,3.6036,3.6188,3.5029,4.3854,4.4302,4.4595,4.5662,4.5988,4.602,4.6213,4.691,4.7603,4.7885,4.8586,4.931,4.9748,4.9945,5.0542,5.2118,5.248,5.3114,5.4689,5.4985,5.5062,0.0,0.0,0.0,0.0,0.0,0.0,5.6629,0.0,5.7152,5.796,5.7997,5.7997,5.7997,5.7997,5.7997,5.7997,5.7997,5.7611,5.6859,5.6088,5.5702,5.5702,5.5746,5.5728,5.5717,5.6462,5.6791,5.6732,5.6664,5.6645,5.6515,5.5379,5.4686,5.4284,5.3889,5.3521,5.3248,5.3545,5.3481,5.3261,5.3225,5.3243,5.3261,5.3225,5.3206,5.3206,5.3206,5.2806,5.225,5.175,5.1262,5.0712,5.0149,5.0051,5.0068,5.0045,5.0028,5.0011,5.0062,5.0028,5.0011,5.0011,5.0011,5.0011,5.0011,5.0011,4.9619,4.859,4.8446,4.8097,4.7189,4.759,4.7631,4.6955,4.6762,4.6464,4.5769,4.4993,4.4174,4.3284,4.24,4.1478,4.0215,3.9339,3.8381,3.7505,3.7505,3.6815,3.5475,3.4981,3.3993,4.3769,4.4525,4.4989,4.5089,4.5459,4.5767,4.5716,4.6663,4.7254,4.6294,4.6637,4.6955,4.6331,4.7633,4.9244,5.0569,5.2254,0.0,5.4762,5.5456,0.0,5.5879,0.0,5.717,5.697,5.7229,0.0,0.0,5.695,5.7061,5.796,5.7997,5.7997,5.7997,5.7997,5.7997,5.7997,5.7997,5.7905,5.7685,5.7483,5.7391,5.7373,5.7716,5.7492,5.6959,5.7726,5.7692,5.7156,5.7463,5.7387,5.7078,5.6777,5.5879,5.4726,5.465,5.4001,5.3206,5.3314,5.3658,5.4014,5.339,5.361,5.3977,5.339,5.3206,5.3206,5.3206,5.2806,5.2361,5.2203,5.1817,5.1262,5.0712,5.062,5.0666,5.0818,5.039,5.0166,5.0718,5.039,5.0011,5.0011,5.0011,5.0011,5.0011,5.0011,4.9866,4.9619,4.9451,4.923,4.8865,4.8343,4.8005,4.783,4.6698,4.5985,4.5929,4.5067,4.3834,4.2097,4.2044,4.1141,3.9251,3.8639,3.8187,3.773,3.7361,3.6213,3.4385,3.4483,3.34,4.4302,4.4868,4.5177,4.5032,4.5213,4.5356,4.4975,4.5493,4.576,4.4794,4.4882,4.5088,4.491,4.6539,4.8488,5.0431,5.2381,5.4218,5.5703,5.6363,5.6715,0.0,5.7213,0.0,5.7601,5.7649,5.7745,0.0,5.7436,5.7427,5.7978,5.7997,5.7997,5.7997,5.7997,5.7997,5.7997,5.7997,5.7997,5.7997,5.7997,5.7997,5.7997,5.8412,5.8345,5.7981,0.0,5.8805,5.8401,5.8425,5.8168,5.7769,5.7229,5.6365,5.5408,5.5244,5.4796,5.4252,5.4252,5.4785,5.5262,5.4106,5.4032,5.4326,5.3867,5.3482,5.3206,5.3206,5.2806,5.2408,5.2408,5.1848,5.1333,5.1369,5.1185,5.115,5.1603,5.1329,5.0994,5.1097,5.0787,5.039,5.0062,5.0287,5.0493,5.0493,5.0493,5.0493,5.0493,5.0049,4.959,4.9411,4.8995,4.8463,4.777,4.6864,4.6024,4.5567,4.4601,4.3427,4.2111,4.163,4.0788,3.9441,3.8922,3.8277,3.752,3.6951,3.5713,3.361,3.3808,3.2836,4.5041,4.5177,4.5194,4.5177,4.5177,4.4988,4.425,4.4078,4.3924,4.336,4.3284,4.3547,4.4378,4.5814,4.7805,5.0758,5.2554,5.4429,5.6894,5.7338,5.7437,5.7437,5.7553,5.7649,5.7649,5.7649,5.7697,5.7792,5.8042,5.8107,5.7997,5.7997,5.7997,5.7997,5.7997,5.7997,5.7997,5.7997,5.7997,5.7997,5.7997,5.7997,5.7997,5.8479,5.8669,5.8732,5.9537,5.9874,5.9849,5.9359,5.8946,5.8481,5.739,5.6649,5.614,5.5852,5.5684,5.5592,5.5592,5.6124,5.6565,5.506,5.4564,5.4546,5.4436,5.3849,5.3164,5.3103,5.2761,5.2408,5.2361,5.1772,5.1405,5.1951,5.1791,5.172,5.2458,5.2511,5.2166,5.1407,5.1269,5.1063,5.0407,5.0838,5.1269,5.1252,5.1269,5.1218,5.1132,5.0307,4.959,4.929,4.9333,4.881,4.7439,4.7053,4.64,4.5216,4.4066,4.3205,4.2534,4.1365,4.036,3.9733,3.938,3.8459,3.6964,3.6483,3.5246,3.3247,3.3215,3.2541,4.5041,4.5177,4.5177,4.5086,4.5032,4.4844,4.4109,4.3938,4.3579,4.2326,4.2083,4.2198,4.2608,4.3893,4.6122,4.9955,5.1897,5.4009,5.697,5.7504,5.7601,0.0,5.7745,5.7792,5.7904,5.795,0.0,0.0,5.8621,5.8712,5.8033,5.7997,5.7997,5.7997,5.7997,5.7997,5.7997,5.7997,5.7997,5.7997,5.7997,5.7997,5.8024,5.875,5.9103,5.9122,5.9956,0.0,6.0266,5.9866,5.9431,5.9044,5.8478,5.7603,5.6654,5.6628,5.6161,5.5592,5.5592,5.6124,5.6657,5.5684,5.5372,5.5262,5.4601,5.3849,5.3121,5.2654,5.2545,5.2454,5.1994,5.2215,5.2462,5.22,5.24,5.2817,5.3151,5.3201,5.3038,5.2381,5.2226,5.2191,5.2052,5.2139,5.2226,5.2028,5.2028,5.1804,5.1183,5.04,4.986,4.9649,4.9084,4.8697,4.8433,4.712,4.6292,4.6253,4.4902,4.36,4.2327,4.1616,4.036,3.8562,3.8395,3.7638,3.6143,3.6143,3.5078,3.3158,3.3356,3.2219,4.5144,4.5177,4.5177,4.514,4.4795,4.4369,4.3683,4.3186,4.2618,4.155,4.1326,4.1504,4.2103,4.3779,4.5917,4.8683,5.0787,5.3017,5.577,5.6248,5.6718,5.7606,5.7745,5.7792,5.7792,5.7839,5.7904,5.7904,5.8317,5.8419,5.8015,5.7997,5.7997,5.7997,5.7997,5.7997,5.7997,5.7997,5.7997,5.7997,5.7997,5.7997,5.8042,5.8831,5.9215,5.9233,6.0049,6.0285,6.0049,5.9874,5.9432,5.8852,5.8669,5.8129,5.7428,5.7428,5.7171,5.684,5.684,5.6822,5.6748,5.6345,5.6216,5.6069,5.5262,5.4454,5.3653,5.2672,5.2499,5.259,5.2467,5.2595,5.2871,5.3333,5.3695,5.3982,5.4094,5.4119,5.3956,5.3358,5.3125,5.3003,5.2664,5.2847,5.3065,5.3065,5.3004,5.2805,5.2442,5.1346,5.0349,4.9742,4.9496,4.9148,4.871,4.7964,4.719,4.6525,4.5033,4.3708,4.26,4.1296,4.0128,3.9189,3.8935,3.8004,3.6602,3.6307,3.5308,3.3648,3.347,3.259,4.5213,4.5247,4.5247,4.5247,4.468,4.3993,4.3337,4.2561,4.1785,4.1026,4.0888,4.1215,4.2246,4.3921,4.5817,4.7966,4.9956,5.2108,5.4691,5.5294,5.6025,5.7467,5.7745,0.0,5.7838,5.7953,0.0,5.8304,5.8252,5.818,5.7997,5.7997,5.7997,5.7997,5.7997,5.7997,5.7997,5.7997,5.7997,5.7997,5.7997,5.8042,5.8142,5.887,5.9252,5.9361,5.9988,6.0099,5.9791,5.9605,5.9159,5.8586,5.8521,5.8301,5.7997,5.7997,5.7997,5.7997,5.7997,5.7593,5.706,5.706,5.6712,5.618,5.5519,5.4766,5.3891,5.2635,5.2408,5.2542,5.2702,5.2679,5.3033,5.4441,5.478,5.4842,5.4842,5.4842,5.4713,5.4286,5.4027,5.3758,5.3328,5.3609,5.3966,5.4122,5.3983,5.3792,5.3619,5.2442,5.1235,5.0169,5.0062,4.9838,4.9308,4.8945,4.8181,4.6929,4.5168,4.3781,4.279,4.1156,4.0225,4.0087,3.9837,3.8893,3.7416,3.6919,3.5685,3.3845,3.3544,3.2942,4.5181,4.5371,4.5371,4.5371,4.4854,4.4078,4.3337,4.2561,4.1785,4.1026,4.0888,4.1389,4.2999,4.3471,4.4851,4.8671,5.0049,5.1749,5.4911,5.6017,5.6804,5.7682,5.7792,5.8037,5.8622,5.8793,5.92,5.9914,5.9406,5.8786,5.8033,5.7997,5.7997,5.7997,5.7997,5.7997,5.7997,5.7997,5.7997,5.7997,5.7997,5.8186,5.8545,5.9008,5.9397,5.9758,5.9823,5.9823,0.0,5.9008,5.8669,5.8545,5.8186,5.8042,5.7997,5.7997,5.7997,5.7997,5.7997,5.7941,5.7886,5.7886,5.6418,5.462,5.4528,5.4007,5.3182,5.2155,5.2042,5.2192,5.1987,5.2393,5.3247,5.4625,5.5,5.4992,5.4992,5.4992,5.5035,5.5052,5.5094,5.5017,5.4989,5.5042,5.5034,5.4931,5.4782,5.4416,5.3688,5.348,5.2822,5.1291,5.0587,5.0426,5.1035,4.9822,4.8795,4.8171,4.6106,4.4118,4.24,4.1688,4.1013,4.0446,4.0605,3.9957,3.8265,3.7972,3.6283,3.3504,3.384,3.2201,4.5678,4.5905,4.5905,4.5905,4.4748,4.3577,4.3301,4.2216,4.1233,4.094,4.1071,4.169,4.3131,4.4019,4.5305,4.7579,4.9047,5.0616,5.282,5.3807,5.4912,5.6653,5.6824,5.7085,0.0,0.0,5.9097,5.9571,5.8886,5.8345,5.8015,5.7997,5.7997,5.7997,5.7997,5.7997,5.7997,5.7997,5.7997,5.7997,5.8257,5.8437,5.8628,5.927,5.9502,5.9467,5.9692,5.9537,0.0,5.8732,5.8586,5.8545,5.8142,5.8301,5.8669,5.8186,5.8142,5.8344,5.807,5.7354,5.6547,5.6654,5.5331,5.3915,5.4926,5.4736,5.3994,5.329,5.3199,5.3443,5.4003,5.4454,5.4938,5.5442,5.5284,5.5079,5.5484,5.5343,5.5259,5.5751,5.5519,5.5361,5.5808,5.5461,5.5199,5.5312,5.5174,5.4931,5.46,5.4122,5.3575,5.2949,5.1801,5.0986,5.0798,5.0116,4.9308,4.8217,4.6906,4.5163,4.2951,4.2304,4.1694,4.1165,4.1309,4.0962,4.0227,3.9659,3.8139,3.5817,3.5548,3.4098,4.5607,4.601,4.6186,4.6186,4.4704,4.3214,4.3346,4.2181,4.1088,4.1088,4.1593,4.2387,4.3572,4.4795,4.6048,4.7218,4.87,5.0236,5.1548,5.274,5.4164,5.6066,5.6455,5.6812,5.7529,5.8578,5.9207,5.9179,5.8694,5.8253,5.8015,5.7997,5.7997,5.7997,5.7997,5.7997,5.7997,5.7997,5.7997,5.7997,5.8412,5.8669,5.8791,5.9342,5.9537,5.9397,5.9432,5.9122,0.0,5.8479,5.8394,5.8412,5.8257,5.8521,5.893,5.8369,5.8369,5.8545,5.8142,5.7289,5.636,5.6183,5.5238,5.4285,5.5244,5.4991,5.4363,5.4067,5.4273,5.4802,5.5558,5.6039,5.6331,5.6331,5.5981,5.5733,5.6222,5.6019,5.5887,5.6456,5.5961,5.5694,5.6201,5.5711,5.5354,5.5507,5.5354,5.5199,5.5199,5.4685,5.4224,5.3955,5.2829,5.1761,5.102,5.0463,4.9542,4.8266,4.7209,4.5694,4.3777,4.3057,4.2742,4.2796,4.2548,4.2312,4.209,4.0924,3.9239,3.7276,3.6626,3.5226,4.4782,4.5572,4.6186,4.6186,4.4704,4.3296,4.368,4.2594,4.1472,4.1472,4.2508,4.3632,4.4436,4.5606,4.6888,4.8082,4.9585,5.0918,5.1867,5.3814,5.5486,5.6325,5.6964,5.7697,5.8514,5.9565,5.9908,5.9234,5.9208,0.0,5.8033,5.7997,5.7997,5.7997,5.7997,5.7997,5.7997,5.7997,5.7997,5.7997,5.8412,5.8812,5.9196,5.9196,5.9432,5.9758,5.8969,5.8628,0.0,5.8186,5.7997,5.8042,5.8437,5.8586,5.8586,5.8586,5.8586,5.8545,5.8142,5.8088,5.8031,5.7258,5.6559,5.5936,5.5158,5.4362,5.3743,5.4026,5.4984,5.5897,5.5915,5.6482,5.7116,5.7116,5.7065,5.7065,5.7116,5.7065,5.7065,5.7116,5.667,5.6311,5.6311,5.5861,5.5507,5.5507,5.5354,5.5199,5.5199,5.5182,5.4902,5.4185,5.3514,5.2909,5.2227,5.0816,4.9502,4.8425,4.6761,4.5464,4.4807,4.408,4.4251,4.5533,4.485,4.4123,4.3476,4.1301,3.9162,3.699,3.6545,3.4991,4.4131,4.4443,4.4636,4.4636,4.3502,4.2403,4.2531,4.1998,4.1541,4.1777,4.2942,4.4096,4.4731,4.596,4.7387,4.9059,5.0423,5.1755,5.3034,5.4392,5.5458,5.6049,5.6848,5.7764,0.0,0.0,5.8736,5.9142,5.8694,5.8272,5.8015,5.7997,5.7997,5.7997,5.7997,5.7997,5.7997,5.7997,5.8142,5.8394,5.8831,5.9233,5.9605,5.9906,5.9937,5.9791,5.9537,5.927,5.9008,5.887,5.8969,5.9233,5.9046,5.9159,5.9342,5.8812,5.8586,5.8545,5.8142,5.7739,5.724,5.6498,5.5812,5.514,5.4385,5.3997,5.4033,5.5266,5.5881,5.6209,5.6411,5.6648,5.6849,5.6849,5.6964,5.7216,5.7558,5.7364,5.7116,5.7116,5.667,5.6311,5.6311,5.6014,5.5706,5.5507,5.5883,5.6017,5.5472,5.5729,5.5738,5.5098,5.4609,5.3693,5.2171,5.0995,4.9916,4.8845,4.806,4.7301,4.6363,4.5573,4.5601,4.644,4.5634,4.5066,4.4577,4.3409,4.1327,3.8453,3.6088,3.408,4.3782,4.4059,4.4137,4.4137,4.3179,4.2293,4.2463,4.1988,4.1612,4.1985,4.3241,4.4337,4.4565,4.5899,4.7482,4.9151,5.0279,5.1536,5.3263,5.4474,0.0,5.6515,5.7146,0.0,0.0,5.8085,5.8059,5.8618,5.8197,5.7932,5.7932,5.7932,5.795,5.7997,5.7997,5.807,5.8213,5.8231,5.8455,5.8831,5.9084,5.9325,5.9571,5.9823,5.9791,5.9571,5.9571,5.9432,0.0,5.9215,5.9361,5.9537,5.9289,5.9342,5.9502,5.8852,5.8586,5.8508,5.7855,5.7361,5.6885,5.5845,5.5044,5.4422,5.3923,5.4017,5.4481,5.5522,5.606,5.6333,5.6485,5.6553,5.6651,5.6965,5.7214,5.7547,5.819,5.8068,5.7822,5.7822,5.7358,5.7011,5.7011,5.6721,5.6312,5.5922,5.6276,5.633,5.5607,5.5861,5.589,5.5243,5.4785,5.4027,5.2836,5.1616,5.0455,4.9586,4.8895,4.8511,4.8353,4.7255,4.7011,4.7717,4.6861,4.6137,4.5793,4.4642,4.2697,3.9867,3.7911,3.5962,0.0,4.4155,4.4321,4.4268,4.3439,4.2758,4.3099,4.2334,0.0,4.2174,4.3458,4.444,4.4155,4.5599,4.7348,4.8764,4.9577,5.0751,5.2904,5.4456,0.0,0.0,5.7601,0.0,5.7792,5.7792,5.7792,5.7792,5.7792,5.7792,5.7792,5.7792,5.7886,5.7997,5.8042,5.8213,5.8586,5.8586,5.8772,5.9215,5.9252,5.9233,5.9233,5.927,5.9289,0.0,5.9289,5.9289,5.927,5.9233,5.9233,5.9252,5.9196,5.9159,5.9122,5.875,5.8586,5.841,5.7389,5.7069,5.6842,5.5377,5.4404,5.3813,5.3813,5.4333,5.4946,5.5057,5.5596,5.6153,5.6265,5.6307,5.6515,5.7335,5.7674,5.8032,5.8816,5.8984,5.8984,5.8945,5.8545,5.819,5.8102,5.7702,5.7157,5.6474,5.6438,5.6258,5.5666,5.5769,5.5641,5.4803,5.4349,5.406,5.3955,5.2386,5.1205,5.0763,4.9538,4.9401,5.0692,4.9266,4.8765,4.9343,4.8157,4.7336,4.6872,4.5302,4.3474,4.1373,4.1261,3.9867,4.2985,0.0,4.259,4.1984,4.208,4.2232,0.0,4.1987,4.2218,4.2818,4.38,4.4804,4.5787,4.6326,4.7512,5.0271,5.1008,5.2228,5.49,5.6109,0.0,5.7546,5.7504,5.7553,5.7792,5.7697,5.7697,5.7792,5.7792,5.7792,5.7792,5.7904,5.795,5.7997,5.8301,5.8503,5.8586,5.8586,5.8772,5.9196,5.9502,5.9658,5.9692,5.9988,6.0129,6.0129,6.0129,6.0129,6.0099,5.9791,5.9658,5.9624,5.9325,5.9008,5.875,5.8628,5.8455,5.8183,5.732,5.7113,5.6987,5.5479,5.4424,5.3813,5.3813,5.3943,5.4351,5.5693,5.5322,5.4857,5.6201,5.6071,5.5772,5.663,5.7321,5.8032,5.8816,5.8984,5.8887,5.8484,5.8295,5.8013,5.7328,5.7328,5.7247,5.6492,5.7,5.717,5.6273,5.6271,5.6038,5.5258,5.4986,5.4526,5.3736,5.2973,5.2536,5.266,5.2375,5.2244,5.2408,5.1446,5.0801,5.0611,4.8651,4.7357,4.6827,4.5783,4.4747,4.3704,4.2397,4.109,4.2009,4.236,4.2626,4.2198,4.2203,4.2308,4.2308,4.1868,4.1751,4.2597,4.3541,4.4389,4.5041,4.6239,4.7867,5.0178,5.1272,5.2808,0.0,0.0,5.7356,5.7601,5.7504,5.7504,0.0,5.7601,5.7553,5.7601,5.7697,5.7697,5.7697,5.7857,5.8024,5.8257,5.8479,5.871,5.8852,5.887,5.9159,5.9758,5.9605,5.9605,5.9791,6.0019,6.0129,6.0129,6.0313,6.0389,6.0389,6.0178,6.0068,6.0019,5.9639,5.9342,5.9122,5.8989,5.8569,5.7981,5.7281,5.6535,5.579,5.4932,5.4336,5.3888,5.3888,5.3926,5.4131,5.5043,5.469,5.4242,5.5212,5.5416,5.5603,5.6463,5.7323,5.8166,5.9084,5.9272,5.9197,5.9008,5.893,5.8713,5.8349,5.8386,5.8258,5.7619,5.7958,5.7802,5.6472,5.6478,5.6145,5.4912,5.4893,5.4736,5.4184,5.3926,5.3772,5.3726,5.3831,5.401,5.4259,5.3203,5.2252,5.1386,5.0037,4.9251,4.896,4.8363,4.7332,4.6079,4.5179,4.3863,4.1341,4.2422,4.3531,4.3215,4.2967,4.29,4.3213,4.2211,4.1457,4.2544,4.3372,4.3957,4.4052,4.6152,0.0,4.979,0.0,0.0,5.5964,5.697,5.7388,5.7553,5.7455,0.0,5.7553,5.7455,5.7406,5.7388,5.7534,5.7601,5.7601,5.7821,5.8105,5.8586,5.8669,5.8891,5.9289,5.9233,5.9537,6.0207,5.9571,5.9467,5.9791,5.9874,5.9906,5.9906,0.0,0.0,6.0389,6.0342,6.0313,6.0285,5.9874,5.9706,5.9673,5.9411,5.8759,5.7877,5.7058,5.5657,5.4212,5.4246,5.4163,5.3982,5.4019,5.4073,5.411,5.4055,5.4092,5.4164,5.4276,5.4945,5.5765,5.6572,5.7488,5.8441,5.9427,5.965,5.9685,5.9853,5.9786,5.97,5.9782,5.9715,5.9451,5.8953,5.8934,5.8287,5.6565,5.6558,5.6145,5.4589,5.4628,5.4783,5.4764,5.4876,5.4818,5.4553,5.4712,5.5098,5.5772,5.4702,5.3519,5.2449,5.2063,5.1883,5.1933,5.1629,5.0553,4.8646,4.8581,4.7631,4.2407,4.3725,4.4447,4.2389,4.3101,4.4211,4.3862,4.3571,4.3643,4.4713,4.4526,4.4774,4.6658,4.7311,4.8409,0.0,0.0,5.5763,0.0,0.0,5.7239,5.7239,0.0,5.7289,5.7406,5.7307,5.7307,5.7388,5.7534,5.7601,5.7601,5.8176,5.8503,5.8586,5.893,5.9306,5.9692,5.9361,5.927,5.9397,5.9605,5.9725,5.9791,6.0159,6.0313,6.0313,0.0,6.0389,6.0389,6.0019,5.9906,5.9874,5.9499,5.9376,5.9376,5.9373,5.8723,5.7585,5.5902,5.467,5.3907,5.4,5.4019,5.4019,5.4073,5.4164,5.4254,5.4273,5.4254,5.4439,5.5184,5.5619,5.6055,5.6851,5.7796,5.8778,5.9663,5.9853,5.9853,5.9885,5.9918,5.9828,5.9515,5.9583,5.9496,5.899,5.899,5.8653,5.7506,5.7079,5.6472,5.539,5.5012,5.4723,5.456,5.5214,5.5648,5.5659,5.5566,5.577,5.6284,5.6006,5.5634,5.5186,5.4788,5.4235,5.3477,5.3765,5.3253,5.211,5.1806,5.13,4.1636,4.3195,4.4349,4.3244,4.3992,4.5042,4.5065,4.4492,4.4183,4.4982,4.524,4.5677,4.7037,0.0,5.0599,5.3567,0.0,5.6772,5.7152,5.7188,5.7188,0.0,0.0,5.7239,5.7307,5.7289,5.7338,5.7406,5.7601,5.7802,5.8041,5.8375,5.871,5.893,5.9306,5.9502,5.9467,5.9502,5.9639,5.9842,5.9809,5.9906,6.0129,6.0313,6.0389,6.0389,0.0,6.0389,6.0389,6.0237,6.0188,6.0188,6.0042,6.0004,5.9908,5.9054,5.8158,5.7177,5.5854,5.5023,5.4609,5.4678,5.456,5.4401,5.4416,5.4434,5.4472,5.4472,5.4472,5.4547,5.4957,5.5522,5.6116,5.6463,5.7605,5.8761,5.9315,5.9752,6.0118,6.0256,6.0237,6.014,6.0053,6.0034,5.9824,5.9292,5.9634,5.9231,5.7251,5.7224,5.6873,5.5484,5.5214,5.5078,5.503,5.5399,5.5906,5.6508,5.6525,5.6673,5.7024,5.7099,5.7042,5.6947,5.653,5.6164,5.5783,5.5689,5.5157,5.4283,5.4023,5.3527,4.0656,4.2492,4.4173,4.4173,4.4664,4.5434,4.6332,4.5566,4.4955,4.5999,4.6534,4.6985,4.7564,4.9983,0.0,5.554,5.6681,5.7188,5.7188,5.7188,5.7188,5.7188,5.7188,5.7188,5.7239,5.7338,5.7388,5.7437,5.7755,5.8041,5.8381,5.8609,5.893,5.9325,5.9537,5.9605,5.9467,5.9692,5.9937,6.0256,5.9956,6.0019,6.0389,6.0389,6.0389,6.0389,6.0389,6.0417,6.0417,6.0472,6.0499,6.0506,6.0374,6.0207,5.9887,5.8347,5.7416,5.6771,5.5819,5.538,5.5218,5.5243,5.5053,5.4787,5.4847,5.4787,5.4758,5.4739,5.4787,5.4806,5.4692,5.5451,5.6235,5.6235,5.7425,5.8634,5.8834,5.9357,5.9907,6.033,6.0296,6.0265,6.0397,6.0303,5.9977,5.935,5.9793,5.9303,5.695,5.7261,5.7088,5.5585,5.5516,5.5613,5.5627,5.5622,5.604,5.6997,5.7076,5.7242,5.7608,5.7981,5.8008,5.7668,5.7346,5.6848,5.6133,5.5638,5.4873,5.384,5.2128,5.1008,4.0221,4.2377,4.4381,4.4381,4.4435,4.5071,4.7328,4.7075,4.6982,4.926,4.9195,4.8942,4.972,5.1882,5.4074,5.5721,5.6681,5.7188,5.7188,0.0,5.7188,5.7188,5.7188,5.7257,5.7388,5.7388,5.7437,5.7601,5.8068,5.8357,5.84,5.8872,5.9342,5.9758,5.9432,5.9571,6.0313,5.9988,5.9791,5.9842,5.9791,6.0019,6.0389,6.0389,6.0389,6.0389,6.0389,6.0444,6.0499,6.0499,6.0525,6.0527,5.9797,5.9057,5.8312,5.7098,5.6646,5.648,5.5331,5.4933,5.495,5.5069,5.5088,5.5088,5.5218,5.5243,5.5249,5.526,5.5374,5.5431,5.5009,5.5763,5.6663,5.6663,5.7601,5.8504,5.8521,5.8579,5.8869,5.97,5.9918,5.992,5.9959,5.9898,5.9543,5.8695,5.8568,5.8196,5.7197,5.7222,5.7002,5.6129,5.6094,5.6081,5.5963,5.6011,5.6308,5.6883,5.6793,5.702,5.767,5.8532,5.8379,5.7005,5.6946,5.5314,5.2029,5.1734,5.083,4.922,4.2649,3.9871,3.9738,4.2175,4.4492,4.4437,4.4381,4.5038,4.7419,4.7565,4.779,4.9691,4.9854,5.0035,0.0,0.0,5.42,5.574,5.6247,5.6627,5.7134,5.7188,5.7188,5.7188,5.7289,5.7338,5.7406,5.7298,5.7324,5.7368,5.7342,5.7473,5.7693,5.7887,5.8301,5.8976,5.9077,5.9406,6.0019,6.0129,6.0159,6.0159,6.0159,6.0237,6.0389,6.0389,6.0389,6.0389,6.0444,6.0472,6.046,6.0029,5.9849,5.9777,5.9,5.82,5.7434,5.7021,5.6541,5.6063,5.565,5.5558,5.5605,5.5628,5.5585,5.5481,5.5549,5.5506,5.55,5.5503,5.5631,5.5712,5.5423,5.5761,5.6213,5.625,5.6994,5.7699,5.7729,5.8176,5.8656,5.9041,5.9138,5.9142,5.9148,5.9134,5.8843,5.8056,5.8344,5.8168,5.6836,5.7145,5.7108,5.6152,5.5996,5.5816,5.547,5.5204,5.52,5.5568,5.5787,5.6455,5.7711,5.6866,5.6295,5.6092,5.3553,5.1551,5.0155,4.7841,4.6315,4.548,3.999,3.7345,3.9683,4.2157,4.4528,4.4634,4.4507,4.4978,4.7625,4.794,4.8242,5.0071,5.047,5.0886,5.2245,0.0,0.0,0.0,5.5848,5.6265,5.708,5.6971,5.6826,5.6876,5.6708,5.6691,5.6922,5.6816,5.6844,5.7048,5.6948,5.6998,5.7296,5.7296,5.7604,5.8296,5.8453,5.8872,5.957,5.9836,6.0122,6.0389,6.0417,6.0417,6.0389,6.0389,6.0417,6.0444,6.0472,6.0372,6.0118,5.9599,5.9115,5.86,5.8107,5.7379,5.6631,5.6692,5.6367,5.5866,5.5905,5.5981,5.6033,5.6031,5.5958,5.5865,5.5861,5.5825,5.5789,5.5825,5.593,5.599,5.5912,5.5947,5.6039,5.6082,5.6563,5.7029,5.7075,5.756,5.8066,5.8392,5.8442,5.8461,5.8449,5.8403,5.8103,5.7271,5.7635,5.7551,5.6365,5.6738,5.6694,5.5672,5.543,5.5078,5.441,5.375,5.3451,5.372,5.2772,5.351,5.6405,5.4686,5.3249,5.2474,4.8955,4.6334,4.4638,4.0664,3.8432,3.7801,3.162,2.862,4.0095,4.2229,4.4467,4.5113,4.4693,4.4947,4.817,4.8279,4.8405,5.0796,5.1303,5.1538,5.2353,5.2498,0.0,5.4635,5.5504,5.6247,5.7062,5.6482,5.6042,5.6158,5.5456,5.5166,5.5854,5.5831,5.6036,5.6647,5.7064,5.7277,5.7277,5.7296,5.7468,5.7905,5.7517,5.7897,5.9109,5.9109,5.9529,6.037,6.0453,6.0453,6.0389,6.0389,6.0444,6.048,6.048,6.0061,5.9379,5.9379,5.8427,5.7014,5.7056,5.6557,5.5826,5.5885,5.5924,5.5999,5.5999,5.6033,5.6098,5.6098,5.6149,5.6194,5.6199,5.6199,5.6226,5.6286,5.6299,5.6339,5.6464,5.6402,5.631,5.6297,5.6449,5.6606,5.6606,5.6602,5.6847,5.7725,5.7889,5.7871,5.7871,5.777,5.734,5.6356,5.6192,5.6087,5.5821,5.5901,5.5601,5.4668,5.4437,5.3888,5.2735,5.1646,5.111,5.1257,4.7506,4.7721,5.3374,5.2119,4.9427,4.5561,4.3372,3.9601,3.4397,2.9606,2.6706,2.5244,1.5845,1.143,3.9234,4.1578,4.4195,4.3735,4.4354,4.5443,4.6884,4.7916,4.9238,5.1647,5.2136,5.2208,5.2462,5.2498,0.0,5.3892,5.4237,5.4653,5.5468,5.5377,5.5293,5.5541,5.5532,5.5699,5.6057,5.6031,5.6007,5.6191,5.6586,5.6815,5.6815,5.7387,5.8053,5.8727,5.8644,5.873,5.9109,5.9163,5.9037,5.8712,5.8764,5.9377,6.0453,5.9894,5.9652,5.9639,5.9114,5.8755,5.8515,5.7947,5.711,5.6151,5.6191,5.6057,5.5885,5.5962,5.598,5.6014,5.6048,5.6117,5.6181,5.6224,5.629,5.6344,5.634,5.6335,5.6335,5.6366,5.6372,5.639,5.6417,5.6405,5.6367,5.6378,5.6426,5.6458,5.64,5.6398,5.6445,5.6667,5.6698,5.6703,5.6689,5.6621,5.6469,5.6175,5.5849,5.5327,5.4513,5.4301,5.3762,5.2472,5.1775,5.0787,4.9241,4.6769,4.4983,4.427,4.0496,4.0838,4.6276,4.3269,4.0507,3.8421,3.3152,2.9627,2.7774,2.2206,1.8625,1.6982,1.1005,0.7704,4.0406,4.2285,4.4342,4.4334,4.4859,4.5787,4.7138,4.846,4.9963,0.0,5.2245,5.2118,5.2444,5.2226,0.0,5.3512,5.3693,5.4012,5.4934,5.4771,5.472,5.5116,5.505,5.515,5.5617,5.5541,5.5527,5.575,5.5984,5.611,5.611,5.6625,5.7275,5.8077,5.781,5.7944,5.8639,5.8367,5.8145,5.8042,5.8111,5.8654,5.9562,5.9045,5.884,5.8807,5.8054,5.7761,5.7752,5.6862,5.6248,5.5826,5.5846,5.5905,5.5943,5.6026,5.6071,5.6097,5.6155,5.6211,5.6288,5.6324,5.6368,5.6406,5.6395,5.6334,5.6287,5.6308,5.6265,5.6208,5.6172,5.6166,5.6188,5.6269,5.6264,5.6183,5.6019,5.598,5.5938,5.5835,5.5801,5.5801,5.573,5.5692,5.5536,5.5167,5.458,5.3913,5.3301,5.2419,5.1371,5.0181,4.8179,4.6252,4.4377,4.1355,3.8861,3.6983,3.347,3.2111,3.3594,3.3441,3.2192,2.9795,2.4532,2.1199,2.0114,1.4867,1.1534,0.9935,0.6072,0.3714,4.2648,4.3634,4.4617,4.5987,4.5906,4.6106,4.8387,4.9474,5.0434,5.2063,0.0,5.1629,5.2371,5.1946,5.1928,5.3396,5.3679,5.399,5.4984,5.4525,5.4289,5.4874,5.4242,5.4067,5.4776,5.4739,5.4876,5.5358,5.5479,5.5517,5.5517,5.5594,5.5976,5.6709,5.6014,5.6371,5.7877,5.7117,5.7128,5.7892,5.7958,5.8004,5.8008,5.8035,5.8016,5.797,5.7225,5.6965,5.7019,5.6155,5.5826,5.5826,5.5962,5.6017,5.6031,5.6162,5.6197,5.623,5.6276,5.6333,5.6387,5.6372,5.6351,5.6362,5.6362,5.6229,5.6087,5.6099,5.5981,5.5813,5.5721,5.5564,5.5523,5.5744,5.5879,5.584,5.5492,5.5417,5.5332,5.5066,5.5047,5.499,5.4838,5.4726,5.431,5.3305,5.2401,5.1835,5.1683,5.0101,4.8505,4.7183,4.3828,4.0751,3.8491,3.5468,3.2497,2.968,2.6236,2.2362,1.7859,2.3186,2.4403,2.0486,1.7028,1.438,1.2337,0.8034,0.5333,0.3997,0.1475,-0.0404,4.1583,4.2412,4.3614,4.4558,4.6005,4.75,4.8659,4.9039,4.9619,5.123,5.1919,5.2281,5.2462,5.2563,5.2766,5.3069,5.3347,5.3534,5.3783,5.3798,5.3923,5.4332,5.4386,5.4547,5.499,5.5168,5.5286,5.5403,5.5995,5.6339,5.6339,5.6988,5.7473,5.7679,5.7526,5.7302,5.7071,5.6928,5.6681,5.631,5.6348,5.6457,5.6567,5.7137,5.7077,5.6548,5.6317,5.6242,5.6239,5.5981,5.5943,5.6039,5.6077,5.6133,5.6244,5.6269,5.6318,5.6329,5.625,5.6269,5.6295,5.6138,5.609,5.6085,5.6083,5.6018,5.5869,5.5507,5.5382,5.5247,5.4871,5.3832,5.3048,5.354,5.4566,5.5297,5.4743,5.4644,5.4465,5.3924,5.3765,5.3693,5.333,5.2654,5.159,4.9882,4.897,4.8087,4.6905,4.634,4.4526,4.0343,3.87,3.6358,3.2509,2.8848,2.5512,2.2498,1.877,1.4943,1.0966,1.5219,1.6295,1.3398,1.0667,0.8563,0.687,0.3979,0.1341,-0.1073,-0.1747,-0.2555,4.1421,4.1994,4.2905,4.4411,4.6357,4.802,4.8398,4.8922,4.9555,5.0415,5.1092,5.1653,5.2098,5.2395,5.2757,5.3143,5.3304,5.3487,5.3758,5.3851,5.4104,5.4578,5.4758,5.4971,5.5214,5.5332,5.5403,5.5403,5.5785,5.6033,5.6033,5.646,5.6913,5.736,5.7002,5.6822,5.6832,5.653,5.6194,5.5842,5.5943,5.6082,5.6255,5.6587,5.6509,5.6142,5.6035,5.6048,5.6091,5.6017,5.6059,5.6135,5.6174,5.6242,5.6289,5.6335,5.6341,5.6307,5.6259,5.6205,5.6105,5.5857,5.5738,5.5629,5.5188,5.4647,5.4123,5.3626,5.3118,5.2623,5.2246,5.0908,4.9681,4.9755,5.1164,5.2437,5.2298,5.1913,5.1437,5.1052,5.0809,5.0218,4.896,4.7077,4.5478,4.4452,4.374,4.2967,4.1983,4.0546,3.8616,3.5801,3.2106,2.8714,2.5903,2.2025,1.8376,1.5397,1.3163,1.0353,0.6808,0.861,0.9086,0.7649,0.5399,0.3817,0.2948,0.1175,-0.0661,-0.2662,-0.2662,-0.3208,4.1261,4.1757,4.2541,4.4849,4.67,4.8009,4.8155,4.8936,4.964,4.964,5.0168,5.079,5.1527,5.1904,5.2323,5.2989,5.3289,5.3609,5.4021,5.4255,5.4546,5.5038,5.514,5.5214,5.5377,5.5403,5.5403,5.5403,5.5403,5.5409,5.5409,5.5402,5.5758,5.6491,5.5873,5.5945,5.672,5.6155,5.5915,5.5982,5.6117,5.626,5.6435,5.6329,5.6278,5.6271,5.6129,5.6135,5.6218,5.6164,5.6178,5.6236,5.6293,5.6328,5.6323,5.6386,5.6315,5.6196,5.6221,5.6071,5.5807,5.5403,5.5119,5.4771,5.3819,5.2658,5.1545,5.0931,4.9919,4.8744,4.7842,4.626,4.4734,4.3814,4.4571,4.6127,4.8215,4.786,4.7099,4.6912,4.6009,4.4538,4.2277,3.9373,3.7249,3.7028,3.6432,3.5872,3.5543,3.3272,3.14,3.0515,2.5047,2.0863,1.9343,1.5643,1.2328,0.9503,0.8536,0.6726,0.3815,0.3322,0.3075,0.3075,0.1376,0.0378,-0.0,-0.0768,-0.1816,-0.2886,-0.2886,-0.3301,3.9893,4.1052,4.2837,4.5383,4.6708,4.761,4.8348,0.0,4.8948,0.0,5.001,5.0964,5.1074,5.1472,5.1809,5.1921,5.2855,5.3596,5.3675,5.4419,5.499,5.5094,5.5241,5.5377,5.5403,5.5403,5.5403,5.5403,5.5396,5.5402,5.5402,5.5456,5.5562,5.5746,5.5748,5.5865,5.6036,5.6104,5.6223,5.6336,5.6464,5.6543,5.6563,5.6553,5.6553,5.6536,5.6396,5.6364,5.6375,5.6301,5.6315,5.6371,5.6372,5.6385,5.6383,5.6394,5.6281,5.6096,5.5916,5.5653,5.5273,5.4544,5.3752,5.2958,5.1974,5.0277,4.8504,4.7643,4.6179,4.3955,4.0405,3.8118,3.6042,3.3267,3.1335,3.2507,4.1338,4.2556,4.1754,4.123,3.8239,3.5063,3.2717,2.9883,2.7544,2.6468,2.5786,2.5238,2.4696,2.4355,2.2895,1.9782,1.8559,1.6773,1.3868,1.1144,0.8998,0.7683,0.4645,0.2332,0.1109,0.0123,-0.037,-0.037,0.025,-0.0378,-0.2144,-0.2303,-0.2837,-0.3878,-0.3878,-0.4013,4.0087,4.1962,4.3918,4.5121,4.6511,4.767,4.8076,4.8692,4.9225,4.9302,4.9819,5.0407,5.0751,5.111,5.153,5.202,5.2567,5.2959,5.3043,5.3422,5.3731,5.3791,5.3907,5.4142,5.4619,5.4677,5.4874,5.5358,5.5402,5.5408,5.5456,5.5583,5.569,5.5711,5.5874,5.5994,5.6062,5.6232,5.6388,5.6503,5.6577,5.6591,5.6582,5.6026,5.6031,5.6476,5.6426,5.6391,5.6383,5.6289,5.6306,5.6387,5.6316,5.63,5.6278,5.6251,5.5818,5.5191,5.4629,5.3785,5.2719,5.1677,5.0751,4.9891,4.8974,4.6931,4.438,4.1743,3.9461,3.6896,3.2965,3.0582,2.854,2.5759,2.3489,2.3453,2.8591,3.109,3.222,3.1518,2.8871,2.5913,2.3207,2.0608,1.8406,1.7181,1.6704,1.6686,1.7055,1.6416,1.5377,1.3707,1.1766,1.0066,0.8609,0.6215,0.4404,0.3554,0.1841,0.0492,-0.0246,-0.074,-0.1233,-0.1849,-0.1365,-0.1619,-0.2492,-0.301,-0.3537,-0.4075,-0.4075,-0.4093,4.0524,4.2331,4.3848,4.4842,4.6169,4.7391,0.0,0.0,4.9408,0.0,4.9816,5.0005,5.0496,5.0714,5.1071,5.1716,5.2028,5.2235,5.2322,5.252,5.2679,5.2805,5.2805,5.3053,5.3727,5.3804,5.4082,5.4795,5.4856,5.4882,5.4991,5.515,5.5236,5.5236,5.5423,5.5534,5.5603,5.5716,5.5847,5.5933,5.5944,5.5913,5.5851,5.5118,5.5106,5.57,5.5927,5.5911,5.5757,5.5821,5.5809,5.5683,5.5588,5.5525,5.5459,5.5168,5.4589,5.3795,5.2951,5.1713,5.0361,4.9216,4.7914,4.6605,4.5346,4.2428,3.8876,3.5453,3.2438,2.9216,2.487,2.2705,2.0849,1.7549,1.58,1.5609,1.8632,2.1806,2.3397,2.1384,1.8946,1.6555,1.4356,1.1511,0.9292,0.8958,0.8845,0.9098,0.9859,0.9193,0.8515,0.8414,0.6062,0.4514,0.4514,0.233,0.0862,0.0493,-0.0369,-0.0985,-0.1356,-0.1603,-0.2097,-0.2837,-0.2837,-0.2837,-0.2837,-0.358,-0.3973,-0.4014,-0.4014,-0.4037,4.0744,4.1089,4.1502,4.4824,4.5725,4.6271,0.0,0.0,4.8996,4.9886,5.0182,5.0278,5.0293,5.0215,5.0158,5.0196,5.1027,5.1634,5.1653,5.2327,5.2785,5.2805,5.2805,5.2829,5.2934,5.2953,5.3072,5.3302,5.3377,5.3464,5.3601,5.3676,5.3722,5.3722,5.3844,5.3925,5.3925,5.406,5.4122,5.4141,5.414,5.4066,5.3954,5.388,5.3803,5.3781,5.4621,5.4577,5.4,5.4679,5.4488,5.3751,5.3741,5.3649,5.3462,5.2593,5.2177,5.1916,5.0966,5.008,4.9136,4.8155,4.6062,4.3407,4.1233,3.6307,3.1301,2.984,2.6251,2.1539,1.5628,1.3821,1.2279,0.7069,0.5718,0.7965,1.635,1.8764,1.7569,1.1996,0.875,0.6869,0.6393,0.2419,0.0121,0.2205,0.2454,0.2454,0.2577,0.2456,0.2457,0.2457,0.2336,0.2214,0.2214,0.0616,-0.0123,0.0493,-0.1849,-0.3085,-0.2467,-0.3332,-0.3826,-0.3826,-0.3826,-0.3826,-0.3826,-0.3828,-0.3952,-0.3955,-0.3955,-0.3956,4.0576,4.1638,4.2562,4.3995,4.516,4.6131,4.6788,4.7401,4.7991,4.8408,4.8514,4.8586,4.8674,4.9529,5.0231,5.0231,5.0546,5.0779,5.0779,5.1009,5.1232,5.135,5.1371,5.1645,5.2315,5.2391,5.2674,5.3352,5.3406,5.347,5.3573,5.3669,5.372,5.3738,5.3869,5.393,5.3923,5.3985,5.4002,5.4004,5.3903,5.3843,5.3783,5.3051,5.2722,5.2763,5.292,5.3236,5.3701,5.3848,5.3739,5.3452,5.3185,5.2828,5.2373,5.1907,5.1061,4.9986,4.887,4.7504,4.5871,4.3135,4.021,3.7343,3.4925,3.0694,2.5886,2.1713,1.8999,1.5964,0.9768,0.7636,0.5692,0.0118,-0.131,-0.0715,0.2023,0.4414,0.5022,0.1793,0.0239,-0.1197,-0.349,-0.5431,-0.6784,-0.681,-0.6339,-0.5618,-0.4765,-0.4042,-0.368,-0.368,-0.368,-0.3314,-0.2213,-0.3687,-0.3812,-0.1849,-0.3575,-0.4316,-0.3455,-0.3703,-0.3951,-0.3951,-0.3951,-0.3951,-0.3951,-0.3951,-0.3951,-0.3951,-0.3951,-0.3951,4.0139,4.1437,4.2655,4.3407,4.444,4.5483,4.641,4.6846,4.7276,4.8018,4.7926,4.778,4.7909,4.883,4.9693,4.9915,5.0183,5.0399,5.0466,5.0467,5.0529,5.0675,5.0709,5.0971,5.1663,5.1735,5.2014,5.269,5.2729,5.2783,5.2855,5.2945,5.2987,5.2984,5.3064,5.3086,5.3095,5.3048,5.3025,5.3025,5.2931,5.287,5.2781,5.203,5.172,5.1744,5.1452,5.178,5.2514,5.2644,5.2473,5.2085,5.1631,5.1187,5.079,5.0112,4.9137,4.7814,4.5745,4.4283,4.2708,3.8819,3.5467,3.2525,2.9922,2.5472,2.0475,1.6208,1.3044,0.99,0.4976,0.2132,-0.0342,-0.3852,-0.5572,-0.6357,-0.6647,-0.6079,-0.5487,-0.5464,-0.6552,-0.7766,-0.8615,-0.9346,-0.9964,-1.0477,-0.965,-0.8687,-0.7955,-0.7235,-0.6877,-0.6877,-0.6877,-0.651,-0.5287,-0.6265,-0.6265,-0.4555,-0.5049,-0.5176,-0.4562,-0.4196,-0.3951,-0.3951,-0.3951,-0.3951,-0.3951,-0.3951,-0.3951,-0.3951,-0.3951,-0.3579,0.0,0.0,0.0,0.0,0.0,0.0,4.6949,0.0,4.6889,4.8795,4.8509,4.7953,4.8099,4.8152,4.8407,4.9125,4.9912,5.051,5.072,5.0751,5.0797,5.0887,5.0901,5.0933,5.1011,5.1011,5.107,5.1195,5.1203,5.1258,5.139,5.1398,5.1398,5.1398,5.1333,5.1297,5.1293,5.1171,5.1103,5.1103,5.1103,5.1037,5.0914,5.0914,5.0818,5.0663,5.0336,5.0262,5.0412,5.1013,5.0589,4.9523,4.8984,4.8754,4.855,4.7174,4.6308,4.532,4.1694,4.046,3.9757,3.5495,3.2142,2.9152,2.6218,2.0646,1.4943,1.3225,0.8557,0.3424,0.0886,-0.2807,-0.5818,-0.526,-0.6912,-0.8503,-0.8358,-1.1187,-1.2725,-0.9342,-1.1429,-1.2526,-0.8684,-0.9169,-0.9657,-0.8672,-0.7466,-0.6747,-0.7118,-0.7118,-0.7121,-0.6999,-0.6999,-0.6999,-0.6999,-0.6999,-0.7118,-0.736,-0.6149,-0.5542,-0.5784,-0.4562,-0.3951,-0.3828,-0.3951,-0.3951,-0.3828,-0.3951,-0.3951,-0.3828,-0.3826,-0.2959,3.8804,0.0,0.0,0.0,0.0,0.0,0.0,0.0,4.5795,4.6417,4.6359,4.6223,4.6362,4.6908,4.7434,4.7724,4.8365,4.907,4.9749,4.9906,5.0216,5.0947,5.1045,5.1102,5.1278,5.1284,5.1297,0.0,5.1333,5.1362,5.1394,5.1347,5.1313,5.1263,5.1249,5.12,5.1153,5.1122,5.1103,5.1112,5.0999,5.0947,5.0914,5.0818,5.0603,5.0336,5.0183,4.9905,4.957,4.9928,4.9674,4.9046,4.8624,4.7959,4.7192,4.6218,4.4263,4.1771,4.0075,3.7979,3.5168,3.0155,2.5756,2.1856,1.8275,1.3551,0.8798,0.582,0.4077,0.1767,-0.3644,-0.6769,-0.8947,-0.9995,-1.0795,-1.14,-1.1887,-1.308,-1.4015,-1.3646,-1.4759,-1.5477,-1.494,-1.5177,-1.5306,-1.5053,-1.4208,-1.3379,-1.256,-1.2084,-1.1491,-1.0543,-1.0425,-0.9933,-0.8708,-0.9562,-0.8948,-0.6143,-0.6517,-0.6029,-0.4192,-0.3948,-0.3826,-0.358,-0.3826,-0.3826,-0.358,-0.3826,-0.3826,-0.358,-0.2341,-0.0985,3.9183,0.0,0.0,0.0,0.0,0.0,4.5837,4.5757,4.5637,0.0,4.595,4.5747,4.5886,4.631,4.6693,4.6766,4.7114,4.7792,4.9027,4.9254,4.9479,5.0075,5.0452,5.0725,5.0844,5.1157,5.1361,5.1364,5.1328,5.1328,5.1327,5.1288,5.1234,5.1162,5.112,5.1081,5.1024,5.0856,5.0779,5.0776,5.0552,5.0428,5.0428,5.0352,5.0202,4.993,4.9589,4.9189,4.8788,4.8612,4.8489,4.8346,4.7466,4.6758,4.5998,4.4412,4.2174,3.9581,3.7026,3.4335,3.1064,2.5664,2.1307,1.7708,1.4106,0.9562,0.5206,0.3436,0.1329,-0.177,-0.7306,-0.953,-1.0558,-1.1372,-1.2135,-1.2711,-1.295,-1.4059,-1.4956,-1.4831,-1.5348,-1.5935,-1.6644,-1.6284,-1.6172,-1.6767,-1.6279,-1.544,-1.4857,-1.4619,-1.4023,-1.2724,-1.2603,-1.2001,-1.0422,-1.0418,-0.9562,-0.7362,-0.6637,-0.5782,-0.4313,-0.3824,-0.3455,-0.3455,-0.3455,-0.3208,-0.2465,-0.3331,-0.3331,-0.2465,-0.0246,0.123,3.9965,4.0862,0.0,0.0,4.4318,0.0,4.6493,4.6312,4.6046,0.0,4.6504,4.6046,4.6189,4.6203,4.6203,4.6203,4.6215,4.6782,4.8435,4.865,4.8684,4.8789,4.9472,4.9941,4.9924,5.0586,5.1008,5.0995,5.0932,5.0953,5.1035,5.1031,5.1042,5.1061,5.0984,5.091,5.0836,5.0442,5.0233,5.0233,4.9943,4.9803,4.9803,4.9784,4.9664,4.9447,4.8766,4.8365,4.807,4.7216,4.7132,4.7446,4.6032,4.539,4.4952,4.2207,4.0106,3.7967,3.3524,3.0229,2.6985,2.1957,1.8182,1.5159,1.2252,0.7577,0.3206,0.3223,-0.1109,-0.6551,-1.0229,-1.1236,-1.1236,-1.1021,-1.2137,-1.3049,-1.2622,-1.4416,-1.561,-1.4188,-1.449,-1.51,-1.5693,-1.4857,-1.4619,-1.6059,-1.5569,-1.5084,-1.5203,-1.5451,-1.5095,-1.3784,-1.3545,-1.2955,-1.1647,-1.0179,-0.9319,-0.9316,-0.6634,-0.5047,-0.5167,-0.3821,-0.3208,-0.3455,-0.3085,-0.2342,-0.0985,-0.2466,-0.2218,-0.0492,0.2213,0.3566,3.9451,4.0654,4.215,4.3163,0.0,0.0,4.5951,4.5905,4.5871,0.0,4.6115,4.6046,4.6189,4.6203,4.6201,4.6201,4.6245,4.6629,4.7614,4.774,4.7986,4.8647,4.8879,4.8953,4.8903,4.9029,4.9123,4.9126,4.9096,4.9375,4.9968,4.9984,5.0271,5.0849,5.0644,5.0466,5.0423,5.0135,4.9943,4.9891,4.9811,4.9803,4.9803,4.9692,4.9281,4.8699,4.8383,4.7895,4.7209,4.6192,4.5898,4.5993,4.563,4.4841,4.3606,4.155,3.8471,3.494,3.2399,2.7941,2.2795,1.9694,1.5263,1.0919,0.9293,0.4877,-0.0333,-0.3542,-0.763,-1.0975,-1.145,-1.2214,-1.2861,-1.2767,-1.3019,-1.3426,-1.3935,-1.497,-1.5813,-1.5605,-1.6394,-1.7003,-1.712,-1.6885,-1.6885,-1.7126,-1.725,-1.712,-1.6273,-1.5564,-1.4852,-1.3784,-1.2724,-1.1639,-1.0297,-0.9926,-0.883,-0.6759,-0.6029,-0.5172,-0.3947,-0.3579,-0.3332,-0.3085,-0.2714,-0.1973,-0.0616,-0.0986,0.0123,0.2582,0.3444,0.443,4.0655,4.1304,4.2322,4.3627,0.0,0.0,0.0,4.6049,4.6076,4.6144,4.58,4.5651,4.6162,4.5884,4.573,4.6126,4.623,4.6364,4.6708,4.679,4.6944,4.7366,4.7752,4.7996,4.7996,4.8327,4.8467,4.8269,4.8253,4.8352,4.8606,4.8989,4.9351,4.9693,4.9981,5.0135,5.0043,4.9776,4.9627,4.9598,4.9177,4.8721,4.8343,4.7983,4.7592,4.7153,4.6609,4.6337,4.6143,4.4969,4.435,4.4187,4.4181,4.3756,4.2782,3.9703,3.6939,3.4286,3.1005,2.6064,2.0841,1.7716,1.3407,0.8941,0.6345,0.2114,-0.2559,-0.6667,-0.9332,-1.1,-1.1455,-1.211,-1.2758,-1.3207,-1.3527,-1.3883,-1.4543,-1.5521,-1.6049,-1.5607,-1.6408,-1.7328,-1.7461,-1.7003,-1.6526,-1.6526,-1.6284,-1.5919,-1.5558,-1.5084,-1.4609,-1.3784,-1.2341,-1.1016,-0.9923,-0.8587,-0.7248,-0.6029,-0.5172,-0.4315,-0.3579,-0.3332,-0.2961,-0.222,-0.1972,-0.0739,0.1232,0.1601,0.2338,0.369,0.4555,0.5297,0.0,0.0,0.0,0.0,0.0,4.5235,0.0,0.0,0.0,4.6276,4.5712,0.0,0.0,0.0,0.0,0.0,0.0,0.0,0.0,4.6008,0.0,4.6053,4.6619,4.7046,4.7087,4.763,4.7818,4.7434,4.7415,4.7334,4.7243,4.7848,4.8256,4.8353,4.8984,4.9238,4.9089,4.8821,4.8637,4.8534,4.7812,4.7138,4.6481,4.5887,4.5548,4.5365,4.4638,4.4543,4.4797,4.3764,4.301,4.2528,4.2675,4.2599,4.2029,3.8032,3.5894,3.4338,2.9579,2.4716,1.9844,1.6444,1.2168,0.7567,0.357,-0.0334,-0.4231,-0.791,-0.9361,-1.0025,-1.1345,-1.1896,-1.2441,-1.331,-1.3959,-1.4493,-1.5035,-1.5949,-1.6281,-1.526,-1.6142,-1.6996,-1.6833,-1.6133,-1.5403,-1.5208,-1.4485,-1.4004,-1.4113,-1.3875,-1.3522,-1.2804,-1.135,-1.0013,-0.9032,-0.6991,-0.5776,-0.5517,-0.4309,-0.358,-0.358,-0.3085,-0.2343,-0.1356,-0.0862,0.0615,0.3201,0.3692,0.406,0.4307,0.5421,0.5916,0.0,0.0,0.0,0.0,4.4985,0.0,0.0,0.0,4.6276,4.6228,0.0,0.0,0.0,0.0,0.0,0.0,0.0,0.0,4.5733,4.582,4.5854,4.5922,4.5991,4.6034,4.5988,4.5989,4.5915,4.5705,4.563,4.5799,4.6235,4.6345,4.6719,4.7429,4.7315,4.6997,4.6522,4.6262,4.5863,4.5421,4.5319,4.5201,4.5111,4.4561,4.4102,4.368,4.3768,4.3393,4.2741,4.2873,4.2288,4.151,4.2122,4.1933,4.0925,3.7794,3.5778,3.3901,2.8682,2.3776,1.9415,1.686,1.1531,0.5339,0.089,-0.2447,-0.5337,-0.8462,-1.0135,-1.1017,-1.1782,-1.2332,-1.2985,-1.3846,-1.4498,-1.5035,-1.5678,-1.6121,-1.6326,-1.6107,-1.6438,-1.6211,-1.443,-1.4693,-1.4982,-1.3994,-1.3784,-1.3402,-1.2521,-1.1459,-1.0379,-0.9506,-0.8196,-0.6958,-0.5906,-0.5612,-0.5018,-0.4234,-0.392,-0.3828,-0.3828,-0.2714,-0.1603,-0.0616,0.0246,0.1724,0.3815,0.3813,0.4555,0.5669,0.5794,0.5916,0.0,0.0,0.0,0.0,0.0,0.0,4.6132,0.0,4.5516,0.0,0.0,0.0,0.0,0.0,0.0,0.0,4.557,0.0,0.0,0.0,4.5522,0.0,0.0,0.0,4.5543,4.549,4.5304,4.4905,4.4858,4.484,4.4815,4.5273,4.5529,4.5542,4.5916,4.5915,4.5404,4.5267,4.5106,4.4885,4.428,4.3828,4.3359,4.2558,4.1987,4.1612,4.1385,4.1246,4.1124,4.0764,4.0356,3.9945,3.9698,3.9792,3.9703,3.7078,3.5557,3.3975,2.8234,2.3669,1.9333,1.3001,0.7523,0.3008,0.0446,-0.3229,-0.6679,-0.802,-0.9904,-1.1673,-1.1891,-1.255,-1.331,-1.4062,-1.4606,-1.5143,-1.5785,-1.6097,-1.584,-1.4393,-1.4817,-1.4542,-1.1741,-1.2767,-1.3548,-1.2471,-1.167,-1.0844,-0.9991,-0.9176,-0.847,-0.7743,-0.6332,-0.5257,-0.4984,-0.4418,-0.3828,-0.3331,-0.2532,-0.2565,-0.3331,-0.1355,-0.0123,0.0123,0.1601,0.3077,0.4432,0.4925,0.5298,0.5916,0.5916,0.5916,4.1743,0.0,0.0,0.0,0.0,0.0,0.0,0.0,0.0,0.0,0.0,0.0,0.0,0.0,0.0,0.0,0.0,4.4976,0.0,4.5125,0.0,0.0,0.0,0.0,0.0,4.5166,4.4931,4.4336,4.4252,4.4058,4.3526,4.4062,4.4216,4.3832,4.4414,4.453,4.4008,4.3888,4.3743,4.365,4.2783,4.2026,4.1412,4.0574,3.9984,3.9709,3.9397,3.9376,3.9434,3.9093,3.8758,3.8345,3.8004,3.7978,3.7838,3.5767,3.4673,3.3364,2.7342,2.2394,1.7524,0.9592,0.5016,0.223,0.0335,-0.3346,-0.7022,-0.7796,-0.979,-1.1678,-1.2005,-1.2545,-1.3088,-1.363,-1.3948,-1.4272,-1.4804,-1.5053,-1.4735,-1.2865,-1.3312,-1.3135,-1.0254,-1.1216,-1.206,-1.0974,-0.995,-0.891,-0.7619,-0.7153,-0.6684,-0.5629,-0.4348,-0.3758,-0.409,-0.3286,-0.2825,-0.2943,-0.1664,-0.1442,-0.2435,-0.0,0.1337,0.1217,0.293,0.4281,0.514,0.5657,0.5916,0.5916,0.5916,0.5916,0.0,0.0,0.0,4.3494,0.0,0.0,0.0,0.0,4.5634,0.0,0.0,0.0,0.0,0.0,0.0,0.0,0.0,0.0,0.0,0.0,0.0,0.0,0.0,0.0,0.0,4.4834,4.4523,0.0,4.3664,4.329,4.2582,4.258,4.2559,4.2559,4.2577,4.2333,4.1823,4.1348,4.0926,4.0455,3.9935,3.9556,3.9276,3.8772,3.8455,3.818,3.84,3.8106,3.741,3.8539,3.8157,3.6905,3.7867,3.7083,3.5163,3.382,3.3038,3.1813,2.5696,1.9351,1.3136,0.8232,0.5686,0.3785,0.0223,-0.279,-0.5575,-0.8128,-0.9794,-1.1021,-1.211,-1.2209,-1.2096,-1.2436,-1.2318,-1.22,-1.2417,-1.2531,-1.2536,-1.2427,-1.2427,-1.21,-1.0907,-1.0834,-1.0673,-0.9589,-0.9381,-0.8442,-0.5983,-0.5633,-0.4698,-0.2356,-0.2003,-0.2108,-0.2305,-0.2453,-0.2592,-0.2825,-0.1765,-0.106,-0.1178,0.0941,0.2471,0.3061,0.4185,0.5065,0.5784,0.5874,0.5916,0.5916,0.5916,0.5916,0.0,0.0,4.4214,4.3643,0.0,0.0,0.0,0.0,0.0,0.0,0.0,0.0,0.0,0.0,0.0,0.0,0.0,0.0,0.0,0.0,0.0,0.0,0.0,0.0,0.0,0.0,4.3782,4.333,4.305,0.0,4.2386,4.2132,4.1824,4.1473,4.1171,4.0822,4.0317,4.0002,3.9578,3.9036,3.8381,3.7857,3.7419,3.6961,3.6569,3.6337,3.6394,3.6182,3.5693,3.5821,3.5563,3.5066,3.481,3.4184,3.3407,3.3779,3.2999,3.084,2.4195,1.8115,1.2935,0.9545,0.6453,0.3678,0.1116,-0.223,-0.5573,-0.7683,-0.9127,-1.0351,-1.1236,-1.1337,-1.1219,-1.1442,-1.1764,-1.2091,-1.2304,-1.2417,-1.2195,-1.1433,-1.0655,-0.9665,-0.8472,-0.7727,-0.7659,-0.8851,-0.8408,-0.7271,-0.5679,-0.4775,-0.3642,-0.2053,-0.1825,-0.1821,-0.1924,-0.1251,-0.0916,-0.0925,0.0925,0.1627,0.0823,0.3172,0.4112,0.3527,0.4729,0.5454,0.569,0.5782,0.5827,0.5829,0.5888,0.6039,4.4001,4.4291,0.0,4.3984,4.4195,0.0,4.3416,0.0,4.3426,0.0,0.0,0.0,0.0,0.0,0.0,0.0,0.0,0.0,0.0,4.0474,0.0,0.0,0.0,0.0,0.0,4.3048,4.2941,4.2375,4.2114,4.186,0.0,4.1171,4.0787,4.0429,4.0184,3.9851,3.9454,3.8924,3.8453,3.8012,3.714,3.6553,3.612,3.5522,3.51,3.4751,3.4522,3.4201,3.3945,3.3696,3.3559,3.3435,3.2721,3.2307,3.2128,3.2725,3.1446,2.8591,2.2899,1.7996,1.363,1.0272,0.7006,0.4015,0.1115,-0.1895,-0.4906,-0.7465,-0.8692,-0.9581,-1.046,-1.0241,-1.0017,-1.0464,-1.0233,-1.0002,-1.0335,-1.0104,-0.9662,-0.9006,-0.8232,-0.7459,-0.6589,-0.5919,-0.5919,-0.7482,-0.7038,-0.6033,-0.4916,-0.4026,-0.3135,-0.1907,-0.1795,-0.157,-0.1234,-0.0,0.0675,0.0682,0.2501,0.3314,0.2426,0.4393,0.5088,0.4277,0.5114,0.5596,0.5596,0.604,0.6206,0.6208,0.6308,0.6474]},{"header":{"parameterUnit":"m.s-1","parameterCategory":1,"la1":30.6,"la2":29.2853,"lo1":-89.7004,"lo2":-87.6739,"dy":0.0162,"dx":0.0183,"nx":112,"ny":82,"refTime":"2024-09-02T18:00:00:Z","depth":0,"parameterNumber":3,"parameterNumberName":"V-component_of_WINDS"},"data":[0.0,0.0,0.0,0.0,0.0,0.0,0.0,0.0,0.0,0.0,0.0,0.0,0.0,0.0,0.0,0.0,0.0,0.0,0.0,0.0,0.0,0.0,0.0,0.0,0.0,0.0,0.0,0.0,0.0,0.0,0.0,0.0,0.0,0.0,0.0,0.0,0.0,0.0,0.0,0.0,0.0,0.0,0.0,0.0,0.0,0.0,0.0,0.0,0.0,0.0,0.0,0.0,0.0,0.0,0.0,0.0,0.0,0.0,0.0,0.0,0.0,0.0,0.0,0.0,0.0,0.0,0.0,0.0,0.0,0.0,0.0,0.0,0.0,0.0,0.0,0.0,0.0,0.0,0.0,0.0,0.0,0.0,0.0,0.0,0.0,0.0,0.0,0.0,0.0,0.0,0.0,2.1029,2.2405,2.3135,2.3135,2.3273,2.292,2.1609,0.0,0.0,0.0,0.0,0.0,0.0,0.0,0.0,0.0,0.0,0.0,0.0,0.0,0.0,0.0,0.0,0.0,0.0,0.0,0.0,0.0,0.0,0.0,0.0,0.0,0.0,0.0,0.0,0.0,0.0,0.0,0.0,0.0,0.0,0.0,0.0,0.0,0.0,0.0,0.0,0.0,0.0,0.0,0.0,0.0,0.0,0.0,0.0,0.0,0.0,0.0,0.0,0.0,0.0,0.0,0.0,0.0,0.0,0.0,0.0,0.0,0.0,0.0,0.0,0.0,0.0,0.0,0.0,0.0,0.0,0.0,0.0,0.0,0.0,0.0,0.0,0.0,0.0,0.0,0.0,0.0,0.0,0.0,0.0,0.0,0.0,0.0,0.0,0.0,0.0,0.0,0.0,0.0,0.0,0.0,0.0,0.0,0.0,0.0,0.0,0.0,0.0,0.0,0.0,2.1135,2.2639,2.294,2.3135,2.3135,2.2506,2.2281,2.2499,0.0,0.0,0.0,0.0,0.0,0.0,0.0,0.0,0.0,0.0,0.0,0.0,0.0,0.0,0.0,0.0,0.0,0.0,0.0,0.0,0.0,0.0,0.0,0.0,0.0,0.0,0.0,0.0,0.0,0.0,0.0,0.0,0.0,0.0,0.0,0.0,0.0,0.0,0.0,0.0,0.0,0.0,0.0,0.0,0.0,0.0,0.0,0.0,0.0,0.0,0.0,0.0,0.0,0.0,0.0,0.0,0.0,0.0,0.0,0.0,0.0,0.0,0.0,0.0,0.0,0.0,0.0,0.0,0.0,0.0,0.0,0.0,0.0,0.0,0.0,0.0,0.0,0.0,0.0,0.0,0.0,0.0,0.0,0.0,0.0,0.0,0.0,0.0,0.0,0.0,0.0,0.0,0.0,0.0,0.0,0.0,0.0,0.0,0.0,0.0,0.0,0.0,0.0,2.0174,2.1545,2.2911,2.3135,2.3135,2.3135,2.2774,2.26,2.2713,2.1718,0.0,0.0,0.0,0.0,0.0,0.0,0.0,0.0,0.0,0.0,0.0,0.0,0.0,0.0,0.0,0.0,0.0,0.0,0.0,0.0,0.0,0.0,0.0,0.0,0.0,0.0,0.0,0.0,0.0,0.0,0.0,0.0,0.0,0.0,0.0,0.0,0.0,0.0,0.0,0.0,0.0,0.0,0.0,0.0,0.0,0.0,0.0,0.0,0.0,0.0,0.0,0.0,0.0,0.0,0.0,0.0,0.0,0.0,0.0,0.0,0.0,0.0,0.0,0.0,0.0,0.0,0.0,0.0,0.0,0.0,0.0,0.0,0.0,0.0,0.0,0.0,0.0,0.0,0.0,0.0,0.0,0.0,0.0,0.0,0.0,0.0,0.0,0.0,0.0,0.0,0.0,0.0,0.0,0.0,0.0,0.0,0.0,0.0,0.0,0.0,0.0,0.0,2.121,2.206,2.3037,2.3144,2.3144,2.3144,2.2742,2.2559,2.2541,2.1152,0.0,0.0,0.0,0.0,0.0,0.0,0.0,0.0,0.0,0.0,0.0,0.0,0.0,0.0,0.0,0.0,0.0,0.0,0.0,0.0,0.0,0.0,0.0,0.0,0.0,0.0,0.0,0.0,0.0,0.0,0.0,0.0,0.0,0.0,0.0,0.0,0.0,0.0,0.0,0.0,0.0,0.0,0.0,0.0,0.0,0.0,0.0,0.0,0.0,0.0,0.0,0.0,0.0,0.0,0.0,0.0,0.0,0.0,0.0,0.0,0.0,0.0,0.0,0.0,0.0,0.0,0.0,0.0,0.0,0.0,0.0,0.0,0.0,0.0,0.0,0.0,0.0,0.0,0.0,0.0,0.0,0.0,0.0,0.0,0.0,0.0,0.0,0.0,0.0,0.0,0.0,0.0,0.0,0.0,0.0,0.0,0.0,0.0,0.0,0.0,0.0,0.0,2.222,2.3037,2.3125,2.3319,2.3406,2.3135,2.1856,2.1283,2.1889,1.9814,0.0,0.0,0.0,0.0,0.0,0.0,0.0,0.0,0.0,0.0,0.0,0.0,0.0,0.0,0.0,0.0,0.0,0.0,0.0,0.0,0.0,0.0,0.0,0.0,0.0,0.0,0.0,0.0,0.0,0.0,0.0,0.0,0.0,0.0,0.0,0.0,0.0,0.0,0.0,0.0,0.0,0.0,0.0,0.0,0.0,0.0,0.0,0.0,0.0,0.0,0.0,0.0,0.0,0.0,0.0,0.0,0.0,0.0,0.0,0.0,0.0,0.0,0.0,0.0,0.0,0.0,0.0,0.0,0.0,0.0,0.0,0.0,0.0,0.0,0.0,0.0,0.0,0.0,0.0,0.0,0.0,0.0,0.0,0.0,0.0,0.0,0.0,0.0,0.0,0.0,0.0,0.0,0.0,0.0,0.0,0.0,0.0,0.0,0.0,0.0,0.0,0.0,2.1201,2.1931,0.0,2.3319,2.3319,2.3319,2.2227,2.1656,2.1878,0.0,0.0,0.0,0.0,0.0,0.0,0.0,0.0,0.0,0.0,0.0,0.0,0.0,0.0,0.0,0.0,0.0,0.0,0.0,0.0,0.0,0.0,0.0,0.0,0.0,0.0,0.0,0.0,0.0,0.0,0.0,0.0,0.0,0.0,0.0,0.0,0.0,0.0,0.0,0.0,0.0,0.0,0.0,0.0,0.0,0.0,0.0,0.0,0.0,0.0,0.0,0.0,0.0,0.0,0.0,0.0,0.0,0.0,0.0,0.0,0.0,0.0,0.0,0.0,0.0,0.0,0.0,0.0,0.0,0.0,0.0,0.0,0.0,0.0,0.0,0.0,0.0,0.0,0.0,0.0,0.0,0.0,0.0,0.0,0.0,0.0,0.0,0.0,0.0,0.0,0.0,0.0,0.0,0.0,0.0,0.0,0.0,0.0,0.0,0.0,0.0,0.0,2.0286,2.0736,2.1435,0.0,2.3319,2.3232,2.3319,2.2276,2.1577,2.1664,0.0,0.0,0.0,0.0,0.0,0.0,0.0,0.0,0.0,0.0,0.0,0.0,0.0,0.0,0.0,0.0,0.0,0.0,0.0,0.0,0.0,0.0,0.0,0.0,0.0,0.0,0.0,0.0,0.0,0.0,0.0,0.0,0.0,0.0,0.0,0.0,0.0,0.0,0.0,0.0,0.0,0.0,0.0,0.0,0.0,0.0,0.0,0.0,0.0,0.0,0.0,0.0,0.0,0.0,0.0,0.0,0.0,0.0,0.0,0.0,0.0,0.0,0.0,0.0,0.0,0.0,0.0,0.0,0.0,0.0,0.0,0.0,0.0,0.0,0.0,0.0,0.0,0.0,0.0,0.0,0.0,0.0,0.0,0.0,0.0,0.0,0.0,0.0,0.0,0.0,0.0,0.0,0.0,0.0,0.0,0.0,0.0,0.0,0.0,0.0,0.0,0.0,2.0353,2.1212,2.2059,2.296,2.3319,2.3406,2.3135,2.1715,2.0943,0.0,0.0,0.0,0.0,0.0,0.0,0.0,0.0,0.0,0.0,0.0,0.0,0.0,0.0,0.0,0.0,0.0,0.0,0.0,0.0,0.0,0.0,0.0,0.0,0.0,0.0,0.0,0.0,0.0,0.0,0.0,0.0,0.0,0.0,0.0,0.0,0.0,0.0,0.0,0.0,0.0,0.0,0.0,0.0,0.0,0.0,0.0,0.0,0.0,0.0,0.0,0.0,0.0,0.0,0.0,0.0,0.0,0.0,0.0,0.0,0.0,0.0,0.0,0.0,0.0,0.0,0.0,0.0,0.0,0.0,0.0,0.0,0.0,0.0,0.0,0.0,0.0,0.0,0.0,0.0,0.0,0.0,0.0,0.0,0.0,0.0,0.0,0.0,0.0,0.0,0.0,0.0,0.0,0.0,0.0,0.0,0.0,0.0,0.0,0.0,0.0,0.0,0.0,2.0119,2.0516,2.132,2.3232,2.3319,2.3114,2.2992,2.2129,2.1336,2.0663,0.0,0.0,0.0,0.0,0.0,0.0,0.0,0.0,0.0,0.0,0.0,0.0,0.0,0.0,0.0,0.0,0.0,0.0,0.0,0.0,0.0,0.0,0.0,0.0,0.0,0.0,0.0,0.0,0.0,0.0,0.0,0.0,0.0,0.0,0.0,0.0,0.0,0.0,0.0,0.0,0.0,0.0,0.0,0.0,0.0,0.0,0.0,0.0,0.0,0.0,0.0,0.0,0.0,0.0,0.0,0.0,0.0,0.0,0.0,0.0,0.0,0.0,0.0,0.0,0.0,0.0,0.0,0.0,0.0,0.0,0.0,0.0,0.0,0.0,0.0,0.0,0.0,0.0,0.0,0.0,0.0,0.0,0.0,0.0,0.0,0.0,0.0,0.0,0.0,0.0,0.0,0.0,0.0,0.0,0.0,0.0,0.0,0.0,0.0,0.0,0.0,0.0,2.01,2.0251,2.1051,2.3135,2.3232,2.3037,2.2965,2.231,2.1481,2.0592,0.0,0.0,0.0,0.0,0.0,0.0,0.0,0.0,0.0,0.0,0.0,0.0,0.0,0.0,0.0,0.0,0.0,0.0,0.0,0.0,0.0,0.0,0.0,0.0,0.0,0.0,0.0,0.0,0.0,0.0,0.0,0.0,0.0,0.0,0.0,0.0,0.0,0.0,0.0,0.0,0.0,0.0,0.0,0.0,0.0,0.0,0.0,0.0,0.0,0.0,0.0,0.0,0.0,0.0,0.0,0.0,0.0,0.0,0.0,0.0,0.0,0.0,0.0,0.0,0.0,0.0,0.0,0.0,0.0,0.0,0.0,0.0,0.0,0.0,0.0,0.0,0.0,0.0,0.0,0.0,0.0,0.0,0.0,0.0,0.0,0.0,0.0,0.0,0.0,0.0,0.0,0.0,0.0,0.0,0.0,0.0,0.0,0.0,0.0,0.0,0.0,0.0,2.0342,2.0382,2.0962,2.2872,2.3135,2.3125,2.3086,2.2344,2.156,2.0869,0.0,0.0,0.0,0.0,0.0,0.0,0.0,0.0,0.0,0.0,0.0,0.0,0.0,0.0,0.0,0.0,0.0,0.0,0.0,0.0,0.0,0.0,0.0,0.0,0.0,0.0,0.0,0.0,0.0,0.0,0.0,0.0,0.0,0.0,0.0,0.0,0.0,0.0,0.0,0.0,0.0,0.0,0.0,0.0,0.0,0.0,0.0,0.0,0.0,0.0,0.0,0.0,0.0,0.0,0.0,0.0,0.0,0.0,0.0,0.0,0.9026,0.0,0.0,0.0,0.0,0.0,0.0,0.0,0.0,0.0,0.0,0.0,0.0,0.0,0.0,0.0,0.0,0.0,0.0,0.0,0.0,0.0,0.0,0.0,0.0,0.0,0.0,0.0,0.0,0.0,0.0,0.0,0.0,0.0,0.0,0.0,0.0,0.0,0.0,0.0,0.0,0.0,2.1149,2.082,2.0962,2.2872,2.3135,2.3008,2.2676,2.2178,2.156,2.0869,1.9661,0.0,0.0,0.0,0.0,0.0,0.0,0.0,0.0,0.0,0.0,0.0,0.0,0.0,0.0,0.0,0.0,0.0,0.0,0.0,0.0,0.0,0.0,0.0,0.0,0.0,0.0,0.0,0.0,0.0,0.0,0.0,0.0,0.0,0.0,0.0,0.0,0.0,0.0,0.0,0.0,0.0,0.0,0.0,0.0,0.0,0.0,0.0,0.0,0.0,0.0,0.0,0.0,0.0,0.0,0.0,0.0,0.0,0.0,0.0,0.0,0.975,0.0,0.0,0.0,0.0,0.0,0.0,0.0,0.0,0.0,0.0,0.0,0.0,0.0,0.0,0.0,0.0,0.0,0.0,0.0,0.0,0.0,0.0,0.0,0.0,0.0,0.0,0.0,0.0,0.0,0.0,0.0,0.0,0.0,0.0,0.0,0.0,0.0,0.0,0.0,0.0,2.1149,2.1167,2.1507,2.296,2.3135,2.3047,2.2832,2.2432,2.1873,2.1071,1.9959,0.0,0.0,0.0,0.0,0.0,0.0,0.0,0.0,0.0,0.0,0.0,0.0,0.0,0.0,0.0,0.0,0.0,0.0,0.0,0.0,0.0,0.0,0.0,0.0,0.0,0.0,0.0,0.0,0.0,0.0,0.0,0.0,0.0,0.0,0.0,0.0,0.0,0.0,0.0,0.0,0.0,0.0,0.0,0.0,0.0,0.0,0.0,0.0,0.0,0.0,0.0,0.0,0.0,1.3623,1.3777,1.3597,1.3777,1.3097,1.1738,1.0824,0.9904,0.9054,0.9902,0.0,0.0,0.0,0.0,0.0,0.0,0.0,0.0,0.0,0.0,0.0,0.0,0.0,0.0,0.0,0.0,0.0,0.0,0.0,0.0,0.0,0.0,0.0,0.0,1.0476,1.0283,1.0293,0.0,0.0,0.0,0.0,0.0,0.0,0.0,0.0,0.0,0.0,0.0,2.1005,2.1521,2.2059,2.296,2.3135,2.3135,2.3135,2.2754,2.2178,2.1396,2.0556,1.9616,0.0,0.0,0.0,0.0,0.0,0.0,0.0,0.0,0.0,0.0,0.0,0.0,0.0,0.0,0.0,0.0,0.0,0.0,0.0,0.0,0.0,0.0,0.0,0.0,0.0,0.0,0.0,0.0,0.0,0.0,0.0,0.0,1.0965,1.1797,0.0,0.0,0.0,0.0,0.0,0.0,0.0,0.0,0.0,0.0,0.0,0.0,0.0,1.3672,1.3633,1.4342,1.4244,1.3422,1.4772,1.4546,1.2925,1.3797,1.3619,1.2491,1.1471,0.0,0.9878,1.0296,0.0,0.0,0.0,0.0,0.0,0.0,0.0,0.0,0.0,0.0,0.0,0.0,0.0,0.0,0.0,0.0,0.0,0.0,0.0,0.0,0.0,0.0,0.8918,1.0017,1.0628,1.125,0.0,1.2704,1.3248,1.3957,1.4488,0.0,0.0,0.0,0.0,0.0,0.0,0.0,2.141,2.1682,2.2059,2.296,2.3135,2.3135,2.3135,2.2754,2.2305,2.1836,2.0997,2.045,2.0325,1.9475,0.0,0.0,0.0,0.0,0.0,0.0,0.0,0.0,0.0,0.0,0.0,0.0,0.0,0.0,0.0,0.0,0.0,0.0,0.0,0.0,0.0,0.0,0.0,0.0,0.0,0.0,0.0,0.0,0.0,1.1438,1.2307,1.2145,1.2943,1.3369,0.0,0.0,0.0,0.0,0.0,0.0,0.0,0.0,0.0,1.4366,1.4896,1.5299,1.5465,1.5812,1.5747,1.5249,1.5998,1.5739,1.4698,1.5196,1.4425,1.2732,1.2829,1.1697,0.9832,1.025,1.0438,1.0622,0.0,0.0,0.0,0.0,0.8808,0.8621,0.8644,0.8419,0.8058,0.7804,0.0,0.0,0.0,0.0,0.0,0.0,0.0,0.0,0.0,0.0,1.0237,1.1313,1.1879,1.2339,1.3414,1.372,1.395,0.0,1.4715,1.5687,1.6944,0.0,0.0,0.0,0.0,2.036,2.1957,2.2368,2.2599,2.3047,2.3135,2.3135,2.3135,2.2969,2.2685,2.2266,2.166,2.1155,2.0685,2.0352,2.0144,0.0,0.0,0.0,0.0,0.0,0.0,0.0,0.0,0.0,0.0,0.0,0.0,0.0,0.0,0.0,0.0,0.0,0.0,0.0,0.0,0.0,0.0,0.0,0.0,0.0,0.0,0.0,0.0,1.2715,1.3355,1.2738,1.3835,1.4436,0.0,0.0,0.0,0.0,0.0,0.0,1.497,1.5384,1.5658,1.5725,1.6152,1.6486,1.67,1.6707,1.6707,1.6707,1.6707,1.6593,1.6386,1.6386,1.5262,1.3302,1.3803,1.2527,1.0129,1.0414,1.0254,0.9855,0.9855,0.9855,0.9872,0.937,0.9131,0.8954,0.9091,0.8914,0.8675,0.8402,0.8077,0.783,0.7531,0.0,0.0,0.0,0.0,0.8997,1.0027,1.0752,1.1561,1.2684,1.3022,1.3414,1.4484,1.4731,1.47,0.0,1.5086,1.6021,1.6967,0.0,0.0,0.0,0.0,2.0272,2.1429,2.2233,2.2775,2.2775,2.296,2.3135,2.3135,2.3135,2.2959,2.2539,2.2217,2.1699,2.0839,2.1036,2.0745,1.9723,0.0,0.0,0.0,0.0,0.0,0.0,0.0,0.0,0.0,0.0,0.0,0.0,0.0,0.0,0.0,0.0,0.0,0.0,0.0,0.0,0.0,0.0,0.0,0.0,0.0,0.0,0.0,0.0,0.0,1.4309,1.4743,0.0,0.0,0.0,0.0,1.5291,1.511,1.5317,1.6139,1.6213,1.6353,1.6627,1.6667,1.6693,1.6707,1.6707,1.6707,1.6707,1.6707,1.67,1.6687,1.6687,1.606,1.4826,1.3812,1.2695,1.1541,1.1316,1.0556,0.9587,0.9587,0.9587,0.9587,0.9596,0.96,0.96,0.9612,0.9307,0.8999,0.906,0.8706,0.8183,0.8176,0.8072,0.0,0.0,0.9136,1.0127,1.0325,1.1351,1.2517,1.3584,1.3992,1.449,1.554,1.5956,1.6069,0.0,1.5906,1.6553,1.771,0.0,1.8464,1.8832,1.9654,1.9935,1.9131,2.0593,2.1784,2.1784,2.2599,2.3135,2.3135,2.3135,2.2959,2.2539,2.249,2.2181,2.1457,2.1282,2.138,2.1688,1.9364,0.0,0.0,0.0,0.0,0.0,0.0,0.0,0.0,0.0,0.0,0.0,0.0,0.0,0.0,0.0,0.0,0.0,0.0,0.0,0.0,0.0,0.0,0.0,0.0,0.0,0.0,0.0,0.0,1.5026,1.5511,0.0,1.5391,1.5444,1.5625,1.5939,1.6039,1.6219,1.6533,1.6734,1.6887,1.6987,1.7168,1.7268,1.7268,1.7268,1.7268,1.7268,1.7268,1.7168,1.6987,1.6987,1.6374,1.5083,1.4665,1.3437,1.1794,1.1642,1.0879,0.9973,0.9973,0.9973,0.9957,0.9839,0.9791,0.9778,0.9665,0.9485,0.9347,0.9213,0.8894,0.8547,0.8547,0.8506,0.8567,0.8528,0.9033,0.9828,1.1249,1.2047,1.3017,1.4758,1.539,1.5725,1.6016,1.6346,1.652,1.6413,1.6596,1.7079,1.8111,1.8052,1.8203,1.9589,1.9477,1.9604,2.052,2.1239,2.1961,2.2511,2.2872,2.3135,2.3135,2.3135,2.3076,2.292,2.2412,2.2158,2.2181,2.114,2.0764,2.1031,1.9514,1.8864,0.0,0.0,0.0,0.0,0.0,0.0,0.0,0.0,0.0,0.0,0.0,0.0,0.0,0.0,0.0,0.0,0.0,0.0,0.0,0.0,0.0,0.0,0.0,0.0,0.0,0.0,1.5792,1.5705,1.6126,1.6306,1.6005,1.6246,1.646,1.656,1.6747,1.6894,1.7001,1.7188,1.7295,1.7295,1.7482,1.7582,1.7582,1.7694,1.7694,1.7582,1.7694,1.7586,1.7295,1.7295,1.6665,1.5451,1.4924,1.3669,1.2011,1.1595,1.097,1.0331,1.0209,1.016,1.0148,1.0022,0.9977,0.9961,0.9746,0.9605,0.9605,0.9307,0.9101,0.8895,0.8892,0.8996,0.8993,0.9094,0.9899,1.0893,1.2277,1.3363,1.4448,1.5829,1.6273,1.642,1.642,1.6647,1.6854,1.6854,1.6981,1.7313,1.7888,1.7731,1.8171,1.9773,1.9373,1.9518,2.1256,2.1598,2.1961,2.2599,2.2872,2.3135,2.3135,2.3135,2.3135,2.3135,2.2617,2.2373,2.251,2.1525,2.098,2.1121,2.0265,1.9744,1.9362,0.0,0.0,0.0,0.0,0.0,0.0,0.0,0.0,0.0,0.0,0.0,0.0,0.0,0.0,0.0,0.0,0.0,0.0,0.0,0.0,0.0,0.0,0.0,1.5845,1.5858,1.5979,1.6266,1.6553,1.6627,1.6339,1.6567,1.6854,1.7244,1.7264,1.7392,1.7569,1.7582,1.7582,1.7582,1.7589,1.7595,1.7595,1.7925,1.782,1.7595,1.7911,1.7806,1.7582,1.7582,1.7041,1.5861,1.4674,1.3491,1.2309,1.1232,1.0692,1.066,1.0314,1.018,1.018,1.0172,1.0164,1.016,0.9847,0.9743,0.9638,0.9433,0.9122,0.8912,0.9227,0.9328,0.9328,0.9746,1.1498,1.334,1.3443,1.5071,1.6707,1.6707,1.6714,1.672,1.672,1.6954,1.7161,1.7161,1.7144,1.7148,1.7148,1.754,1.8222,1.9275,1.9366,0.0,2.0805,2.14,2.1713,2.1695,2.2599,2.3135,2.3135,2.3135,2.3135,2.3135,2.3125,2.2939,2.2549,2.2339,2.2173,2.2155,2.1816,2.1352,2.0722,0.0,0.0,0.0,0.0,0.0,0.0,0.0,0.0,0.0,0.0,0.0,0.0,0.0,0.0,0.0,0.0,0.0,0.0,0.0,0.0,0.0,1.6181,1.6636,1.6249,1.6724,1.7029,1.7002,1.738,1.7633,1.7551,1.7619,1.7798,1.8081,1.8088,1.8123,1.8206,1.801,1.801,1.8213,1.8016,1.803,1.8238,1.803,1.7923,1.7916,1.7795,1.7687,1.7582,1.7582,1.747,1.7041,1.4995,1.3917,1.3491,1.1555,1.0692,1.068,1.0582,1.0546,1.053,1.0408,1.0274,1.016,1.0056,0.9951,0.9638,0.9638,0.9433,0.9223,0.9332,0.9328,0.9537,1.046,1.1282,1.2309,1.3948,1.4975,1.5796,1.6506,1.6874,1.7027,1.7027,1.7255,1.7462,1.7462,1.7506,1.7556,1.777,1.7893,1.8152,1.8657,1.9246,0.0,2.0653,2.1541,2.2286,2.2627,2.296,2.3135,2.3135,2.3135,2.3135,2.3135,2.2852,2.2773,2.2959,2.2942,2.288,2.2685,2.2269,2.1809,0.0,0.0,0.0,0.0,0.0,0.0,0.0,0.0,0.0,0.0,0.0,0.0,0.0,0.0,0.0,0.0,0.0,0.0,0.0,0.0,0.0,0.0,1.7023,1.7285,1.7008,1.7428,1.7716,1.7529,1.7803,1.7911,1.7799,1.7799,1.7905,1.8003,1.8126,1.8201,1.8201,1.8224,1.8292,1.8393,1.8245,1.8339,1.8448,1.8448,1.8339,1.823,1.8151,1.8064,1.7963,1.7963,1.7896,1.7669,1.5809,1.4717,1.407,1.2335,1.1245,0.0,0.0,0.0,0.0,0.0,1.0477,1.0383,1.0277,1.0063,0.9957,0.9743,0.9533,0.9426,1.0063,1.0273,1.0478,1.1741,1.268,1.3624,1.4879,1.5719,1.6349,1.6972,1.7208,1.7328,1.7328,1.7462,1.7582,1.7582,1.7582,0.0,1.8722,1.8476,1.8363,1.8972,1.9975,2.1042,2.1777,2.2648,2.329,2.3611,2.3672,2.3603,2.3428,2.3408,0.0,0.0,0.0,2.2965,2.3368,2.3597,0.0,0.0,0.0,0.0,0.0,0.0,0.0,0.0,2.4621,2.4523,0.0,0.0,0.0,0.0,0.0,0.0,0.0,0.0,0.0,0.0,0.0,0.0,0.0,0.0,0.0,0.0,1.781,1.8026,1.8183,1.8171,1.8163,1.7989,1.8016,1.7911,1.7793,1.7721,1.7734,1.7847,1.803,1.8205,1.8205,0.0,0.0,0.0,0.0,1.8648,1.8648,1.8863,1.8863,1.8648,1.8829,1.8809,1.849,1.849,1.8343,1.7981,1.6745,1.5528,1.432,1.3102,1.1885,1.0976,1.0773,1.0692,1.0692,1.0692,1.0692,1.0692,1.0476,0.0,0.0,1.0143,0.9923,1.0033,1.1345,1.1769,1.1978,1.3398,1.4793,1.5855,1.5968,1.6829,1.7582,1.7582,1.7582,1.7582,1.7582,1.7687,1.7786,1.7786,1.7891,1.8401,1.9834,1.9235,1.893,2.0135,2.1303,2.2477,2.3405,2.4051,2.4473,2.4424,0.0,0.0,2.3896,2.3857,2.3691,2.331,2.3369,2.3617,2.4137,2.4632,2.5004,2.5245,2.6519,2.7002,2.6435,2.7565,2.795,2.7651,2.6778,2.6445,0.0,0.0,0.0,0.0,0.0,0.0,0.0,0.0,0.0,0.0,0.0,0.0,0.0,0.0,0.0,1.859,1.9254,1.9758,1.9823,1.9563,1.9077,1.8142,1.8016,1.8122,1.8653,1.866,1.88,1.9348,1.9427,1.9502,1.9502,1.9325,1.9243,1.9126,1.9152,1.9282,1.95,1.9394,1.9282,1.9169,0.0,0.0,1.849,1.849,1.8464,1.8293,1.6139,1.5013,1.4676,1.2416,1.14,1.1143,1.0818,1.0692,1.0692,1.0692,1.0692,1.0692,1.0692,1.1122,1.166,1.1546,1.1978,1.262,1.2842,1.2945,0.0,1.4363,1.5108,1.5743,1.6736,1.7272,1.7582,1.7582,1.7582,1.7582,1.7582,1.8304,1.8923,1.8923,1.9642,2.0372,2.0672,1.9968,2.0071,2.1777,2.2741,2.3386,2.345,2.4317,2.4805,2.4453,2.4414,2.4385,2.4307,2.4297,2.4258,2.417,2.4867,2.5711,2.6595,2.7435,2.7861,2.7952,2.8048,2.8106,2.7974,2.8397,2.9186,3.0107,2.9368,2.8652,0.0,0.0,0.0,0.0,0.0,0.0,0.0,0.0,0.0,0.0,0.0,1.6835,1.7455,0.0,1.9053,1.9483,1.9802,2.0004,2.0004,1.9656,1.9233,1.8709,1.8674,1.8667,1.8886,1.8947,1.9014,1.9347,1.9313,1.9375,1.9375,1.9401,1.9371,1.9364,1.9407,1.9482,1.959,1.9482,1.9374,1.9374,1.9219,1.9038,1.8931,1.8343,1.8266,1.8592,1.6069,1.5036,1.4807,1.2396,1.1362,1.1334,1.1062,1.0907,1.083,1.083,1.0769,1.0692,1.0692,1.1017,1.1446,1.1982,1.2413,1.2837,1.403,1.4347,1.4561,1.5767,1.6293,1.6611,1.7265,1.7483,1.7582,1.7582,1.7996,1.8443,1.8703,1.9442,2.0101,2.0269,2.0687,2.1081,2.1785,2.1497,2.1302,2.1988,2.3011,2.3746,2.3822,2.46,2.5121,2.5098,2.5078,2.499,2.4756,2.4541,2.4588,2.5128,2.5663,2.654,2.7962,2.8482,2.8924,2.9374,2.9203,2.913,2.9067,2.9768,3.0459,3.1156,3.2047,3.1843,0.0,0.0,0.0,0.0,0.0,0.0,0.0,1.8251,1.8264,1.7014,1.7366,1.8067,1.8673,1.9288,1.9802,2.0179,2.0156,2.0075,2.0075,1.959,1.9374,1.9635,1.9391,1.9205,1.8975,1.9153,1.9112,1.9112,1.9176,1.9119,1.9119,1.9347,1.9482,1.9366,1.9482,1.9482,1.9482,1.9482,1.9482,1.9482,1.9482,1.9482,1.9366,1.8292,1.8281,1.8891,1.6333,1.4935,1.4356,1.2373,1.1553,1.1537,1.1386,1.1224,1.107,1.1033,1.1036,1.1117,1.1084,1.1397,1.1928,1.2753,1.3058,1.3383,1.5221,1.5897,1.6147,1.7038,1.751,1.7762,1.7762,1.7762,1.7762,1.7762,1.859,1.9491,1.9847,2.0752,2.1577,2.186,2.1794,2.2112,2.3221,2.3239,2.2993,2.2417,2.322,2.3917,2.4304,2.4922,2.544,2.5635,2.5742,2.5596,2.5225,2.4873,2.503,2.5839,2.6183,2.7166,2.868,2.9127,2.9668,3.0398,3.0398,3.0398,3.0398,3.1598,3.2256,3.2525,3.4667,3.4899,1.9815,2.0356,2.0446,1.8962,1.9485,1.9918,0.0,1.8618,1.9113,1.8596,1.9089,1.9572,1.9638,2.0179,2.0625,2.0662,2.0911,2.098,2.098,2.0739,2.0652,2.0907,1.9752,1.9085,1.929,1.9792,1.9977,1.9759,1.9932,1.9991,1.9768,1.9679,1.9707,1.9366,1.9591,1.9815,1.9815,1.9815,1.9815,1.9815,1.9815,1.9591,1.9366,1.9249,1.9229,1.9196,1.6598,1.4232,1.2101,1.1864,1.1744,1.1744,1.1723,1.1602,1.1419,1.1252,1.1862,1.2833,1.2543,1.3904,1.5619,1.5505,1.618,1.7041,1.7259,1.7556,1.7774,1.7888,1.8183,1.839,1.839,1.839,1.839,1.839,1.9358,2.0222,2.0258,2.1937,2.3406,2.3448,2.4184,2.4914,2.5121,2.5338,2.5191,2.4641,2.443,2.4627,2.5128,2.5235,2.544,2.5635,2.5742,2.5713,2.5664,2.5615,2.5586,2.5682,2.7421,2.8517,2.8701,3.0458,3.1392,3.1492,3.2228,3.2634,3.2646,3.3965,3.5096,3.6087,3.6716,3.6442,2.0541,2.1182,2.1503,2.0988,2.188,2.2258,1.9945,2.0464,2.1001,1.9427,1.9764,2.0325,2.0325,2.0698,2.1006,0.0,2.1123,2.1211,2.1211,2.0965,2.0694,2.0723,2.016,1.9892,2.0344,2.0623,2.0723,2.0309,2.0361,2.0192,2.0082,2.001,1.9986,1.9867,1.9818,1.9848,1.9848,1.9679,1.9591,1.9591,1.9591,1.9482,1.9366,1.8648,1.7935,1.7114,1.6048,1.4624,1.284,1.213,1.1776,1.1776,1.1776,1.1732,1.1638,1.1451,1.212,1.3032,1.2947,1.403,1.5683,1.6258,1.6782,1.7226,1.7886,1.8203,1.8303,1.8303,1.8397,1.849,1.849,1.903,1.9566,1.9566,2.0962,2.2304,2.263,2.3687,2.4781,2.5004,2.5195,2.5372,2.5372,2.5476,2.5459,2.5219,2.5151,2.5098,2.5264,2.5333,2.544,2.5635,2.5538,2.5538,2.5645,2.5967,2.6399,2.6966,2.8529,2.9818,3.0386,3.183,3.2859,3.3439,3.377,3.4374,3.5055,3.6115,3.7002,3.7566,3.8114,3.8689,2.1126,2.1854,2.2268,2.2106,2.2997,2.3238,2.078,2.125,2.1755,1.9886,2.0185,2.0859,2.0859,2.105,2.1211,2.1211,2.1211,2.1211,2.1211,2.096,2.0637,2.0621,2.0589,2.0843,2.1227,2.1104,2.0776,2.0519,2.0372,2.0301,2.0271,2.0241,2.0234,2.0234,2.0027,1.992,1.992,1.9713,1.9566,1.9486,1.9486,1.9446,1.9366,1.8409,1.7337,1.6042,1.5806,1.4857,1.3545,1.2367,1.1776,1.1776,1.1776,1.2014,1.2354,1.2213,1.2768,1.3783,1.3724,1.4722,1.6185,1.7036,1.7247,1.747,1.8262,1.8544,1.8611,1.8611,1.8671,1.8843,1.9172,1.9932,2.0589,2.092,2.2538,2.4124,2.4416,2.5139,2.5793,2.6078,2.5903,2.5702,2.5702,2.5702,2.5665,2.5555,2.5685,2.5645,2.5438,2.5484,2.5467,2.5547,2.5644,2.5712,2.5918,2.6596,2.7331,2.8002,2.9667,3.0919,3.1613,3.2945,3.4053,3.4805,3.534,3.6031,3.6981,3.7867,3.8477,3.8879,3.9562,4.0604,2.1099,2.1872,2.2309,2.0903,2.1078,2.1246,1.9693,1.9861,2.0223,2.0223,2.0742,2.1196,2.1196,2.1203,2.1211,2.1211,2.1211,2.1211,2.1211,2.096,2.083,2.1145,2.1453,2.1518,2.121,2.0684,2.0178,1.9885,2.0149,2.0278,2.0207,2.0227,2.0234,2.0234,2.0227,2.0221,2.0221,2.0214,2.0067,1.9786,1.9786,1.9639,1.9366,1.9366,1.8648,1.7337,1.6161,1.4857,1.3545,1.2367,1.1776,1.1776,1.1776,1.2603,1.3665,1.366,1.4485,1.5521,1.5173,1.6706,1.8745,1.8466,1.849,1.849,1.849,1.8684,1.8911,1.8911,1.9118,1.9679,2.0809,2.1145,2.1487,2.2613,2.3847,2.4744,2.4761,2.5762,2.6554,2.6564,2.6564,2.6554,2.6554,2.6554,2.6417,2.6004,2.625,2.6206,2.5806,2.5793,2.5785,2.5381,2.5916,2.6367,2.6367,2.7722,2.8545,2.8545,3.0533,3.172,3.1815,3.3625,3.4817,3.5086,3.685,3.7881,3.8187,3.9049,3.981,4.0424,4.1244,4.1936,2.1946,2.2797,2.3456,2.3108,2.3019,2.2698,2.1195,2.114,2.1133,1.9945,2.0359,2.0823,2.0603,2.0742,2.0889,2.0889,2.1064,2.1211,2.1211,2.1046,2.1088,2.1181,2.1356,2.1272,2.1167,2.118,0.0,2.076,2.0571,2.057,2.0747,2.0826,2.0815,2.0815,2.0628,2.0528,2.0528,2.0334,2.018,2.0087,2.0087,2.0034,1.994,1.994,1.9589,1.8925,1.676,1.5475,1.4857,1.2728,1.1776,1.1776,1.1776,1.2603,1.3665,1.3665,1.509,1.685,1.6763,1.7799,1.9199,1.9105,1.9072,1.9072,1.9072,1.9138,1.9219,1.9219,1.9848,2.0723,2.106,2.2418,2.3656,2.4103,2.5119,2.6017,2.6017,2.6364,2.6591,2.6591,2.6591,2.6591,2.6591,2.6591,2.6645,2.6704,2.6337,2.605,2.6003,2.6058,2.612,2.6189,2.6406,2.6594,2.6807,2.8178,2.9021,2.9021,3.1418,3.3052,3.3863,3.5145,3.6468,3.81,3.8539,3.9247,4.0308,4.0461,4.1141,4.2334,4.229,4.322,2.2723,2.3333,2.3777,2.3818,2.3719,2.326,2.2125,2.2079,2.1905,2.0409,2.0632,2.0913,2.0274,2.0406,2.0625,2.0859,2.1072,2.1291,2.1525,2.1495,2.1382,2.1367,2.1526,2.1555,2.1442,2.1655,0.0,2.1209,2.0894,2.076,2.1058,2.1128,2.1109,2.1109,2.0929,2.0828,2.0828,2.0641,2.0494,2.0394,2.0287,2.0234,2.0234,2.0234,2.0134,1.9834,1.7265,1.5957,1.5691,1.2973,1.1866,1.1861,1.2272,1.3315,1.4381,1.4852,1.6391,1.8169,1.7689,1.8292,1.9366,1.9366,1.9366,1.9366,1.9366,1.9366,1.9366,1.9366,2.027,2.1288,2.1737,2.3311,2.4898,2.5348,2.6026,2.6591,2.6591,2.6591,2.6591,2.6591,2.6591,2.6591,2.6591,2.6591,2.6691,2.6791,2.6454,2.6178,2.6333,2.6409,2.6456,2.6612,2.684,2.7236,2.7739,2.9239,3.0317,3.0712,3.2608,3.4264,3.5448,3.6364,3.7704,3.959,3.9752,4.046,4.1731,4.1619,4.2155,4.3521,4.3319,4.4236,2.3318,2.3556,2.3463,2.3141,2.2929,2.282,2.2291,2.2375,2.2324,2.1571,2.1632,2.1441,2.0352,2.0179,2.042,2.1057,2.1203,2.1459,2.2096,2.1937,2.1689,0.0,0.0,0.0,0.0,0.0,0.0,2.1314,0.0,2.0802,2.1096,2.1109,2.1109,2.1109,2.1109,2.1109,2.1109,2.1109,2.0969,2.0695,2.0414,2.0274,2.0274,2.0152,2.0146,2.0004,1.7397,1.6151,1.6,1.3212,1.204,1.2271,1.3295,1.4525,1.5822,1.712,1.8298,1.9249,1.8046,1.8415,1.9386,1.9372,1.9379,1.9386,1.9372,1.9366,1.9366,1.9366,2.027,2.1509,2.2636,2.3768,2.5008,2.6245,2.6473,2.6482,2.6609,2.66,2.6591,2.6619,2.66,2.6591,2.6591,2.6591,2.6591,2.6591,2.6591,2.6661,2.6795,2.6854,2.6798,2.6699,2.7338,2.8197,2.9198,3.0804,3.2083,3.3101,3.4213,3.5295,3.632,3.7348,3.8342,3.9692,4.056,4.1521,4.2392,4.2392,4.2915,4.4004,4.4373,4.511,2.3518,2.405,2.43,2.4609,2.3917,2.3194,2.3294,2.2885,2.2286,2.1342,2.1623,2.1399,1.9666,2.0097,2.065,2.0303,2.098,0.0,2.2125,2.2125,0.0,2.2011,0.0,2.2089,2.2011,2.1825,0.0,0.0,2.1293,2.1051,2.1096,2.1109,2.1109,2.1109,2.1109,2.1109,2.1109,2.1109,2.1076,2.0995,2.0922,2.0889,2.0882,1.9732,1.9237,1.892,1.6145,1.492,1.4649,1.2871,1.2854,1.3835,1.4156,1.5497,1.7386,1.7625,1.8462,1.9366,1.901,1.9265,1.9659,1.9432,1.9512,1.9646,1.9432,1.9366,1.9366,1.9366,2.027,2.1288,2.1623,2.2531,2.3768,2.5008,2.5238,2.5538,2.6736,2.6793,2.6674,2.6967,2.6793,2.6591,2.6591,2.6591,2.6591,2.6591,2.6591,2.6654,2.6661,2.6849,2.7009,2.7226,2.8335,2.913,2.9454,3.1498,3.2801,3.2912,3.4115,3.5655,3.7573,3.7691,3.8702,4.0645,4.1254,4.1673,4.2087,4.2415,4.3349,4.4812,4.4737,4.5551,2.3929,2.4361,2.4529,2.4833,2.4421,2.3863,2.3788,2.343,2.2815,2.1727,2.1769,2.1385,1.9411,1.9875,2.0582,2.012,2.1031,2.1906,2.2506,2.2487,2.2341,0.0,2.2249,0.0,2.2111,2.1985,2.1734,0.0,2.1332,2.1186,2.1102,2.1109,2.1109,2.1109,2.1109,2.1109,2.1109,2.1109,2.1109,2.1109,2.1109,2.1109,2.1109,1.9686,1.8957,1.856,0.0,1.4662,1.4426,1.2953,1.3295,1.4537,1.5067,1.6429,1.8137,1.8753,1.927,1.9746,1.9746,1.994,2.0114,1.9693,1.9666,1.9773,1.9606,1.9466,1.9366,1.9366,2.027,2.1174,2.1174,2.241,2.3801,2.4639,2.5241,2.5922,2.7006,2.7149,2.7114,2.7169,2.7004,2.6793,2.6619,2.6738,2.6848,2.6848,2.6848,2.6848,2.6848,2.6892,2.7206,2.753,2.8145,2.8976,3.0141,3.1462,3.2678,3.3411,3.469,3.6118,3.7586,3.8147,3.9046,4.0488,4.1015,4.159,4.2222,4.2695,4.3711,4.5421,4.5274,4.6247,2.4328,2.4529,2.4538,2.4529,2.4529,2.4426,2.4026,2.3932,2.3601,2.2452,2.2173,2.1475,1.9411,1.9683,2.0292,2.025,2.0967,2.1853,2.2842,2.2731,2.248,2.248,2.2237,2.1985,2.1985,2.1985,2.1859,2.1607,2.1269,2.1149,2.1109,2.1109,2.1109,2.1109,2.1109,2.1109,2.1109,2.1109,2.1109,2.1109,2.1109,2.1109,2.1109,1.9425,1.878,1.8518,1.5814,1.4651,1.4507,1.3431,1.3744,1.4988,1.6186,1.7455,1.8784,1.9916,2.0267,2.0234,2.0234,2.0428,2.0588,2.004,1.986,1.9853,1.9813,1.9599,1.9482,1.9591,2.0385,2.1174,2.1288,2.278,2.4244,2.478,2.5822,2.678,2.7308,2.7628,2.7737,2.7334,2.726,2.715,2.6802,2.7031,2.726,2.7251,2.726,2.7233,2.7187,2.7031,2.7206,2.7745,2.7628,2.8465,3.066,3.1143,3.2039,3.3918,3.5367,3.6414,3.7137,3.8405,3.9489,4.0257,4.0602,4.1423,4.271,4.3096,4.4113,4.576,4.5927,4.6908,2.4328,2.4529,2.4529,2.4735,2.4833,2.473,2.4324,2.423,2.3908,2.2862,2.2612,2.185,1.9305,1.9542,2.0054,1.9678,2.0182,2.1003,2.2441,2.2362,2.2111,0.0,2.1734,2.1607,2.1362,2.1235,0.0,0.0,2.1336,2.137,2.1122,2.1109,2.1109,2.1109,2.1109,2.1109,2.1109,2.1109,2.1109,2.1109,2.1109,2.1109,2.0976,1.8524,1.7367,1.7232,1.4394,0.0,1.3223,1.4097,1.537,1.6652,1.8018,1.9274,2.0341,2.0471,2.0441,2.0234,2.0234,2.0428,2.0621,2.0267,2.0154,2.0114,1.9873,1.9599,1.9597,2.0608,2.0831,2.106,2.207,2.2839,2.3632,2.4619,2.5557,2.6478,2.7964,2.8287,2.8053,2.7413,2.7332,2.7314,2.7241,2.7287,2.7332,2.7664,2.7664,2.7545,2.7215,2.694,2.6791,2.7098,2.7912,2.8542,2.9102,3.1041,3.2264,3.2387,3.4299,3.5941,3.7284,3.8134,3.9489,4.1353,4.1535,4.217,4.3457,4.3457,4.4297,4.5848,4.6548,4.7767,2.4384,2.4529,2.4529,2.4637,2.4575,2.4216,2.3718,2.3448,2.3019,2.2325,2.2205,2.1491,1.9188,1.9606,2.0084,1.9177,1.975,2.0751,2.1969,2.1874,2.163,2.1825,2.1734,2.1607,2.1607,2.1481,2.1362,2.1362,2.137,2.1263,2.1116,2.1109,2.1109,2.1109,2.1109,2.1109,2.1109,2.1109,2.1109,2.1109,2.1109,2.1109,2.0982,1.8267,1.698,1.6845,1.4002,1.3227,1.4002,1.4651,1.6203,1.8133,1.878,1.9732,2.0902,2.0902,2.0808,2.0688,2.0688,2.0681,2.0655,2.0508,2.0461,2.0408,2.0114,1.982,1.9794,2.0881,2.0945,2.0981,2.2406,2.3142,2.3817,2.5011,2.6334,2.7505,2.831,2.8473,2.8237,2.7481,2.7508,2.7445,2.7124,2.7364,2.7624,2.7624,2.7739,2.7782,2.7591,2.7158,2.6912,2.7008,2.7295,2.8233,2.985,3.0999,3.213,3.3186,3.5184,3.6513,3.7031,3.8509,3.9779,4.0759,4.1029,4.184,4.3046,4.3269,4.4388,4.6313,4.6923,4.8317,2.4421,2.444,2.444,2.444,2.4133,2.3638,2.3043,2.263,2.2217,2.1814,2.1741,2.1114,1.9252,1.967,1.9922,1.8653,1.9301,2.0395,2.1405,2.1364,2.1366,2.1916,2.1734,0.0,2.2202,2.1956,0.0,2.1799,2.149,2.1176,2.1109,2.1109,2.1109,2.1109,2.1109,2.1109,2.1109,2.1109,2.1109,2.1109,2.1109,2.0982,2.0589,1.8139,1.685,1.6462,1.4263,1.3875,1.4907,1.5554,1.7103,1.9036,1.9297,2.0075,2.1109,2.1109,2.1109,2.1109,2.1109,2.0962,2.0768,2.0768,2.0641,2.0448,2.0207,1.9933,1.9881,2.1132,2.1174,2.1362,2.3189,2.4146,2.473,2.5821,2.7312,2.8397,2.8397,2.8397,2.8179,2.7511,2.7677,2.7687,2.7026,2.7463,2.7794,2.7576,2.7803,2.8002,2.7912,2.7591,2.7242,2.6957,2.6619,2.7484,2.9921,3.0584,3.1739,3.3629,3.5928,3.7064,3.6871,3.8715,3.9876,4.0263,4.0538,4.1525,4.3042,4.3418,4.4862,4.7231,4.7684,4.9069,2.415,2.4251,2.4251,2.4251,2.3849,2.3437,2.3043,2.263,2.2217,2.1814,2.1741,2.1203,1.9483,1.9241,1.9154,1.8561,1.8837,1.9477,2.0667,2.0944,2.1238,2.1566,2.1607,2.1844,2.2503,2.2275,2.2134,2.2401,2.1916,2.1396,2.1122,2.1109,2.1109,2.1109,2.1109,2.1109,2.1109,2.1109,2.1109,2.1109,2.1109,2.0462,1.9164,1.7619,1.6333,1.5038,1.4777,1.4777,0.0,1.7619,1.878,1.9164,2.0462,2.0982,2.1109,2.1109,2.1109,2.1109,2.1109,2.1089,2.1069,2.1069,2.0535,1.988,1.9846,1.9391,1.9488,2.1737,2.1957,2.2154,2.4796,2.5838,2.6403,2.7533,2.7873,2.802,2.802,2.802,2.7891,2.7598,2.7469,2.758,2.7417,2.7443,2.7589,2.7838,2.8215,2.8327,2.7948,2.784,2.7497,2.6843,2.6334,2.639,2.6993,2.9055,3.0639,3.1432,3.4586,3.6693,3.7348,3.82,3.9433,4.0979,4.096,4.2106,4.4605,4.4855,4.6232,4.8521,4.9238,5.0789,2.3024,2.3138,2.3138,2.3138,2.317,2.3048,2.2902,2.2447,2.1924,2.1768,2.1266,2.0559,1.9429,1.8912,1.8419,1.8026,1.8338,1.905,2.0012,2.0386,2.0941,2.1747,2.1955,2.2199,0.0,0.0,2.2243,2.1977,2.1578,2.1236,2.1116,2.1109,2.1109,2.1109,2.1109,2.1109,2.1109,2.1109,2.1109,2.1109,2.0202,1.9553,1.8908,1.6716,1.5944,1.6073,1.5298,1.5814,0.0,1.8518,1.9036,1.9164,2.0589,2.0075,1.878,2.0462,2.0589,1.9947,2.0849,2.0875,2.0581,2.0341,1.9866,1.9358,1.9721,1.9383,1.9253,2.0857,2.109,2.1321,2.3481,2.496,2.5911,2.6444,2.7263,2.7762,2.6762,2.7142,2.7401,2.6294,2.6779,2.7151,2.6172,2.69,2.7521,2.7427,2.7659,2.7838,2.767,2.7576,2.7445,2.7124,2.6537,2.6541,2.7438,2.952,3.0961,3.1612,3.4393,3.6247,3.6684,3.7428,3.8711,4.0453,4.0418,4.1321,4.3138,4.3661,4.5251,4.7747,4.8481,5.008,2.2244,2.2441,2.2526,2.2526,2.2655,2.2857,2.2564,2.1841,2.1275,2.1275,2.0624,1.9878,1.9399,1.8784,1.8139,1.7654,1.8208,1.8783,1.9401,2.0113,2.0927,2.1803,2.2096,2.2522,2.3097,2.278,2.2284,2.1686,2.1363,2.1203,2.1116,2.1109,2.1109,2.1109,2.1109,2.1109,2.1109,2.1109,2.1109,2.1109,1.9686,1.878,1.8396,1.6457,1.5814,1.6333,1.6203,1.7232,0.0,1.9425,1.968,1.9686,2.0202,1.9297,1.7876,1.9814,1.9814,1.9164,2.0589,2.071,2.0235,2.0034,1.9425,1.8957,1.9292,1.9069,1.8851,2.0081,2.0698,2.1174,2.2447,2.3787,2.4786,2.4786,2.566,2.6286,2.5032,2.5529,2.5912,2.4695,2.5798,2.6415,2.5317,2.6424,2.7297,2.7073,2.7297,2.7521,2.7521,2.7414,2.7331,2.7343,2.6628,2.6659,2.7846,2.9429,3.0807,3.1645,3.4142,3.5861,3.6248,3.71,3.8316,3.9907,4.02,4.1039,4.2458,4.3503,4.5339,4.7711,4.8384,4.9844,2.1841,2.2227,2.2526,2.2526,2.2655,2.2659,2.1778,2.089,2.0339,2.0339,1.9709,1.9312,1.9668,1.9124,1.8352,1.7738,1.8293,1.8911,1.8878,2.0254,2.1299,2.1621,2.2295,2.2727,2.3049,2.2716,2.225,2.1706,2.155,0.0,2.1122,2.1109,2.1109,2.1109,2.1109,2.1109,2.1109,2.1109,2.1109,2.1109,1.9686,1.8262,1.6974,1.6974,1.6203,1.5038,1.7748,1.8908,0.0,2.0462,2.1109,2.0982,1.9553,1.9036,1.9036,1.9036,1.9036,1.9164,2.0589,2.0856,2.055,2.0276,1.9613,1.8716,1.8456,1.8189,1.8374,1.9797,2.1244,2.2442,2.245,2.282,2.3076,2.3076,2.3201,2.3201,2.3076,2.3201,2.3201,2.3076,2.4201,2.5071,2.5071,2.6197,2.7073,2.7073,2.7297,2.7521,2.7521,2.7513,2.7373,2.7016,2.639,2.638,2.7623,2.8458,2.9597,3.1148,3.3663,3.5521,3.6284,3.7316,3.8466,3.9581,4.0383,4.1689,4.3476,4.5468,4.7297,4.9088,4.9614,5.0675,2.1168,2.1556,2.165,2.165,2.2046,2.2427,2.214,2.1169,2.0598,2.1516,1.9796,1.8831,2.0858,1.9391,1.8309,1.9449,1.9608,1.9737,2.0491,2.0879,2.1427,2.222,2.2536,2.2609,0.0,0.0,2.1815,2.1672,2.1363,2.1209,2.1116,2.1109,2.1109,2.1109,2.1109,2.1109,2.1109,2.1109,2.0589,1.968,1.8267,1.6845,1.5554,1.452,1.439,1.4907,1.5814,1.6716,1.7619,1.8139,1.7748,1.6845,1.749,1.7103,1.6457,1.8262,1.9036,1.9164,2.0589,2.073,2.027,1.973,1.9082,1.8449,1.7933,1.7675,1.7817,1.8626,1.9242,1.9904,2.0951,2.1321,2.1396,2.1396,2.2295,2.2827,2.195,2.2452,2.3076,2.3076,2.4201,2.5071,2.5071,2.5823,2.6571,2.7073,2.6059,2.5676,2.7056,2.6432,2.6139,2.7022,2.6194,2.5754,2.6154,2.7401,2.8385,2.906,3.121,3.2967,3.4307,3.5445,3.6762,3.8452,3.9495,4.0756,4.2488,4.3598,4.5497,4.8126,4.99,5.1245,1.9837,2.0311,2.0699,2.0699,2.1294,2.1666,2.1287,2.0706,2.0408,2.0933,1.9706,1.9163,2.1256,2.0077,1.9184,2.0108,2.0186,2.0301,2.0713,2.1047,0.0,2.2262,2.2366,0.0,0.0,2.1717,2.1563,2.1626,2.147,2.1229,2.1229,2.1229,2.1235,2.1109,2.1109,2.0849,2.0329,2.0335,1.9559,1.8267,1.7361,1.6592,1.5684,1.4777,1.4907,1.5684,1.5684,1.6203,0.0,1.698,1.6462,1.5814,1.6721,1.6457,1.5944,1.8133,1.9036,1.9152,2.0346,2.0453,1.9865,1.9229,1.8551,1.7946,1.7651,1.7551,1.7702,1.804,1.8215,1.8576,1.9587,1.9749,1.9645,1.9754,2.0401,2.0803,2.0036,2.0563,2.1188,2.1188,2.2305,2.3179,2.3179,2.3931,2.4925,2.5928,2.5056,2.4933,2.6822,2.6197,2.5766,2.6498,2.5547,2.4907,2.4919,2.6299,2.7537,2.8055,3.011,3.1805,3.3232,3.4808,3.6236,3.7617,3.8801,4.0107,4.1232,4.2363,4.4214,4.6885,4.8306,4.9726,0.0,1.8743,1.9733,1.9709,2.0256,2.0509,1.9641,1.9853,0.0,1.922,1.9462,2.0136,2.1298,2.1263,2.0711,2.0074,2.0409,2.0634,2.0176,2.0767,0.0,0.0,2.2111,0.0,2.1607,2.1607,2.1607,2.1607,2.1607,2.1607,2.1607,2.1607,2.1355,2.1109,2.0982,2.0329,1.9036,1.9036,1.839,1.698,1.685,1.6845,1.6845,1.6716,1.6721,0.0,1.6721,1.6721,1.6716,1.6845,1.6845,1.685,1.6974,1.7103,1.7232,1.8524,1.9036,1.9261,1.9901,1.9929,1.9572,1.8663,1.794,1.7485,1.7485,1.7654,1.7853,1.7889,1.8064,1.8245,1.8281,1.8024,1.7819,1.8078,1.7908,1.7742,1.7982,1.8033,1.8033,1.8162,1.9164,2.0036,2.029,2.1288,2.2659,2.4409,2.454,2.5048,2.67,2.6302,2.5651,2.5555,2.4483,2.3787,2.3881,2.5409,2.6798,2.7706,2.9766,3.1472,3.2606,3.4657,3.6084,3.6846,3.8477,3.9544,4.0032,4.1512,4.3284,4.5349,4.5425,4.6679,1.7695,0.0,1.8962,1.8692,1.8956,1.9469,0.0,1.9579,1.9686,2.1582,2.0774,2.0655,2.3456,2.2595,2.1778,2.2646,2.2577,2.2169,2.2042,2.2385,0.0,2.209,2.2362,2.2237,2.1607,2.1859,2.1859,2.1607,2.1607,2.1607,2.1607,2.1362,2.1235,2.1109,2.0075,1.9291,1.9036,1.9036,1.839,1.6974,1.5944,1.5429,1.5298,1.4263,1.3744,1.3744,1.3744,1.3744,1.3875,1.4907,1.5429,1.5559,1.6592,1.7619,1.8524,1.8908,1.9559,2.0176,2.0158,1.9805,1.9206,1.8294,1.7815,1.7485,1.7485,1.7527,1.766,1.7827,1.7576,1.7296,1.7451,1.7276,1.7184,1.7449,1.7662,1.7742,1.7982,1.8033,1.8285,1.9285,1.9789,2.0543,2.2438,2.2438,2.2695,2.471,2.3464,2.3098,2.5349,2.3741,2.2926,2.4314,2.2917,2.203,2.2258,2.3447,2.4778,2.5826,2.6399,2.7633,2.9651,3.1065,3.2833,3.4947,3.75,3.9212,3.9994,4.0863,4.191,4.3136,4.4096,4.5237,1.8049,1.8419,1.8978,1.8788,1.9345,1.9954,1.9954,2.0195,2.0702,2.2057,2.1354,2.1172,2.3198,2.2552,2.1941,2.2472,2.256,2.2552,0.0,0.0,2.2738,2.2111,2.2362,2.2362,0.0,2.2111,2.2237,2.2111,2.1859,2.1859,2.1859,2.1488,2.0976,2.0202,1.9425,1.8652,1.8133,1.8139,1.7103,1.5038,1.5554,1.5554,1.4907,1.4132,1.3744,1.3744,1.3095,1.2836,1.2836,1.3617,1.4006,1.4132,1.5424,1.6457,1.7232,1.7613,1.8186,1.856,1.7923,1.769,1.7457,1.7057,1.7002,1.725,1.725,1.7132,1.7067,1.7355,1.7113,1.6843,1.688,1.681,1.6734,1.6993,1.7116,1.7229,1.7082,1.7136,1.7254,1.7619,1.7876,1.8512,1.9382,1.9394,1.9776,2.14,2.0524,2.0611,2.3103,2.1821,2.0992,2.1908,2.066,1.9787,1.999,2.0566,2.1862,2.4202,2.4959,2.5906,2.7349,2.9188,3.1241,3.369,3.5527,3.661,3.7062,3.7616,3.8844,4.0411,4.1038,4.2358,1.8406,1.8666,1.9154,1.8902,1.9694,2.0347,1.9579,2.0474,2.1581,2.156,2.1389,2.1439,2.2084,2.2013,0.0,2.1263,0.0,0.0,2.2327,2.2441,2.2606,2.2237,2.2487,0.0,2.2237,2.2487,2.2613,2.2606,2.223,2.2111,2.2111,2.1475,2.0576,1.9036,1.878,1.8005,1.6721,1.6845,1.5814,1.3486,1.5684,1.6073,1.4907,1.4651,1.452,1.452,0.0,0.0,1.2836,1.2964,1.3095,1.3227,1.4651,1.5163,1.5294,1.6058,1.6295,1.6187,1.5556,1.5566,1.593,1.5811,1.6301,1.702,1.6903,1.6661,1.6543,1.6785,1.6667,1.6431,1.6465,1.6275,1.6254,1.6489,1.6484,1.6344,1.5923,1.5844,1.5714,1.5062,1.5323,1.5578,1.5183,1.5443,1.6208,1.7323,1.7317,1.8238,2.0588,2.0028,1.9195,1.8796,1.7882,1.7273,1.7267,1.7302,1.8608,2.1489,2.3365,2.4675,2.527,2.7423,2.9666,3.1671,3.2375,3.2736,3.2767,3.3209,3.4582,3.6991,3.7109,3.8228,1.7457,1.8,1.8297,1.745,1.7305,1.7527,1.8281,1.8719,1.9431,2.085,2.0881,2.0997,2.213,2.244,2.2445,0.0,0.0,2.2671,0.0,0.0,2.2981,2.2981,0.0,2.2856,2.2613,2.2863,2.2863,2.2606,2.223,2.2111,2.2111,2.0316,1.9291,1.9036,1.7876,1.6586,1.5298,1.6462,1.6716,1.6333,1.5554,1.5168,1.4907,1.3613,1.3095,1.3095,0.0,1.2836,1.2836,1.4132,1.452,1.4651,1.5804,1.6188,1.6188,1.6048,1.6423,1.7058,1.7358,1.7369,1.7126,1.6897,1.6903,1.6903,1.6661,1.6431,1.62,1.6205,1.62,1.6126,1.6085,1.5555,1.5151,1.5499,1.5216,1.4928,1.5014,1.5062,1.5062,1.4931,1.48,1.4917,1.5669,1.5409,1.5664,1.7194,1.7194,1.7235,1.7856,1.6772,1.606,1.6145,1.4741,1.4152,1.4619,1.4666,1.4781,1.5044,1.8592,2.099,2.1888,2.3056,2.4479,2.6027,2.6722,2.7783,2.9338,2.8889,2.9823,3.1777,3.2529,3.2997,1.7781,1.8003,1.7918,1.7472,1.8222,1.9003,1.8897,1.9346,2.0135,2.1335,2.0736,2.0337,2.1312,0.0,2.1608,2.2462,0.0,2.2937,2.3091,2.3106,2.3106,0.0,0.0,2.2981,2.2863,2.2856,2.2731,2.2613,2.2111,2.1468,2.0696,1.9674,1.8652,1.7876,1.6586,1.5944,1.6073,1.5944,1.5424,1.4782,1.4912,1.452,1.3744,1.3095,1.2836,1.2836,0.0,1.2836,1.2836,1.3354,1.3481,1.3481,1.3862,1.3853,1.3831,1.3363,1.316,1.3332,1.3409,1.3846,1.4123,1.4013,1.4619,1.5343,1.5219,1.5224,1.5235,1.5235,1.5235,1.5256,1.5241,1.4877,1.4382,1.4602,1.463,1.4515,1.3967,1.407,1.3879,1.3358,1.3354,1.3608,1.3726,1.3722,1.3674,1.3281,1.3631,1.3811,1.3613,1.3474,1.3261,1.3193,1.2367,1.1707,1.1071,1.102,1.1756,1.3697,1.475,1.585,1.7027,1.7321,1.7304,1.6598,1.8095,1.9202,2.0166,1.8094,2.0623,2.7213,2.1553,2.095,1.7783,1.771,1.7623,1.7623,1.8844,1.9873,1.931,1.9813,2.0606,2.1328,2.0476,1.9823,2.0558,2.0704,0.0,2.244,2.2901,2.3106,2.3106,2.3106,2.3106,2.3106,2.3106,2.3106,2.2981,2.2731,2.2606,2.248,2.1594,2.0696,1.9534,1.8902,1.7876,1.6592,1.5814,1.5554,1.6073,1.5298,1.439,1.3358,1.4394,1.4132,1.2836,1.2836,1.2836,1.2836,1.2836,1.2704,1.2704,1.2441,1.2309,1.2173,1.1735,1.1567,1.137,1.1209,1.0771,1.0394,1.0598,1.1016,1.1611,1.1491,1.2457,1.366,1.3421,1.366,1.378,1.3775,1.366,1.3665,1.4272,1.3825,1.3242,1.3242,1.3126,1.2731,1.197,1.1942,1.178,1.0909,1.1311,1.1578,1.1194,1.1585,1.1523,0.9932,1.0006,1.0323,1.017,1.0097,1.0066,0.9926,0.9415,0.8311,0.6584,0.646,0.7378,0.9794,0.9679,1.0093,1.1328,1.0615,0.9058,0.6443,0.806,0.8369,0.7266,0.4745,0.7834,1.5948,0.6863,0.5361,1.6557,1.68,1.7036,1.7036,1.7168,1.7527,1.8405,1.8781,1.9221,2.0153,2.0001,1.9898,2.0214,2.0962,2.1847,2.2513,2.2901,2.3106,2.3106,0.0,2.3106,2.3106,2.3106,2.2988,2.2606,2.2606,2.248,2.2111,2.0563,1.9668,1.954,1.7999,1.6457,1.5038,1.6203,1.5684,1.3095,1.4263,1.4907,1.4782,1.4907,1.4132,1.2836,1.2836,1.2836,1.2836,1.2836,1.2572,1.2309,1.2309,1.2177,1.1765,1.1218,1.0812,1.0545,1.1487,1.1653,1.1491,1.2647,1.2808,1.256,1.2209,1.2213,1.2213,1.1611,1.1491,1.1366,1.1117,1.0638,1.0649,1.308,1.2235,1.0758,1.0758,0.9252,0.7962,0.7834,0.7842,0.7881,0.786,0.8288,0.8822,0.8827,0.9487,0.9964,0.9822,0.8622,0.8049,0.9059,0.6899,0.5489,0.6147,0.4908,0.3185,0.1221,0.0733,-0.0123,-0.1862,0.1611,0.4112,0.5045,0.2684,-0.0127,-0.3112,-0.3109,-0.5083,-0.9174,-0.9705,-0.965,-0.9122,-1.1528,-1.3051,1.5453,1.619,1.6856,1.6947,1.7036,1.7288,1.844,1.8977,1.9308,2.0077,2.0142,2.0216,0.0,0.0,2.1898,2.252,2.2725,2.2879,2.3084,2.3106,2.3106,2.3106,2.2856,2.2731,2.2613,2.1423,2.044,2.0315,1.8632,1.7161,1.6407,1.5782,1.5214,1.4704,1.4456,1.4262,1.4132,1.3744,1.3613,1.3613,1.3613,1.3354,1.2836,1.2836,1.2836,1.2836,1.2572,1.2441,1.2301,1.1668,1.1363,1.1214,1.0802,1.0393,1.0127,1.044,1.0352,1.0138,1.044,1.0297,0.993,0.9684,0.9926,1.0283,0.9795,1.0037,1.0286,1.0162,0.9434,0.8948,1.0272,0.9832,0.8778,0.8407,0.7757,0.734,0.7857,0.8047,0.7852,0.6988,0.6999,0.7131,0.6739,0.5955,0.5925,0.7,0.6004,0.4961,0.4473,0.3996,0.3368,0.2574,0.0122,-0.2193,-0.3879,-0.5802,-0.7758,-0.9798,-0.6726,-0.4815,-0.4795,-0.8245,-1.1709,-1.5161,-1.6757,-1.8255,-1.9757,-2.3983,-2.284,-1.6779,-2.5232,-2.7383,1.5432,1.6183,1.6981,1.7357,1.7308,1.7604,1.888,1.9248,1.9491,2.023,2.0391,2.0559,2.1108,0.0,0.0,0.0,2.2564,2.2732,2.3062,2.3018,2.2959,2.2835,2.2624,2.2189,2.1424,2.012,1.902,1.8398,1.6734,1.5406,1.4418,1.4418,1.4229,1.3861,1.3361,1.3456,1.4164,1.3265,1.2779,1.2836,1.2704,1.2704,1.2836,1.2836,1.2704,1.2572,1.2441,1.2146,1.1822,1.1315,1.0823,1.0597,1.0246,0.9988,0.9731,0.9487,0.918,0.8973,0.8854,0.8491,0.8,0.7875,0.8113,0.8474,0.8099,0.8343,0.8711,0.8343,0.7612,0.6999,0.6989,0.6869,0.6757,0.639,0.5945,0.5617,0.6125,0.6177,0.5847,0.4852,0.4471,0.4216,0.3831,0.2933,0.2664,0.3252,0.2642,0.1758,0.0492,0.0248,-0.0742,-0.2796,-0.5093,-0.7496,-0.9839,-1.2286,-1.4823,-1.7325,-1.7274,-1.6232,-1.4194,-1.7768,-2.2057,-2.6593,-2.8836,-3.0813,-3.273,-3.7754,-3.6791,-3.0474,-4.0109,-4.2231,1.671,1.7169,1.7516,1.8112,1.8057,1.816,1.9462,1.9506,1.9557,2.0523,2.0728,2.0823,2.1152,2.1211,0.0,2.2074,2.2425,2.2725,2.3054,2.282,2.25,2.2263,2.2125,2.1314,1.896,1.9088,1.8478,1.6511,1.5157,1.4413,1.4413,1.4418,1.3797,1.2308,1.3676,1.3766,1.2564,1.2564,1.2653,1.2832,1.2437,1.2437,1.2836,1.2836,1.2572,1.2305,1.2305,1.1811,1.1005,1.1005,1.0565,0.9925,0.9676,0.9464,0.9217,0.8976,0.8732,0.8369,0.8369,0.8,0.7385,0.7385,0.7143,0.6775,0.6403,0.6403,0.6158,0.5172,0.4802,0.4558,0.333,0.3697,0.4432,0.5049,0.3576,0.1977,0.1977,0.1482,0.0992,0.1008,0.0379,-0.0,0.0,0.063,0.0626,-0.1107,-0.1471,-0.1714,-0.2071,-0.4645,-0.7567,-1.0379,-1.0952,-1.2813,-1.7008,-1.8798,-2.1301,-2.5138,-3.0411,-3.011,-2.2518,-2.542,-3.0437,-3.706,-3.8372,-4.2467,-4.9352,-5.0767,-5.2132,-5.3525,-5.6654,-5.8125,1.5455,1.6378,1.7409,1.7559,1.7696,1.813,1.8942,1.936,1.9894,2.0867,2.1064,2.1094,2.1196,2.1211,0.0,2.1774,2.1913,2.2081,2.241,2.2374,2.206,2.132,2.0625,1.9587,1.8349,1.6597,1.5401,1.4794,1.3455,1.2726,1.2726,1.2854,1.2737,1.2483,1.2867,1.302,1.2564,1.2306,1.2145,1.2078,1.1822,1.1945,1.2437,1.2049,1.1865,1.1728,1.1357,1.1155,1.0845,1.0478,0.9942,0.9522,0.9403,0.9255,0.8976,0.8613,0.8366,0.7997,0.7752,0.6766,0.5657,0.5414,0.4677,0.3693,0.3446,0.3199,0.2829,0.2584,0.1969,0.1354,0.0985,0.0369,0.0123,0.0984,0.0123,-0.0862,-0.0861,-0.0984,-0.1478,-0.2846,-0.3344,-0.3592,-0.4088,-0.4705,-0.5313,-0.5904,-0.6363,-0.7407,-0.9367,-1.1418,-1.3654,-1.6418,-1.8207,-2.0648,-2.4149,-2.7002,-3.0199,-3.3969,-3.7763,-3.7421,-3.2252,-3.6792,-4.0507,-4.2858,-4.6478,-4.9553,-5.2235,-5.4961,-5.6481,-5.6874,-5.8664,-5.9523,1.5511,1.6338,1.7355,1.78,1.8011,1.8267,1.9045,1.9579,2.0186,0.0,2.1108,2.1057,2.1189,2.1101,0.0,2.162,2.1693,2.1685,2.1639,2.1575,2.1005,1.9653,1.8955,1.7919,1.6343,1.4882,1.3844,1.3256,1.2411,1.1926,1.1926,1.2036,1.2174,1.2345,1.2288,1.2316,1.2331,1.2008,1.183,1.1545,1.1296,1.1268,1.1713,1.1611,1.1437,1.1298,1.076,1.0185,0.9664,0.9771,0.9539,0.9217,0.9095,0.8854,0.861,0.7625,0.7133,0.6764,0.5902,0.4918,0.3936,0.3692,0.2954,0.2093,0.1846,0.1229,0.0491,0.0246,-0.0737,-0.1595,-0.2084,-0.3066,-0.3683,-0.258,-0.3072,-0.4298,-0.5888,-0.6254,-0.6621,-0.7723,-0.7967,-0.7967,-0.8578,-0.8696,-0.9294,-1.0474,-1.1975,-1.3692,-1.5284,-1.7285,-1.9591,-2.208,-2.508,-2.8066,-3.1218,-3.4395,-3.7528,-4.0894,-4.3816,-4.4605,-4.2806,-4.4987,-4.684,-4.8148,-5.1723,-5.4163,-5.5262,-5.8008,-5.9338,-5.937,-6.03,-6.0726,1.6264,1.6749,1.7239,1.8347,1.8547,1.8628,1.955,1.9989,2.0377,2.1035,0.0,2.0859,2.1159,2.0856,2.0849,2.1438,2.1416,2.1267,2.0695,2.0251,1.9358,1.7565,1.7233,1.6144,1.3784,1.3775,1.3301,1.1893,1.1792,1.1801,1.1801,1.1817,1.1898,1.1925,1.1906,1.1725,1.1775,1.1491,1.1234,1.0991,1.0742,1.0489,1.0359,1.0756,1.0753,1.0352,0.9962,0.915,0.814,0.8894,0.9217,0.9217,0.8613,0.8247,0.7875,0.6027,0.5287,0.492,0.3196,0.246,0.2092,0.1969,0.1353,0.0738,0.0738,-0.0368,-0.1714,-0.2449,-0.3547,-0.476,-0.5734,-0.6945,-0.7556,-0.6598,-0.6614,-0.7972,-1.1922,-1.2794,-1.2902,-1.3093,-1.2835,-1.2822,-1.3292,-1.2132,-1.2289,-1.5411,-1.8428,-2.0288,-2.0619,-2.2832,-2.5385,-2.8071,-3.1552,-3.4959,-3.7991,-4.0982,-4.3717,-4.6142,-4.8827,-5.1124,-5.2989,-5.0584,-5.0312,-5.268,-5.4839,-5.662,-5.8039,-6.0011,-6.0958,-6.0982,-6.1467,-6.1659,1.5547,1.6281,1.707,1.7552,1.8354,1.9191,1.9659,1.9813,2.0047,2.0698,2.0976,2.1123,2.1196,2.0573,1.9991,2.0238,1.9549,1.9089,1.8914,1.8393,1.7651,1.6482,1.5467,1.4361,1.3075,1.2483,1.213,1.1776,1.1902,1.1975,1.1975,1.2113,1.2085,1.1866,1.1834,1.1658,1.1223,1.0937,1.0122,0.8919,0.8673,0.7934,0.6946,0.8284,0.8149,0.6943,0.7664,0.7779,0.7654,0.8616,0.8861,0.8625,0.8506,0.7266,0.5416,0.4923,0.4062,0.2952,0.1473,0.0123,-0.1228,-0.2451,-0.3676,-0.4784,-0.503,-0.5517,-0.6365,-0.7677,-0.84,-0.9245,-1.0666,-1.3048,-1.4961,-1.4722,-1.2222,-1.0624,-1.3269,-1.3751,-1.4212,-1.559,-1.5926,-1.6032,-1.6943,-1.7874,-1.9675,-2.326,-2.4952,-2.6655,-2.9167,-3.0093,-3.2054,-3.6485,-3.8196,-4.0379,-4.3733,-4.6391,-4.8747,-5.0829,-5.2279,-5.3884,-5.5768,-5.4416,-5.4144,-5.5274,-5.686,-5.8162,-5.9153,-6.0709,-6.145,-6.1455,-6.1577,-6.1607,1.559,1.6225,1.6901,1.7606,1.8261,1.8674,1.8942,1.8779,1.8651,1.8975,1.9612,2.0217,2.026,1.959,1.8942,1.908,1.8745,1.8156,1.7337,1.6979,1.6155,1.4624,1.378,1.3071,1.2367,1.2014,1.1776,1.1776,1.1857,1.191,1.191,1.1872,1.1709,1.167,1.1468,1.1174,1.0918,0.9968,0.9026,0.8097,0.7365,0.639,0.5293,0.6948,0.6938,0.5653,0.6632,0.7006,0.7136,0.8247,0.8754,0.8515,0.6276,0.455,0.332,0.2829,0.1721,0.0369,-0.1105,-0.27,-0.4292,-0.5748,-0.6967,-0.8066,-0.9359,-1.0994,-1.2495,-1.3869,-1.5357,-1.6718,-1.7862,-1.9925,-2.186,-2.2413,-1.964,-1.7291,-1.8777,-1.9539,-2.0391,-2.1539,-2.1961,-2.2622,-2.4012,-2.65,-2.8833,-3.0838,-3.2072,-3.3419,-3.5228,-3.6668,-3.8448,-4.1185,-4.3787,-4.6175,-4.8208,-5.0354,-5.2254,-5.3695,-5.4306,-5.5189,-5.6466,-5.5943,-5.5788,-5.6201,-5.7383,-5.8234,-5.8695,-5.9832,-6.0602,-6.0977,-6.0977,-6.1205,1.5736,1.6134,1.6543,1.7666,1.781,1.7711,1.7765,1.7329,1.6971,1.6971,1.7889,1.8863,1.9009,1.8253,1.7634,1.7859,1.7701,1.7032,1.5746,1.5429,1.4743,1.296,1.2603,1.2367,1.1897,1.1776,1.1776,1.1776,1.1776,1.1651,1.1651,1.1398,1.1217,1.1237,1.0734,1.0243,1.0129,0.8769,0.7858,0.737,0.5898,0.4798,0.407,0.5548,0.5667,0.4676,0.5776,0.6272,0.6405,0.7021,0.7521,0.7529,0.3566,0.1475,0.0737,-0.0123,-0.1229,-0.2454,-0.4055,-0.577,-0.7347,-0.8899,-1.0091,-1.1268,-1.3668,-1.6477,-1.9016,-2.0448,-2.2618,-2.4836,-2.5841,-2.7522,-2.9051,-3.0112,-2.8945,-2.7171,-2.6178,-2.694,-2.8021,-2.8748,-2.9452,-3.061,-3.2587,-3.5607,-3.7905,-3.8176,-3.9412,-4.0368,-4.0529,-4.2586,-4.4225,-4.4817,-4.8372,-5.0995,-5.1736,-5.3237,-5.4482,-5.5303,-5.546,-5.5787,-5.6316,-5.6328,-5.6322,-5.6322,-5.7308,-5.7792,-5.7793,-5.8667,-5.9425,-6.0087,-6.0087,-6.0457,1.5214,1.5349,1.5591,1.6071,1.6425,1.6626,1.6884,0.0,1.6022,0.0,1.6976,1.7922,1.7961,1.6724,1.5716,1.575,1.4782,1.3986,1.3756,1.3442,1.3075,1.2719,1.2247,1.1897,1.1776,1.1776,1.1776,1.1776,1.1522,1.1398,1.1398,1.1031,1.08,1.0458,0.9329,0.8474,0.825,0.7635,0.653,0.5053,0.333,0.2098,0.1481,0.2346,0.2346,0.1727,0.4067,0.5179,0.5056,0.3444,0.3198,0.3571,0.2461,-0.0369,-0.3696,-0.382,-0.4553,-0.5525,-0.7113,-0.8566,-1.0119,-1.3095,-1.5413,-1.7335,-1.9432,-2.1861,-2.4316,-2.6409,-2.8299,-3.0493,-3.3307,-3.6015,-3.8147,-3.8779,-4.1022,-4.1051,-3.3925,-3.2802,-3.3661,-3.5059,-3.6766,-3.8601,-4.0583,-4.2283,-4.3866,-4.5159,-4.6045,-4.6725,-4.719,-4.7543,-4.8544,-5.0544,-5.1338,-5.24,-5.411,-5.4776,-5.5249,-5.5545,-5.5901,-5.6221,-5.6454,-5.6465,-5.6464,-5.6464,-5.7343,-5.7792,-5.7792,-5.8627,-5.9072,-5.917,-5.917,-5.9239,1.5088,1.5481,1.5876,1.5757,1.5675,1.5719,1.5737,1.5352,1.4815,1.4487,1.4875,1.5291,1.5637,1.4776,1.3928,1.406,1.3595,1.3081,1.2735,1.2579,1.2281,1.1925,1.1581,1.1508,1.161,1.1622,1.1539,1.1514,1.1398,1.1273,1.1031,1.0051,0.9319,0.9198,0.7728,0.7123,0.7505,0.6283,0.4685,0.259,0.2223,0.1853,0.1482,-0.2324,-0.2201,0.0986,0.1478,0.2462,0.3696,0.1474,-0.0491,-0.2092,-0.2828,-0.4307,-0.6039,-0.554,-0.6113,-0.7389,-0.9387,-1.131,-1.3634,-1.704,-1.9355,-2.1177,-2.3491,-2.6282,-2.9236,-3.1742,-3.4152,-3.6576,-3.9113,-4.1708,-4.3739,-4.417,-4.6602,-4.782,-4.445,-4.2401,-4.1425,-4.2401,-4.4036,-4.5569,-4.6547,-4.7967,-4.923,-4.9898,-5.0286,-5.0601,-5.0972,-5.1284,-5.1911,-5.3002,-5.3627,-5.4309,-5.5133,-5.563,-5.596,-5.6098,-5.6239,-5.6365,-5.6484,-5.6499,-5.651,-5.6493,-5.6878,-5.7067,-5.7074,-5.7441,-5.7821,-5.8276,-5.8276,-5.8529,1.475,1.5094,1.5313,1.5004,1.4779,1.4602,0.0,0.0,1.347,0.0,1.2767,1.2816,1.3177,1.288,1.2497,1.2655,1.2611,1.242,1.1959,1.1884,1.1799,1.1224,1.1224,1.1277,1.1298,1.1314,1.1126,1.0651,1.0539,1.0296,0.9696,0.8365,0.764,0.764,0.6315,0.5837,0.6458,0.4752,0.2805,0.0732,0.1221,0.0732,-0.0975,-0.6402,-0.6157,-0.158,-0.1831,-0.0854,0.073,-0.1462,-0.378,-0.6098,-0.6579,-0.6941,-0.7301,-0.7263,-0.8158,-0.9728,-1.2103,-1.4585,-1.7095,-2.026,-2.2854,-2.5173,-2.7788,-3.1252,-3.4699,-3.7197,-3.9879,-4.251,-4.4409,-4.6295,-4.7949,-4.8879,-5.0496,-5.1862,-5.1893,-4.9853,-4.8238,-4.8887,-5.0008,-5.0952,-5.1331,-5.2463,-5.3377,-5.3533,-5.3572,-5.3648,-5.3851,-5.4206,-5.4534,-5.4669,-5.5353,-5.5794,-5.5794,-5.6182,-5.6458,-5.6502,-5.6444,-5.6456,-5.6507,-5.6501,-5.6504,-5.6491,-5.6491,-5.6491,-5.6491,-5.6508,-5.6814,-5.7399,-5.7399,-5.773,1.3831,1.335,1.2887,1.3171,1.3219,1.3159,0.0,0.0,1.2103,1.1746,1.124,1.0802,1.092,1.1362,1.1695,1.1704,1.1312,1.1093,1.1097,1.1122,1.122,1.1224,1.1224,1.1109,1.089,1.0894,1.0196,0.88,0.8454,0.7752,0.6581,0.6116,0.5883,0.5883,0.5066,0.4599,0.4599,0.2951,0.1417,0.0,0.0118,-0.2833,-0.8304,-0.8775,-0.8762,-0.8278,-0.5741,-0.4775,-0.5081,-0.6109,-0.657,-0.6481,-0.5886,-0.635,-0.7633,-1.0104,-1.1806,-1.3306,-1.6192,-1.8475,-2.0604,-2.2711,-2.6193,-3.0253,-3.3093,-3.7433,-4.1538,-4.2815,-4.524,-4.7814,-4.9567,-5.0263,-5.1144,-5.3697,-5.4407,-5.4104,-5.2657,-5.2261,-5.251,-5.3556,-5.3726,-5.3998,-5.504,-5.5396,-5.5683,-5.6128,-5.6196,-5.6216,-5.621,-5.6255,-5.6274,-5.6274,-5.6319,-5.6363,-5.6363,-5.6442,-5.6504,-5.6502,-5.6493,-5.6498,-5.6509,-5.6503,-5.6492,-5.6492,-5.6492,-5.6492,-5.6492,-5.6511,-5.6522,-5.6561,-5.6561,-5.658,1.2309,1.2235,1.2204,1.1788,1.189,1.2038,1.1991,1.2038,1.1854,1.1287,1.1089,1.0771,1.0457,1.0754,1.1021,1.1021,1.0859,1.0794,1.0794,1.0842,1.054,0.9633,0.9521,0.9106,0.8169,0.8064,0.7755,0.7142,0.7031,0.6684,0.5985,0.505,0.47,0.4938,0.3531,0.2826,0.2944,0.1414,0.0471,-0.0,-0.3887,-0.685,-0.888,-0.8878,-0.835,-0.7415,-0.7555,-0.7127,-0.6237,-0.697,-0.7194,-0.7275,-0.8543,-0.991,-1.1371,-1.2942,-1.4521,-1.6241,-1.9128,-2.1275,-2.3247,-2.7348,-3.0854,-3.392,-3.6324,-3.9642,-4.2869,-4.4518,-4.644,-4.8412,-5.0251,-5.1093,-5.1974,-5.4023,-5.4574,-5.4605,-5.4533,-5.4568,-5.4652,-5.4775,-5.4804,-5.487,-5.5085,-5.5143,-5.5249,-5.5462,-5.5636,-5.5792,-5.5871,-5.6046,-5.6149,-5.6149,-5.6149,-5.6191,-5.6324,-5.6246,-5.6277,-5.6493,-5.643,-5.6417,-5.6496,-5.65,-5.6503,-5.6503,-5.6503,-5.6503,-5.6503,-5.6503,-5.6503,-5.6503,-5.6503,-5.6503,1.1226,1.1297,1.1429,1.1024,1.108,1.134,1.1249,1.1355,1.1241,1.0535,1.0406,1.0156,0.953,0.9602,0.9772,1.0155,1.021,1.0025,0.9581,0.9467,0.9023,0.7913,0.7692,0.739,0.6343,0.6238,0.6041,0.5422,0.5426,0.5082,0.4508,0.3586,0.3241,0.3589,0.1505,-0.0116,-0.1043,-0.1389,-0.1504,-0.1504,-0.5563,-0.7901,-0.8951,-0.894,-0.8307,-0.7503,-0.9072,-0.8781,-0.7497,-0.8338,-0.8899,-0.9418,-1.1564,-1.3,-1.3966,-1.6041,-1.7521,-1.9197,-2.2933,-2.5054,-2.6817,-3.1575,-3.4854,-3.7252,-3.9349,-4.2183,-4.4929,-4.6411,-4.7844,-4.9209,-5.0517,-5.1401,-5.2264,-5.3416,-5.4148,-5.473,-5.5128,-5.5508,-5.5707,-5.5474,-5.5356,-5.5258,-5.5171,-5.5111,-5.5102,-5.5186,-5.5436,-5.5634,-5.5724,-5.5901,-5.6005,-5.6005,-5.6005,-5.6049,-5.6197,-5.6077,-5.6077,-5.63,-5.6297,-5.6325,-5.6398,-5.6465,-5.6503,-5.6503,-5.6503,-5.6503,-5.6503,-5.6503,-5.6503,-5.6503,-5.6503,-5.6488,0.0,0.0,0.0,0.0,0.0,0.0,1.0839,0.0,1.0395,0.9374,0.91,0.8779,0.7941,0.7734,0.7992,0.8883,0.9138,0.8793,0.7354,0.7133,0.68,0.6248,0.6137,0.6028,0.5699,0.5699,0.5142,0.3692,0.358,0.3023,0.1907,0.1683,0.1683,0.1683,-0.1232,-0.415,-0.7209,-0.5491,-0.4583,-0.4583,-0.4583,-0.6154,-0.8863,-0.8863,-0.896,-0.9047,-1.0241,-1.0112,-0.923,-1.0727,-1.1912,-1.3038,-1.4393,-1.5022,-1.5541,-1.906,-2.0982,-2.2472,-2.7597,-2.9939,-3.1342,-3.5187,-3.7968,-4.0309,-4.2368,-4.5302,-4.8124,-4.8928,-4.9797,-5.0548,-5.0734,-5.1408,-5.2078,-5.2236,-5.3402,-5.4457,-5.4302,-5.4987,-5.5673,-5.5825,-5.5555,-5.5358,-5.5615,-5.5537,-5.5474,-5.5538,-5.5772,-5.5962,-5.5955,-5.5955,-5.5975,-5.599,-5.599,-5.599,-5.599,-5.599,-5.5955,-5.5904,-5.6149,-5.6271,-5.6207,-5.6398,-5.6503,-5.6511,-5.6503,-5.6503,-5.6511,-5.6503,-5.6503,-5.6511,-5.6492,-5.6465,0.8869,0.0,0.0,0.0,0.0,0.0,0.0,0.0,0.963,0.8813,0.8592,0.8358,0.755,0.722,0.6878,0.6495,0.712,0.7553,0.7103,0.6681,0.5943,0.4793,0.4578,0.4134,0.3024,0.2912,0.2688,0.0,0.2353,0.213,0.1795,-0.0224,-0.1232,-0.0783,-0.2462,-0.4817,-0.7759,-0.7299,-0.7296,-0.7639,-0.7736,-0.8069,-0.8863,-0.8846,-0.9379,-1.0241,-1.0781,-1.1751,-1.2935,-1.2564,-1.3078,-1.418,-1.5565,-1.7219,-1.9067,-2.1552,-2.4409,-2.7517,-3.0062,-3.2581,-3.5322,-3.9122,-4.1621,-4.3598,-4.6394,-4.8453,-4.9894,-5.0112,-5.0402,-5.0614,-5.0533,-5.0564,-5.0741,-5.142,-5.1897,-5.2507,-5.362,-5.3965,-5.4193,-5.4731,-5.4603,-5.4424,-5.4331,-5.4265,-5.427,-5.4279,-5.4446,-5.4676,-5.495,-5.5076,-5.5243,-5.5531,-5.5573,-5.5624,-5.5769,-5.5649,-5.5712,-5.609,-5.6107,-5.6181,-5.6407,-5.6464,-5.6492,-5.6508,-5.6492,-5.6492,-5.6508,-5.6492,-5.6492,-5.6508,-5.6455,-5.6417,0.8329,0.0,0.0,0.0,0.0,0.0,0.8185,0.7965,0.7739,0.0,0.6765,0.6531,0.5634,0.5379,0.5114,0.4606,0.4848,0.5129,0.5153,0.4851,0.4329,0.3172,0.3086,0.2769,0.1887,0.1228,0.0784,0.056,0.0112,0.0,0.0336,-0.2015,-0.3695,-0.4364,-0.5035,-0.6272,-0.8081,-0.8624,-0.9068,-0.9411,-1.0056,-1.0374,-1.0374,-1.0359,-1.0785,-1.1642,-1.2709,-1.4105,-1.55,-1.5795,-1.6107,-1.6529,-1.8697,-2.0452,-2.2063,-2.4745,-2.765,-3.0647,-3.3485,-3.6024,-3.8705,-4.2501,-4.4671,-4.6132,-4.8396,-4.9773,-5.0592,-5.0723,-5.0744,-5.0672,-5.0391,-5.0197,-5.021,-5.0773,-5.1038,-5.1461,-5.2428,-5.293,-5.3475,-5.4401,-5.442,-5.4231,-5.4017,-5.4106,-5.4161,-5.4,-5.4088,-5.4292,-5.4495,-5.456,-5.4716,-5.5113,-5.514,-5.5275,-5.5554,-5.5535,-5.5649,-5.5924,-5.6073,-5.6188,-5.6378,-5.6453,-5.6496,-5.6496,-5.6496,-5.6491,-5.645,-5.6484,-5.6484,-5.645,-5.6386,-5.6354,0.8313,0.8313,0.0,0.0,0.7218,0.0,0.6121,0.5686,0.545,0.0,0.4478,0.413,0.3331,0.313,0.313,0.313,0.2624,0.2247,0.2432,0.2443,0.2126,0.1384,0.1403,0.1417,0.1307,0.011,-0.089,-0.1447,-0.2558,-0.2893,-0.2451,-0.3792,-0.559,-0.7973,-0.7961,-0.8177,-0.8507,-0.9805,-1.0449,-1.0449,-1.176,-1.2417,-1.2417,-1.2413,-1.2729,-1.3249,-1.5376,-1.6535,-1.7259,-1.9678,-2.0128,-1.9531,-2.2576,-2.3881,-2.4534,-2.8202,-3.0636,-3.2714,-3.707,-3.9753,-4.1953,-4.5268,-4.7059,-4.8077,-4.914,-4.9956,-5.0602,-5.0874,-5.0828,-5.0613,-5.0278,-5.0163,-5.0163,-5.0231,-5.0556,-5.0913,-5.1101,-5.1983,-5.3125,-5.4371,-5.4554,-5.4449,-5.4281,-5.4495,-5.456,-5.4214,-5.4296,-5.4392,-5.4359,-5.433,-5.443,-5.4776,-5.4836,-5.5019,-5.539,-5.5599,-5.569,-5.5671,-5.6054,-5.6278,-5.6228,-5.6414,-5.6491,-5.6496,-5.6498,-5.6475,-5.6417,-5.647,-5.646,-5.6384,-5.6324,-5.6293,0.6602,0.6257,0.5736,0.5682,0.0,0.0,0.5744,0.5636,0.5429,0.0,0.444,0.413,0.3331,0.2826,0.2522,0.2522,0.1514,0.1017,0.1455,0.1146,0.0419,-0.0743,-0.0853,-0.1068,-0.1494,-0.1819,-0.236,-0.3328,-0.5052,-0.6063,-0.6357,-0.6691,-0.7177,-0.794,-0.893,-0.9581,-0.9801,-1.1,-1.176,-1.1978,-1.2304,-1.2417,-1.2417,-1.262,-1.3783,-1.5589,-1.6542,-1.7907,-1.9796,-2.2156,-2.2759,-2.2432,-2.3375,-2.4856,-2.6853,-2.9364,-3.2424,-3.5711,-3.8441,-4.1817,-4.5224,-4.6679,-4.8044,-4.9253,-5.0142,-5.0645,-5.0858,-5.0657,-5.0303,-5.0021,-5.0095,-4.9914,-4.9731,-4.9816,-4.9892,-5.0107,-5.0677,-5.1359,-5.2127,-5.3106,-5.3624,-5.3926,-5.3889,-5.3963,-5.3963,-5.3907,-5.3888,-5.3889,-5.4069,-5.4277,-5.4476,-5.4776,-5.5113,-5.5352,-5.5558,-5.5585,-5.575,-5.6059,-5.6181,-5.6286,-5.6444,-5.6488,-5.6503,-5.6498,-5.6497,-5.6489,-5.6481,-5.6495,-5.6445,-5.6327,-5.6301,-5.6291,0.5714,0.5438,0.5009,0.4585,0.0,0.0,0.0,0.3624,0.3525,0.3126,0.3002,0.2892,0.252,0.2204,0.1697,0.0805,0.0101,-0.0506,-0.1019,-0.0817,-0.0922,-0.1861,-0.1981,-0.22,-0.2936,-0.3273,-0.424,-0.6248,-0.7211,-0.82,-0.9009,-0.919,-0.9481,-0.9772,-1.051,-1.1,-1.1324,-1.2526,-1.3181,-1.329,-1.4567,-1.5128,-1.4895,-1.5706,-1.6736,-1.81,-1.9306,-2.0631,-2.2257,-2.4543,-2.5605,-2.5769,-2.5895,-2.6683,-2.8183,-3.1723,-3.4446,-3.6768,-4.0044,-4.3377,-4.6265,-4.7382,-4.8757,-5.0067,-5.0757,-5.0972,-5.0951,-5.0637,-5.0353,-5.0135,-5.0114,-4.9959,-4.9778,-4.9721,-4.9615,-4.9638,-4.9896,-5.0766,-5.1687,-5.227,-5.2843,-5.333,-5.3738,-5.3926,-5.4054,-5.4054,-5.4106,-5.4174,-5.4259,-5.4392,-5.4522,-5.4776,-5.5099,-5.538,-5.5566,-5.5788,-5.5998,-5.6181,-5.6286,-5.6398,-5.6488,-5.6503,-5.6504,-5.6499,-5.6469,-5.646,-5.6451,-5.6422,-5.6377,-5.6305,-5.63,-5.6294,0.0,0.0,0.0,0.0,0.0,0.2965,0.0,0.0,0.0,0.1111,0.0997,0.0,0.0,0.0,0.0,0.0,0.0,0.0,0.0,-0.3116,0.0,-0.3019,-0.3056,-0.3393,-0.4327,-0.4796,-0.6083,-0.8577,-0.8788,-0.9415,-1.069,-1.0937,-1.1252,-1.1608,-1.1986,-1.2505,-1.2924,-1.4114,-1.487,-1.507,-1.7166,-1.7977,-1.7726,-1.9007,-1.9805,-2.0317,-2.2134,-2.3435,-2.445,-2.6557,-2.7798,-2.8283,-2.838,-2.8598,-2.9293,-3.3796,-3.5894,-3.7146,-4.1469,-4.436,-4.6467,-4.7756,-4.9261,-5.0629,-5.1047,-5.1073,-5.0918,-5.0656,-5.0507,-5.0399,-5.0139,-5.0031,-4.9898,-4.9673,-4.9495,-4.9321,-4.9179,-5.0203,-5.1245,-5.1518,-5.1985,-5.2698,-5.3795,-5.403,-5.4161,-5.4378,-5.4535,-5.464,-5.4572,-5.4633,-5.4741,-5.4914,-5.5173,-5.5371,-5.5461,-5.5932,-5.6129,-5.6018,-5.632,-5.6508,-5.6508,-5.6498,-5.6494,-5.6507,-5.6458,-5.6403,-5.6374,-5.6324,-5.6299,-5.63,-5.6302,-5.6291,0.0,0.0,0.0,0.0,0.1767,0.0,0.0,0.0,0.1111,-0.0504,0.0,0.0,0.0,0.0,0.0,0.0,0.0,0.0,-0.4908,-0.5525,-0.5732,-0.5334,-0.524,-0.555,-0.6361,-0.677,-0.7375,-0.8368,-0.8663,-0.9422,-1.0887,-1.1019,-1.1216,-1.1606,-1.2678,-1.381,-1.4892,-1.6042,-1.7262,-1.8236,-1.854,-1.8723,-1.8686,-1.9723,-2.0682,-2.1778,-2.3272,-2.4801,-2.632,-2.7577,-2.8256,-2.8396,-2.8815,-2.9635,-3.0979,-3.4179,-3.6092,-3.7651,-4.1929,-4.4716,-4.6585,-4.7942,-4.9455,-5.0794,-5.0969,-5.0937,-5.0775,-5.0566,-5.0377,-5.0212,-5.0038,-4.9925,-4.9759,-4.9506,-4.934,-4.9179,-4.8978,-4.9615,-5.0246,-5.0317,-5.0969,-5.2209,-5.4327,-5.3892,-5.3569,-5.4602,-5.4776,-5.4771,-5.4779,-5.509,-5.5324,-5.5322,-5.5669,-5.566,-5.5035,-5.5734,-5.5947,-5.5346,-5.6054,-5.6511,-5.6511,-5.6497,-5.6501,-5.65,-5.6484,-5.6438,-5.6316,-5.6297,-5.63,-5.6297,-5.6304,-5.6291,0.0,0.0,0.0,0.0,0.0,0.0,-0.0302,0.0,-0.0993,0.0,0.0,0.0,0.0,0.0,0.0,0.0,-0.5797,0.0,0.0,0.0,-0.772,0.0,0.0,0.0,-0.7826,-0.8021,-0.8806,-1.0574,-1.0769,-1.1492,-1.3062,-1.3303,-1.3811,-1.4688,-1.5363,-1.6147,-1.7315,-1.7831,-1.8339,-1.8822,-2.0063,-2.0438,-2.0334,-2.1919,-2.3035,-2.3783,-2.4867,-2.6024,-2.7219,-2.8411,-2.8919,-2.9022,-2.9914,-3.0533,-3.144,-3.4727,-3.6501,-3.7899,-4.2255,-4.4751,-4.6386,-4.8947,-5.0339,-5.1005,-5.1131,-5.0972,-5.0734,-5.0638,-5.0363,-5.0063,-5.0012,-4.9871,-4.9673,-4.9446,-4.9308,-4.9146,-4.8943,-4.954,-5.0238,-5.061,-5.0834,-5.1563,-5.3512,-5.3176,-5.2862,-5.3487,-5.3748,-5.39,-5.3906,-5.411,-5.4245,-5.4235,-5.4516,-5.4591,-5.4244,-5.4607,-5.4749,-5.4468,-5.5235,-5.5937,-5.6484,-5.6468,-5.6465,-5.6504,-5.6422,-5.6361,-5.631,-5.6289,-5.6314,-5.6291,-5.6291,-5.6291,0.1093,0.0,0.0,0.0,0.0,0.0,0.0,0.0,0.0,0.0,0.0,0.0,0.0,0.0,0.0,0.0,0.0,-0.8336,0.0,-0.9592,0.0,0.0,0.0,0.0,0.0,-0.9395,-1.0373,-1.2608,-1.2898,-1.368,-1.552,-1.582,-1.6312,-1.7156,-1.7383,-1.7991,-1.9135,-1.9311,-1.959,-1.9892,-2.1564,-2.2346,-2.2252,-2.39,-2.4985,-2.5419,-2.6324,-2.7189,-2.8128,-2.906,-2.9473,-2.969,-3.0501,-3.103,-3.175,-3.4995,-3.6538,-3.7711,-4.2304,-4.5163,-4.7183,-4.9927,-5.0925,-5.1065,-5.1229,-5.1043,-5.0767,-5.0653,-5.0366,-5.0082,-5.0005,-4.9852,-4.9712,-4.9566,-4.9457,-4.9365,-4.9188,-4.9622,-5.0145,-5.0657,-5.0562,-5.079,-5.2146,-5.2207,-5.2239,-5.2757,-5.3039,-5.3244,-5.3365,-5.3429,-5.347,-5.3553,-5.375,-5.3736,-5.3457,-5.3728,-5.391,-5.3904,-5.4447,-5.5079,-5.5767,-5.5723,-5.5706,-5.5768,-5.59,-5.595,-5.5936,-5.6181,-5.6291,-5.6291,-5.6291,-5.6291,0.0,0.0,0.0,-0.2946,0.0,0.0,0.0,0.0,-0.7024,0.0,0.0,0.0,0.0,0.0,0.0,0.0,0.0,0.0,0.0,0.0,0.0,0.0,0.0,0.0,0.0,-1.0867,-1.193,0.0,-1.4398,-1.5543,-1.7747,-1.7855,-1.7956,-1.7956,-1.7963,-1.8627,-1.9837,-2.0503,-2.1418,-2.2656,-2.3406,-2.4003,-2.4423,-2.5179,-2.5695,-2.624,-2.7391,-2.8455,-2.9492,-2.9438,-2.9678,-3.0152,-3.0391,-3.0979,-3.208,-3.4566,-3.5741,-3.6758,-4.1932,-4.6146,-4.9457,-5.0545,-5.0894,-5.0934,-5.1132,-5.1096,-5.0906,-5.0601,-5.0385,-5.0231,-4.9959,-4.9895,-4.9903,-4.9879,-4.9868,-4.9857,-4.9803,-4.9795,-4.9814,-4.9841,-4.9841,-4.9922,-5.0236,-5.0971,-5.1882,-5.3027,-5.3203,-5.33,-5.3553,-5.3591,-5.3701,-5.3952,-5.3986,-5.365,-5.2801,-5.3498,-5.3961,-5.391,-5.3916,-5.3954,-5.3971,-5.3917,-5.3889,-5.3897,-5.4703,-5.5119,-5.5029,-5.5883,-5.6291,-5.6291,-5.6291,-5.6291,0.0,0.0,-0.3286,-0.4973,0.0,0.0,0.0,0.0,0.0,0.0,0.0,0.0,0.0,0.0,0.0,0.0,0.0,0.0,0.0,0.0,0.0,0.0,0.0,0.0,0.0,0.0,-1.4226,-1.5664,-1.6418,0.0,-1.8211,-1.8648,-1.9281,-2.0116,-2.0639,-2.1364,-2.2463,-2.2979,-2.3664,-2.4511,-2.5525,-2.6262,-2.6814,-2.7475,-2.806,-2.8518,-2.8949,-2.9431,-3.0083,-3.0325,-3.0508,-3.0752,-3.1481,-3.2017,-3.2686,-3.4224,-3.5698,-3.7578,-4.2547,-4.6582,-4.957,-5.0274,-5.0724,-5.1,-5.114,-5.1084,-5.0887,-5.0651,-5.047,-5.0313,-5.0163,-5.01,-5.0087,-5.0057,-4.9962,-4.9884,-4.9811,-4.9803,-4.9838,-5.0019,-5.013,-5.031,-5.0624,-5.0941,-5.1247,-5.1511,-5.1624,-5.1738,-5.1858,-5.1968,-5.208,-5.2264,-5.2273,-5.2156,-5.1859,-5.2114,-5.2492,-5.3019,-5.3,-5.3256,-5.3861,-5.3793,-5.3749,-5.381,-5.4051,-5.416,-5.4135,-5.5009,-5.5437,-5.5456,-5.6019,-5.6278,-0.6184,-0.5635,0.0,-0.6573,-0.7,0.0,-0.7168,0.0,-0.7462,0.0,0.0,0.0,0.0,0.0,0.0,0.0,0.0,0.0,0.0,-1.6662,0.0,0.0,0.0,0.0,0.0,-1.6202,-1.6591,-1.7987,-1.864,-1.9298,0.0,-2.0639,-2.1346,-2.218,-2.262,-2.324,-2.4059,-2.4798,-2.5452,-2.6003,-2.7233,-2.8048,-2.8603,-2.9282,-2.9846,-3.0342,-3.0543,-3.093,-3.1241,-3.1422,-3.1569,-3.1729,-3.2437,-3.2876,-3.3269,-3.4185,-3.6016,-3.8638,-4.2616,-4.5979,-4.8735,-4.9931,-5.065,-5.1014,-5.1101,-5.1078,-5.0956,-5.0703,-5.0587,-5.0466,-5.0291,-5.0336,-5.0361,-5.031,-5.0298,-5.0284,-5.0237,-5.0224,-5.0291,-5.0433,-5.0545,-5.0665,-5.0903,-5.0966,-5.0966,-5.0819,-5.0883,-5.0972,-5.1053,-5.115,-5.1252,-5.139,-5.1394,-5.1402,-5.1391,-5.1387,-5.1597,-5.2105,-5.2069,-5.2317,-5.2913,-5.2865,-5.2841,-5.2874,-5.3114,-5.3242,-5.3242,-5.4058,-5.4472,-5.4491,-5.5364,-5.5738]}]]